Time,TemperatureF,DewpointF,PressureIn,WindDirection,WindDirectionDegrees,WindSpeedMPH,WindSpeedGustMPH,Humidity,HourlyPrecipIn,Conditions,Clouds,dailyrainin,SoftwareType,DateUTC
2013-01-06 00:00:00,21.6,16.4,30.20,West,264,1.0,2.0,80,0.00,,SCT250,0.00,VWS V14.01,2013-01-06 05:00:00,
2013-01-06 00:01:00,21.6,16.4,30.20,WSW,238,1.0,1.0,80,0.00,,SCT250,0.00,VWS V14.01,2013-01-06 05:01:00,
2013-01-06 00:02:00,21.6,16.4,30.21,SW,229,1.0,1.0,80,0.00,,SCT250,0.00,VWS V14.01,2013-01-06 05:02:00,
2013-01-06 00:03:00,21.6,16.4,30.21,WSW,238,0.0,1.0,80,0.00,,FEW060,0.00,VWS V14.01,2013-01-06 05:03:00,
2013-01-06 00:04:00,21.6,16.4,30.21,WSW,245,0.0,1.0,80,0.00,,FEW060,0.00,VWS V14.01,2013-01-06 05:04:00,
2013-01-06 00:05:00,21.6,16.4,30.21,SE,131,0.0,0.0,80,0.00,,FEW060,0.00,VWS V14.01,2013-01-06 05:05:00,
2013-01-06 00:06:00,21.7,16.8,30.20,SE,131,0.0,0.0,81,0.00,,FEW060,0.00,VWS V14.01,2013-01-06 05:06:00,
2013-01-06 00:07:00,21.7,16.8,30.21,SE,131,0.0,1.0,81,0.00,,SCT250,0.00,VWS V14.01,2013-01-06 05:07:00,
2013-01-06 00:08:00,21.7,16.8,30.21,SE,131,0.0,0.0,81,0.00,,FEW060,0.00,VWS V14.01,2013-01-06 05:08:00,
2013-01-06 00:09:00,21.7,16.8,30.21,SE,131,0.0,1.0,81,0.00,,FEW060,0.00,VWS V14.01,2013-01-06 05:09:00,
2013-01-06 00:10:00,21.7,16.8,30.20,SE,131,0.0,0.0,81,0.00,,FEW060,0.00,VWS V14.01,2013-01-06 05:10:00,
2013-01-06 00:11:00,21.7,16.8,30.20,SE,131,0.0,0.0,81,0.00,,FEW060,0.00,VWS V14.01,2013-01-06 05:11:00,
2013-01-06 00:12:00,21.7,16.8,30.20,SE,131,0.0,1.0,81,0.00,,SCT250,0.00,VWS V14.01,2013-01-06 05:12:00,
2013-01-06 00:14:00,21.7,16.8,30.20,SE,131,0.0,1.0,81,0.00,,FEW060,0.00,VWS V14.01,2013-01-06 05:14:00,
2013-01-06 00:15:00,21.7,16.8,30.20,SE,131,0.0,0.0,81,0.00,,FEW060,0.00,VWS V14.01,2013-01-06 05:15:00,
2013-01-06 00:16:00,21.7,16.8,30.20,SE,131,0.0,0.0,81,0.00,,FEW060,0.00,VWS V14.01,2013-01-06 05:16:00,
2013-01-06 00:17:00,21.7,16.8,30.19,SE,141,0.0,1.0,81,0.00,,SCT250,0.00,VWS V14.01,2013-01-06 05:17:00,
2013-01-06 00:19:00,21.7,16.8,30.20,SE,141,0.0,1.0,81,0.00,,FEW060,0.00,VWS V14.01,2013-01-06 05:19:00,
2013-01-06 00:20:00,21.7,16.8,30.20,SE,141,0.0,0.0,81,0.00,,FEW060,0.00,VWS V14.01,2013-01-06 05:20:00,
2013-01-06 00:22:00,21.6,16.4,30.19,SE,141,0.0,0.0,80,0.00,,SCT250,0.00,VWS V14.01,2013-01-06 05:22:00,
2013-01-06 00:23:00,21.7,16.5,30.20,SE,141,0.0,0.0,80,0.00,,FEW060,0.00,VWS V14.01,2013-01-06 05:23:00,
2013-01-06 00:24:00,21.6,16.4,30.20,SE,132,0.0,0.0,80,0.00,,FEW060,0.00,VWS V14.01,2013-01-06 05:24:00,
2013-01-06 00:25:00,21.6,16.4,30.20,SE,133,0.0,0.0,80,0.00,,FEW060,0.00,VWS V14.01,2013-01-06 05:25:00,
2013-01-06 00:26:00,21.6,16.7,30.20,SE,133,0.0,0.0,81,0.00,,FEW060,0.00,VWS V14.01,2013-01-06 05:26:00,
2013-01-06 00:27:00,21.7,16.8,30.19,SE,132,0.0,0.0,81,0.00,,SCT250,0.00,VWS V14.01,2013-01-06 05:27:00,
2013-01-06 00:28:00,21.6,16.7,30.20,SE,133,0.0,0.0,81,0.00,,FEW060,0.00,VWS V14.01,2013-01-06 05:28:00,
2013-01-06 00:29:00,21.6,16.7,30.19,SE,132,0.0,0.0,81,0.00,,FEW060,0.00,VWS V14.01,2013-01-06 05:29:00,
2013-01-06 00:30:00,21.6,16.7,30.19,SE,132,0.0,0.0,81,0.00,,FEW060,0.00,VWS V14.01,2013-01-06 05:30:00,
2013-01-06 00:31:00,21.6,16.7,30.19,SE,132,0.0,0.0,81,0.00,,FEW060,0.00,VWS V14.01,2013-01-06 05:31:00,
2013-01-06 00:32:00,21.7,17.1,30.19,SE,133,0.0,0.0,82,0.00,,FEW060,0.00,VWS V14.01,2013-01-06 05:32:00,
2013-01-06 00:33:00,21.7,17.1,30.18,SE,132,0.0,0.0,82,0.00,,SCT250,0.00,VWS V14.01,2013-01-06 05:33:00,
2013-01-06 00:34:00,21.7,17.1,30.18,SE,132,0.0,0.0,82,0.00,,FEW060,0.00,VWS V14.01,2013-01-06 05:34:00,
2013-01-06 00:35:00,21.7,17.1,30.18,SE,132,0.0,1.0,82,0.00,,FEW060,0.00,VWS V14.01,2013-01-06 05:35:00,
2013-01-06 00:36:00,21.8,17.2,30.18,SE,133,0.0,0.0,82,0.00,,FEW060,0.00,VWS V14.01,2013-01-06 05:36:00,
2013-01-06 00:37:00,21.8,17.2,30.18,SE,132,0.0,0.0,82,0.00,,FEW060,0.00,VWS V14.01,2013-01-06 05:37:00,
2013-01-06 00:38:00,21.9,17.0,30.18,SE,132,0.0,0.0,81,0.00,,BKN190,0.00,VWS V14.01,2013-01-06 05:38:00,
2013-01-06 00:39:00,21.9,17.0,30.18,SE,132,0.0,0.0,81,0.00,,FEW060,0.00,VWS V14.01,2013-01-06 05:39:00,
2013-01-06 00:40:00,21.9,17.0,30.18,SE,132,0.0,0.0,81,0.00,,FEW060,0.00,VWS V14.01,2013-01-06 05:40:00,
2013-01-06 00:41:00,21.9,17.0,30.18,ESE,115,0.0,0.0,81,0.00,,FEW060,0.00,VWS V14.01,2013-01-06 05:41:00,
2013-01-06 00:42:00,21.8,16.9,30.18,ESE,116,0.0,0.0,81,0.00,,FEW060,0.00,VWS V14.01,2013-01-06 05:42:00,
2013-01-06 00:43:00,21.9,17.0,30.18,ESE,115,0.0,0.0,81,0.00,,BKN190,0.00,VWS V14.01,2013-01-06 05:43:00,
2013-01-06 00:44:00,21.9,17.0,30.18,ESE,116,0.0,0.0,81,0.00,,FEW060,0.00,VWS V14.01,2013-01-06 05:44:00,
2013-01-06 00:45:00,21.9,17.0,30.18,ESE,116,0.0,0.0,81,0.00,,FEW060,0.00,VWS V14.01,2013-01-06 05:45:00,
2013-01-06 00:46:00,21.9,17.3,30.18,ESE,116,0.0,0.0,82,0.00,,FEW060,0.00,VWS V14.01,2013-01-06 05:46:00,
2013-01-06 00:47:00,22.0,17.4,30.18,ESE,116,0.0,0.0,82,0.00,,FEW060,0.00,VWS V14.01,2013-01-06 05:47:00,
2013-01-06 00:48:00,22.0,17.4,30.18,ESE,116,0.0,0.0,82,0.00,,BKN190,0.00,VWS V14.01,2013-01-06 05:48:00,
2013-01-06 00:49:00,22.0,17.4,30.18,ESE,116,0.0,0.0,82,0.00,,FEW060,0.00,VWS V14.01,2013-01-06 05:49:00,
2013-01-06 00:50:00,22.0,17.4,30.18,ESE,115,0.0,0.0,82,0.00,,FEW060,0.00,VWS V14.01,2013-01-06 05:50:00,
2013-01-06 00:51:00,22.0,17.4,30.18,ESE,116,0.0,0.0,82,0.00,,FEW060,0.00,VWS V14.01,2013-01-06 05:51:00,
2013-01-06 00:52:00,22.0,17.4,30.18,ESE,115,0.0,0.0,82,0.00,,FEW060,0.00,VWS V14.01,2013-01-06 05:52:00,
2013-01-06 00:53:00,22.0,17.4,30.17,NE,54,0.0,0.0,82,0.00,,BKN190,0.00,VWS V14.01,2013-01-06 05:53:00,
2013-01-06 00:54:00,22.0,17.4,30.17,NE,54,0.0,0.0,82,0.00,,FEW060,0.00,VWS V14.01,2013-01-06 05:54:00,
2013-01-06 00:55:00,22.1,17.7,30.17,NE,54,0.0,0.0,83,0.00,,FEW060,0.00,VWS V14.01,2013-01-06 05:55:00,
2013-01-06 00:56:00,22.1,17.7,30.17,NE,53,0.0,0.0,83,0.00,,FEW060,0.00,VWS V14.01,2013-01-06 05:56:00,
2013-01-06 00:57:00,22.2,17.8,30.17,NE,53,0.0,0.0,83,0.00,,FEW060,0.00,VWS V14.01,2013-01-06 05:57:00,
2013-01-06 00:58:00,22.2,17.8,30.17,NE,52,0.0,0.0,83,0.00,,BKN190,0.00,VWS V14.01,2013-01-06 05:58:00,
2013-01-06 00:59:00,22.2,17.8,30.17,NE,52,0.0,0.0,83,0.00,,FEW060,0.00,VWS V14.01,2013-01-06 05:59:00,
2013-01-06 01:00:00,22.2,17.8,30.17,NE,53,0.0,0.0,83,0.00,,FEW060,0.00,VWS V14.01,2013-01-06 06:00:00,
2013-01-06 01:01:00,22.2,17.8,30.17,NE,53,0.0,0.0,83,0.00,,FEW060,0.00,VWS V14.01,2013-01-06 06:01:00,
2013-01-06 01:02:00,22.2,17.8,30.17,NE,53,0.0,0.0,83,0.00,,FEW060,0.00,VWS V14.01,2013-01-06 06:02:00,
2013-01-06 01:03:00,22.1,17.7,30.17,NE,53,0.0,0.0,83,0.00,,BKN190,0.00,VWS V14.01,2013-01-06 06:03:00,
2013-01-06 01:04:00,22.1,17.7,30.17,NE,53,0.0,0.0,83,0.00,,FEW060,0.00,VWS V14.01,2013-01-06 06:04:00,
2013-01-06 01:05:00,22.1,17.7,30.17,ENE,58,0.0,0.0,83,0.00,,FEW060,0.00,VWS V14.01,2013-01-06 06:05:00,
2013-01-06 01:06:00,22.1,17.7,30.18,ENE,65,0.0,0.0,83,0.00,,FEW060,0.00,VWS V14.01,2013-01-06 06:06:00,
2013-01-06 01:07:00,22.0,17.6,30.18,SE,131,0.0,0.0,83,0.00,,FEW060,0.00,VWS V14.01,2013-01-06 06:07:00,
2013-01-06 01:08:00,22.0,17.6,30.18,SE,131,0.0,0.0,83,0.00,,BKN190,0.00,VWS V14.01,2013-01-06 06:08:00,
2013-01-06 01:09:00,22.0,17.6,30.18,SE,131,0.0,0.0,83,0.00,,FEW060,0.00,VWS V14.01,2013-01-06 06:09:00,
2013-01-06 01:10:00,22.0,17.6,30.18,SE,131,0.0,0.0,83,0.00,,FEW060,0.00,VWS V14.01,2013-01-06 06:10:00,
2013-01-06 01:11:00,22.0,17.6,30.18,SE,131,0.0,0.0,83,0.00,,FEW060,0.00,VWS V14.01,2013-01-06 06:11:00,
2013-01-06 01:12:00,22.1,18.0,30.18,SE,131,0.0,0.0,84,0.00,,FEW060,0.00,VWS V14.01,2013-01-06 06:12:00,
2013-01-06 01:13:00,22.1,18.0,30.18,WNW,285,0.0,1.0,84,0.00,,BKN190,0.00,VWS V14.01,2013-01-06 06:13:00,
2013-01-06 01:14:00,22.1,18.0,30.18,WNW,285,0.0,1.0,84,0.00,,FEW060,0.00,VWS V14.01,2013-01-06 06:14:00,
2013-01-06 01:15:00,22.2,18.1,30.18,West,260,1.0,1.0,84,0.00,,FEW060,0.00,VWS V14.01,2013-01-06 06:15:00,
2013-01-06 01:16:00,22.2,18.1,30.18,West,263,0.0,1.0,84,0.00,,FEW060,0.00,VWS V14.01,2013-01-06 06:16:00,
2013-01-06 01:17:00,22.2,17.8,30.18,West,263,0.0,0.0,83,0.00,,FEW060,0.00,VWS V14.01,2013-01-06 06:17:00,
2013-01-06 01:18:00,22.2,17.8,30.17,West,263,0.0,0.0,83,0.00,,BKN190,0.00,VWS V14.01,2013-01-06 06:18:00,
2013-01-06 01:19:00,22.2,17.8,30.17,West,263,0.0,0.0,83,0.00,,FEW060,0.00,VWS V14.01,2013-01-06 06:19:00,
2013-01-06 01:20:00,22.1,17.7,30.17,West,263,0.0,0.0,83,0.00,,FEW060,0.00,VWS V14.01,2013-01-06 06:20:00,
2013-01-06 01:21:00,22.1,17.7,30.18,West,263,0.0,0.0,83,0.00,,FEW060,0.00,VWS V14.01,2013-01-06 06:21:00,
2013-01-06 01:22:00,22.1,17.7,30.18,West,263,0.0,0.0,83,0.00,,FEW060,0.00,VWS V14.01,2013-01-06 06:22:00,
2013-01-06 01:23:00,22.1,17.7,30.18,West,263,0.0,0.0,83,0.00,,BKN190,0.00,VWS V14.01,2013-01-06 06:23:00,
2013-01-06 01:24:00,22.1,17.7,30.18,West,263,0.0,0.0,83,0.00,,FEW060,0.00,VWS V14.01,2013-01-06 06:24:00,
2013-01-06 01:25:00,22.1,17.7,30.18,West,263,0.0,0.0,83,0.00,,FEW060,0.00,VWS V14.01,2013-01-06 06:25:00,
2013-01-06 01:26:00,22.1,17.7,30.18,West,263,1.0,1.0,83,0.00,,FEW060,0.00,VWS V14.01,2013-01-06 06:26:00,
2013-01-06 01:27:00,22.1,17.7,30.18,West,263,0.0,1.0,83,0.00,,FEW060,0.00,VWS V14.01,2013-01-06 06:27:00,
2013-01-06 01:28:00,22.1,17.7,30.18,West,263,0.0,0.0,83,0.00,,BKN190,0.00,VWS V14.01,2013-01-06 06:28:00,
2013-01-06 01:29:00,22.1,17.7,30.18,West,263,0.0,0.0,83,0.00,,FEW060,0.00,VWS V14.01,2013-01-06 06:29:00,
2013-01-06 01:30:00,22.1,17.7,30.18,West,263,0.0,0.0,83,0.00,,FEW060,0.00,VWS V14.01,2013-01-06 06:30:00,
2013-01-06 01:31:00,22.1,17.7,30.18,West,263,0.0,0.0,83,0.00,,FEW060,0.00,VWS V14.01,2013-01-06 06:31:00,
2013-01-06 01:32:00,22.1,18.0,30.17,West,263,0.0,0.0,84,0.00,,FEW060,0.00,VWS V14.01,2013-01-06 06:32:00,
2013-01-06 01:33:00,22.2,17.8,30.18,West,263,0.0,0.0,83,0.00,,BKN190,0.00,VWS V14.01,2013-01-06 06:33:00,
2013-01-06 01:34:00,22.2,17.8,30.18,West,263,0.0,0.0,83,0.00,,FEW060,0.00,VWS V14.01,2013-01-06 06:34:00,
2013-01-06 01:35:00,22.2,17.8,30.19,West,263,0.0,0.0,83,0.00,,FEW060,0.00,VWS V14.01,2013-01-06 06:35:00,
2013-01-06 01:36:00,22.2,17.8,30.19,West,263,0.0,0.0,83,0.00,,FEW060,0.00,VWS V14.01,2013-01-06 06:36:00,
2013-01-06 01:37:00,22.2,17.8,30.19,West,263,0.0,0.0,83,0.00,,FEW060,0.00,VWS V14.01,2013-01-06 06:37:00,
2013-01-06 01:38:00,22.2,17.8,30.19,West,263,0.0,0.0,83,0.00,,BKN190,0.00,VWS V14.01,2013-01-06 06:38:00,
2013-01-06 01:39:00,22.2,17.8,30.19,West,263,0.0,0.0,83,0.00,,FEW060,0.00,VWS V14.01,2013-01-06 06:39:00,
2013-01-06 01:40:00,22.2,17.8,30.19,West,263,0.0,0.0,83,0.00,,FEW060,0.00,VWS V14.01,2013-01-06 06:40:00,
2013-01-06 01:41:00,22.2,17.8,30.19,West,263,0.0,0.0,83,0.00,,FEW060,0.00,VWS V14.01,2013-01-06 06:41:00,
2013-01-06 01:42:00,22.3,17.9,30.19,West,263,1.0,1.0,83,0.00,,FEW060,0.00,VWS V14.01,2013-01-06 06:42:00,
2013-01-06 01:43:00,22.2,17.8,30.18,West,263,0.0,1.0,83,0.00,,BKN190,0.00,VWS V14.01,2013-01-06 06:43:00,
2013-01-06 01:44:00,22.2,17.8,30.18,West,263,0.0,1.0,83,0.00,,FEW060,0.00,VWS V14.01,2013-01-06 06:44:00,
2013-01-06 01:45:00,22.2,17.8,30.18,West,263,0.0,0.0,83,0.00,,FEW060,0.00,VWS V14.01,2013-01-06 06:45:00,
2013-01-06 01:46:00,22.2,17.8,30.18,West,263,0.0,0.0,83,0.00,,FEW060,0.00,VWS V14.01,2013-01-06 06:46:00,
2013-01-06 01:47:00,22.3,17.9,30.18,West,263,0.0,0.0,83,0.00,,FEW060,0.00,VWS V14.01,2013-01-06 06:47:00,
2013-01-06 01:48:00,22.3,17.9,30.19,West,263,0.0,0.0,83,0.00,,BKN190,0.00,VWS V14.01,2013-01-06 06:48:00,
2013-01-06 01:49:00,22.3,17.9,30.19,West,263,0.0,0.0,83,0.00,,FEW060,0.00,VWS V14.01,2013-01-06 06:49:00,
2013-01-06 01:50:00,22.3,17.9,30.19,West,263,0.0,0.0,83,0.00,,FEW060,0.00,VWS V14.01,2013-01-06 06:50:00,
2013-01-06 01:51:00,22.3,17.9,30.19,West,263,0.0,0.0,83,0.00,,FEW060,0.00,VWS V14.01,2013-01-06 06:51:00,
2013-01-06 01:52:00,22.3,17.9,30.19,West,263,0.0,0.0,83,0.00,,FEW060,0.00,VWS V14.01,2013-01-06 06:52:00,
2013-01-06 01:53:00,22.4,18.3,30.19,SE,142,0.0,0.0,84,0.00,,BKN190,0.00,VWS V14.01,2013-01-06 06:53:00,
2013-01-06 01:54:00,22.4,18.3,30.19,SE,142,0.0,0.0,84,0.00,,FEW060,0.00,VWS V14.01,2013-01-06 06:54:00,
2013-01-06 01:55:00,22.4,18.3,30.19,SE,142,0.0,0.0,84,0.00,,FEW060,0.00,VWS V14.01,2013-01-06 06:55:00,
2013-01-06 01:56:00,22.4,18.3,30.19,SE,142,0.0,0.0,84,0.00,,FEW060,0.00,VWS V14.01,2013-01-06 06:56:00,
2013-01-06 01:57:00,22.4,18.3,30.19,SE,142,0.0,0.0,84,0.00,,FEW060,0.00,VWS V14.01,2013-01-06 06:57:00,
2013-01-06 01:58:00,22.4,18.3,30.18,SE,143,0.0,0.0,84,0.00,,BKN190,0.00,VWS V14.01,2013-01-06 06:58:00,
2013-01-06 01:59:00,22.4,18.3,30.18,SE,143,0.0,0.0,84,0.00,,FEW060,0.00,VWS V14.01,2013-01-06 06:59:00,
2013-01-06 02:00:00,22.5,18.4,30.18,SSW,201,0.0,0.0,84,0.00,,FEW060,0.00,VWS V14.01,2013-01-06 07:00:00,
2013-01-06 02:01:00,22.5,18.4,30.18,SSW,201,0.0,0.0,84,0.00,,FEW060,0.00,VWS V14.01,2013-01-06 07:01:00,
2013-01-06 02:02:00,22.5,18.4,30.18,SSW,201,0.0,0.0,84,0.00,,FEW060,0.00,VWS V14.01,2013-01-06 07:02:00,
2013-01-06 02:03:00,22.6,18.5,30.18,SW,218,0.0,0.0,84,0.00,,BKN190,0.00,VWS V14.01,2013-01-06 07:03:00,
2013-01-06 02:04:00,22.6,18.5,30.18,SW,218,0.0,0.0,84,0.00,,FEW060,0.00,VWS V14.01,2013-01-06 07:04:00,
2013-01-06 02:05:00,22.6,18.5,30.18,SW,218,0.0,0.0,84,0.00,,FEW060,0.00,VWS V14.01,2013-01-06 07:05:00,
2013-01-06 02:06:00,22.6,18.5,30.18,SW,218,0.0,0.0,84,0.00,,FEW060,0.00,VWS V14.01,2013-01-06 07:06:00,
2013-01-06 02:07:00,22.6,18.5,30.19,SW,218,0.0,0.0,84,0.00,,FEW060,0.00,VWS V14.01,2013-01-06 07:07:00,
2013-01-06 02:08:00,22.6,18.5,30.19,SW,218,0.0,0.0,84,0.00,,BKN190,0.00,VWS V14.01,2013-01-06 07:08:00,
2013-01-06 02:09:00,22.6,18.5,30.19,SW,218,0.0,0.0,84,0.00,,FEW060,0.00,VWS V14.01,2013-01-06 07:09:00,
2013-01-06 02:10:00,22.6,18.5,30.19,SW,218,0.0,0.0,84,0.00,,FEW060,0.00,VWS V14.01,2013-01-06 07:10:00,
2013-01-06 02:11:00,22.6,18.5,30.19,SW,218,0.0,0.0,84,0.00,,FEW060,0.00,VWS V14.01,2013-01-06 07:11:00,
2013-01-06 02:12:00,22.7,18.6,30.19,SW,218,0.0,0.0,84,0.00,,FEW060,0.00,VWS V14.01,2013-01-06 07:12:00,
2013-01-06 02:13:00,22.6,18.5,30.20,SW,218,0.0,0.0,84,0.00,,BKN190,0.00,VWS V14.01,2013-01-06 07:13:00,
2013-01-06 02:14:00,22.6,18.5,30.20,SW,218,0.0,0.0,84,0.00,,FEW060,0.00,VWS V14.01,2013-01-06 07:14:00,
2013-01-06 02:15:00,22.6,18.5,30.20,SW,218,0.0,0.0,84,0.00,,FEW060,0.00,VWS V14.01,2013-01-06 07:15:00,
2013-01-06 02:16:00,22.6,18.5,30.20,SW,218,0.0,0.0,84,0.00,,FEW060,0.00,VWS V14.01,2013-01-06 07:16:00,
2013-01-06 02:17:00,22.6,18.5,30.20,SW,218,0.0,0.0,84,0.00,,FEW060,0.00,VWS V14.01,2013-01-06 07:17:00,
2013-01-06 02:18:00,22.7,18.6,30.19,WSW,252,1.0,1.0,84,0.00,,BKN190,0.00,VWS V14.01,2013-01-06 07:18:00,
2013-01-06 02:19:00,22.7,18.6,30.19,WSW,252,1.0,1.0,84,0.00,,FEW060,0.00,VWS V14.01,2013-01-06 07:19:00,
2013-01-06 02:20:00,22.7,18.6,30.20,WSW,256,1.0,1.0,84,0.00,,FEW060,0.00,VWS V14.01,2013-01-06 07:20:00,
2013-01-06 02:21:00,22.7,18.9,30.20,WSW,256,1.0,1.0,85,0.00,,FEW060,0.00,VWS V14.01,2013-01-06 07:21:00,
2013-01-06 02:22:00,22.7,18.9,30.20,WSW,256,0.0,1.0,85,0.00,,FEW060,0.00,VWS V14.01,2013-01-06 07:22:00,
2013-01-06 02:23:00,22.7,18.9,30.20,WSW,256,0.0,0.0,85,0.00,,BKN190,0.00,VWS V14.01,2013-01-06 07:23:00,
2013-01-06 02:24:00,22.7,18.9,30.20,WSW,256,0.0,0.0,85,0.00,,FEW060,0.00,VWS V14.01,2013-01-06 07:24:00,
2013-01-06 02:25:00,22.8,19.0,30.20,WSW,255,0.0,1.0,85,0.00,,FEW060,0.00,VWS V14.01,2013-01-06 07:25:00,
2013-01-06 02:26:00,22.8,19.0,30.20,WSW,256,0.0,0.0,85,0.00,,FEW060,0.00,VWS V14.01,2013-01-06 07:26:00,
2013-01-06 02:27:00,22.8,19.0,30.20,WSW,256,0.0,0.0,85,0.00,,FEW060,0.00,VWS V14.01,2013-01-06 07:27:00,
2013-01-06 02:28:00,22.8,19.0,30.20,WSW,256,0.0,0.0,85,0.00,,BKN190,0.00,VWS V14.01,2013-01-06 07:28:00,
2013-01-06 02:29:00,22.8,19.0,30.20,WSW,256,0.0,0.0,85,0.00,,FEW060,0.00,VWS V14.01,2013-01-06 07:29:00,
2013-01-06 02:30:00,22.8,19.0,30.19,West,259,0.0,1.0,85,0.00,,FEW060,0.00,VWS V14.01,2013-01-06 07:30:00,
2013-01-06 02:31:00,22.9,19.1,30.19,West,259,0.0,0.0,85,0.00,,FEW060,0.00,VWS V14.01,2013-01-06 07:31:00,
2013-01-06 02:32:00,22.9,18.8,30.19,West,259,0.0,0.0,84,0.00,,FEW060,0.00,VWS V14.01,2013-01-06 07:32:00,
2013-01-06 02:33:00,22.9,18.8,30.18,West,259,0.0,0.0,84,0.00,,BKN190,0.00,VWS V14.01,2013-01-06 07:33:00,
2013-01-06 02:34:00,22.9,18.8,30.18,West,259,0.0,0.0,84,0.00,,FEW060,0.00,VWS V14.01,2013-01-06 07:34:00,
2013-01-06 02:35:00,22.9,18.8,30.19,West,259,0.0,0.0,84,0.00,,FEW060,0.00,VWS V14.01,2013-01-06 07:35:00,
2013-01-06 02:36:00,22.9,18.8,30.19,West,259,0.0,0.0,84,0.00,,FEW060,0.00,VWS V14.01,2013-01-06 07:36:00,
2013-01-06 02:37:00,22.9,18.8,30.18,West,259,0.0,0.0,84,0.00,,FEW060,0.00,VWS V14.01,2013-01-06 07:37:00,
2013-01-06 02:38:00,22.9,18.8,30.18,WSW,255,0.0,0.0,84,0.00,,BKN190,0.00,VWS V14.01,2013-01-06 07:38:00,
2013-01-06 02:39:00,22.9,18.8,30.18,WSW,255,0.0,0.0,84,0.00,,FEW060,0.00,VWS V14.01,2013-01-06 07:39:00,
2013-01-06 02:40:00,22.9,18.8,30.18,WSW,255,0.0,0.0,84,0.00,,FEW060,0.00,VWS V14.01,2013-01-06 07:40:00,
2013-01-06 02:41:00,22.9,18.8,30.18,WSW,255,0.0,0.0,84,0.00,,FEW060,0.00,VWS V14.01,2013-01-06 07:41:00,
2013-01-06 02:42:00,22.9,18.8,30.18,WSW,257,0.0,0.0,84,0.00,,FEW060,0.00,VWS V14.01,2013-01-06 07:42:00,
2013-01-06 02:43:00,23.0,18.6,30.18,WSW,257,0.0,0.0,83,0.00,,BKN190,0.00,VWS V14.01,2013-01-06 07:43:00,
2013-01-06 02:44:00,23.0,18.6,30.18,WSW,257,0.0,0.0,83,0.00,,FEW060,0.00,VWS V14.01,2013-01-06 07:44:00,
2013-01-06 02:45:00,23.0,18.6,30.18,WSW,257,0.0,0.0,83,0.00,,FEW060,0.00,VWS V14.01,2013-01-06 07:45:00,
2013-01-06 02:46:00,23.0,18.6,30.18,WSW,257,0.0,0.0,83,0.00,,FEW060,0.00,VWS V14.01,2013-01-06 07:46:00,
2013-01-06 02:47:00,23.0,18.6,30.17,WSW,257,0.0,0.0,83,0.00,,FEW060,0.00,VWS V14.01,2013-01-06 07:47:00,
2013-01-06 02:48:00,23.0,18.6,30.18,WSW,250,0.0,0.0,83,0.00,,BKN190,0.00,VWS V14.01,2013-01-06 07:48:00,
2013-01-06 02:49:00,23.0,18.6,30.18,WSW,250,0.0,0.0,83,0.00,,FEW060,0.00,VWS V14.01,2013-01-06 07:49:00,
2013-01-06 02:50:00,23.1,18.7,30.18,WSW,250,0.0,0.0,83,0.00,,FEW060,0.00,VWS V14.01,2013-01-06 07:50:00,
2013-01-06 02:51:00,23.1,18.7,30.18,WSW,250,0.0,0.0,83,0.00,,FEW060,0.00,VWS V14.01,2013-01-06 07:51:00,
2013-01-06 02:52:00,23.1,18.7,30.18,WSW,250,0.0,0.0,83,0.00,,FEW060,0.00,VWS V14.01,2013-01-06 07:52:00,
2013-01-06 02:53:00,23.1,18.7,30.18,WSW,250,0.0,0.0,83,0.00,,BKN190,0.00,VWS V14.01,2013-01-06 07:53:00,
2013-01-06 02:54:00,23.1,18.7,30.18,WSW,250,0.0,0.0,83,0.00,,FEW060,0.00,VWS V14.01,2013-01-06 07:54:00,
2013-01-06 02:55:00,23.1,18.7,30.18,WSW,250,0.0,0.0,83,0.00,,FEW060,0.00,VWS V14.01,2013-01-06 07:55:00,
2013-01-06 02:56:00,23.2,18.8,30.18,WSW,250,0.0,0.0,83,0.00,,FEW060,0.00,VWS V14.01,2013-01-06 07:56:00,
2013-01-06 02:57:00,23.2,18.8,30.18,WSW,250,0.0,0.0,83,0.00,,FEW060,0.00,VWS V14.01,2013-01-06 07:57:00,
2013-01-06 02:58:00,23.2,18.8,30.18,WSW,250,0.0,0.0,83,0.00,,BKN190,0.00,VWS V14.01,2013-01-06 07:58:00,
2013-01-06 02:59:00,23.2,18.8,30.18,WSW,250,0.0,0.0,83,0.00,,FEW060,0.00,VWS V14.01,2013-01-06 07:59:00,
2013-01-06 03:00:00,23.2,18.8,30.18,WSW,250,0.0,0.0,83,0.00,,FEW060,0.00,VWS V14.01,2013-01-06 08:00:00,
2013-01-06 03:01:00,23.3,18.9,30.18,WSW,250,0.0,0.0,83,0.00,,FEW060,0.00,VWS V14.01,2013-01-06 08:01:00,
2013-01-06 03:02:00,23.3,18.9,30.18,WSW,250,0.0,0.0,83,0.00,,FEW060,0.00,VWS V14.01,2013-01-06 08:02:00,
2013-01-06 03:03:00,23.3,18.9,30.17,WSW,250,0.0,0.0,83,0.00,,BKN190,0.00,VWS V14.01,2013-01-06 08:03:00,
2013-01-06 03:04:00,23.3,18.9,30.17,WSW,250,0.0,0.0,83,0.00,,FEW060,0.00,VWS V14.01,2013-01-06 08:04:00,
2013-01-06 03:05:00,23.3,18.9,30.17,WSW,250,0.0,0.0,83,0.00,,FEW060,0.00,VWS V14.01,2013-01-06 08:05:00,
2013-01-06 03:06:00,23.4,19.0,30.17,WSW,250,0.0,0.0,83,0.00,,FEW060,0.00,VWS V14.01,2013-01-06 08:06:00,
2013-01-06 03:07:00,23.3,18.9,30.17,WSW,250,0.0,0.0,83,0.00,,FEW060,0.00,VWS V14.01,2013-01-06 08:07:00,
2013-01-06 03:08:00,23.3,18.9,30.17,WSW,250,0.0,0.0,83,0.00,,BKN190,0.00,VWS V14.01,2013-01-06 08:08:00,
2013-01-06 03:09:00,23.3,18.9,30.17,WSW,250,0.0,0.0,83,0.00,,FEW060,0.00,VWS V14.01,2013-01-06 08:09:00,
2013-01-06 03:10:00,23.3,18.9,30.17,WSW,250,0.0,0.0,83,0.00,,FEW060,0.00,VWS V14.01,2013-01-06 08:10:00,
2013-01-06 03:11:00,23.4,19.0,30.17,WSW,250,0.0,0.0,83,0.00,,FEW060,0.00,VWS V14.01,2013-01-06 08:11:00,
2013-01-06 03:12:00,23.3,18.9,30.17,WSW,250,0.0,0.0,83,0.00,,FEW060,0.00,VWS V14.01,2013-01-06 08:12:00,
2013-01-06 03:13:00,23.3,18.9,30.16,WSW,250,0.0,0.0,83,0.00,,BKN190,0.00,VWS V14.01,2013-01-06 08:13:00,
2013-01-06 03:15:00,23.3,18.9,30.16,WSW,250,0.0,0.0,83,0.00,,FEW060,0.00,VWS V14.01,2013-01-06 08:15:00,
2013-01-06 03:16:00,23.3,18.9,30.16,WSW,250,0.0,0.0,83,0.00,,FEW060,0.00,VWS V14.01,2013-01-06 08:16:00,
2013-01-06 03:17:00,23.3,18.9,30.16,WSW,250,0.0,0.0,83,0.00,,FEW060,0.00,VWS V14.01,2013-01-06 08:17:00,
2013-01-06 03:18:00,23.3,18.9,30.15,WSW,252,0.0,0.0,83,0.00,,BKN190,0.00,VWS V14.01,2013-01-06 08:18:00,
2013-01-06 03:19:00,23.3,18.9,30.15,WSW,252,0.0,0.0,83,0.00,,FEW060,0.00,VWS V14.01,2013-01-06 08:19:00,
2013-01-06 03:20:00,23.3,18.6,30.15,WSW,252,0.0,0.0,82,0.00,,FEW060,0.00,VWS V14.01,2013-01-06 08:20:00,
2013-01-06 03:21:00,23.2,18.5,30.15,WSW,252,0.0,0.0,82,0.00,,FEW060,0.00,VWS V14.01,2013-01-06 08:21:00,
2013-01-06 03:22:00,23.2,18.5,30.15,WSW,252,0.0,0.0,82,0.00,,FEW060,0.00,VWS V14.01,2013-01-06 08:22:00,
2013-01-06 03:23:00,23.2,18.5,30.15,WSW,252,0.0,0.0,82,0.00,,BKN190,0.00,VWS V14.01,2013-01-06 08:23:00,
2013-01-06 03:24:00,23.2,18.5,30.15,WSW,252,0.0,0.0,82,0.00,,FEW060,0.00,VWS V14.01,2013-01-06 08:24:00,
2013-01-06 03:25:00,23.2,18.8,30.15,WSW,252,0.0,0.0,83,0.00,,FEW060,0.00,VWS V14.01,2013-01-06 08:25:00,
2013-01-06 03:26:00,23.2,18.8,30.15,WSW,252,0.0,0.0,83,0.00,,FEW060,0.00,VWS V14.01,2013-01-06 08:26:00,
2013-01-06 03:27:00,23.2,18.8,30.15,WSW,252,0.0,0.0,83,0.00,,FEW060,0.00,VWS V14.01,2013-01-06 08:27:00,
2013-01-06 03:28:00,23.2,18.8,30.14,WSW,252,0.0,0.0,83,0.00,,BKN190,0.00,VWS V14.01,2013-01-06 08:28:00,
2013-01-06 03:29:00,23.2,18.8,30.14,WSW,252,0.0,0.0,83,0.00,,FEW060,0.00,VWS V14.01,2013-01-06 08:29:00,
2013-01-06 03:30:00,23.2,18.8,30.14,WSW,252,0.0,0.0,83,0.00,,FEW060,0.00,VWS V14.01,2013-01-06 08:30:00,
2013-01-06 03:31:00,23.2,18.8,30.14,WSW,252,0.0,0.0,83,0.00,,FEW060,0.00,VWS V14.01,2013-01-06 08:31:00,
2013-01-06 03:32:00,23.2,18.8,30.14,WSW,252,0.0,0.0,83,0.00,,FEW060,0.00,VWS V14.01,2013-01-06 08:32:00,
2013-01-06 03:33:00,23.2,18.8,30.14,WSW,252,0.0,0.0,83,0.00,,BKN190,0.00,VWS V14.01,2013-01-06 08:33:00,
2013-01-06 03:34:00,23.2,18.8,30.14,WSW,252,0.0,0.0,83,0.00,,FEW060,0.00,VWS V14.01,2013-01-06 08:34:00,
2013-01-06 03:35:00,23.3,18.9,30.14,WSW,252,0.0,0.0,83,0.00,,FEW060,0.00,VWS V14.01,2013-01-06 08:35:00,
2013-01-06 03:36:00,23.3,18.9,30.14,WSW,252,0.0,0.0,83,0.00,,FEW060,0.00,VWS V14.01,2013-01-06 08:36:00,
2013-01-06 03:37:00,23.3,18.9,30.14,WSW,252,0.0,0.0,83,0.00,,FEW060,0.00,VWS V14.01,2013-01-06 08:37:00,
2013-01-06 03:38:00,23.3,18.9,30.13,WSW,252,0.0,0.0,83,0.00,,BKN190,0.00,VWS V14.01,2013-01-06 08:38:00,
2013-01-06 03:39:00,23.3,18.9,30.13,WSW,252,0.0,0.0,83,0.00,,FEW060,0.00,VWS V14.01,2013-01-06 08:39:00,
2013-01-06 03:40:00,23.4,19.0,30.13,WSW,252,0.0,0.0,83,0.00,,FEW060,0.00,VWS V14.01,2013-01-06 08:40:00,
2013-01-06 03:41:00,23.4,19.0,30.12,WSW,252,0.0,0.0,83,0.00,,FEW060,0.00,VWS V14.01,2013-01-06 08:41:00,
2013-01-06 03:42:00,23.4,19.0,30.12,WSW,252,0.0,0.0,83,0.00,,FEW060,0.00,VWS V14.01,2013-01-06 08:42:00,
2013-01-06 03:43:00,23.4,19.0,30.12,WSW,252,0.0,0.0,83,0.00,,BKN190,0.00,VWS V14.01,2013-01-06 08:43:00,
2013-01-06 03:44:00,23.4,19.0,30.12,WSW,252,0.0,0.0,83,0.00,,FEW060,0.00,VWS V14.01,2013-01-06 08:44:00,
2013-01-06 03:45:00,23.4,19.0,30.12,WSW,252,0.0,0.0,83,0.00,,FEW060,0.00,VWS V14.01,2013-01-06 08:45:00,
2013-01-06 03:46:00,23.4,19.0,30.12,WSW,252,0.0,0.0,83,0.00,,FEW060,0.00,VWS V14.01,2013-01-06 08:46:00,
2013-01-06 03:47:00,23.4,18.7,30.12,WSW,252,0.0,0.0,82,0.00,,FEW060,0.00,VWS V14.01,2013-01-06 08:47:00,
2013-01-06 03:48:00,23.4,19.0,30.12,WSW,252,0.0,0.0,83,0.00,,BKN190,0.00,VWS V14.01,2013-01-06 08:48:00,
2013-01-06 03:49:00,23.4,19.0,30.12,WSW,252,0.0,0.0,83,0.00,,FEW060,0.00,VWS V14.01,2013-01-06 08:49:00,
2013-01-06 03:50:00,23.5,19.1,30.12,WSW,252,0.0,0.0,83,0.00,,FEW060,0.00,VWS V14.01,2013-01-06 08:50:00,
2013-01-06 03:51:00,23.5,19.1,30.12,WSW,252,0.0,0.0,83,0.00,,FEW060,0.00,VWS V14.01,2013-01-06 08:51:00,
2013-01-06 03:52:00,23.5,18.8,30.12,WSW,252,0.0,0.0,82,0.00,,FEW060,0.00,VWS V14.01,2013-01-06 08:52:00,
2013-01-06 03:53:00,23.5,18.8,30.13,WSW,252,0.0,0.0,82,0.00,,OVC190,0.00,VWS V14.01,2013-01-06 08:53:00,
2013-01-06 03:54:00,23.5,18.8,30.12,WSW,252,0.0,0.0,82,0.00,,FEW060,0.00,VWS V14.01,2013-01-06 08:54:00,
2013-01-06 03:55:00,23.5,18.8,30.12,WSW,252,0.0,0.0,82,0.00,,FEW060,0.00,VWS V14.01,2013-01-06 08:55:00,
2013-01-06 03:56:00,23.5,18.8,30.13,WSW,252,0.0,0.0,82,0.00,,FEW060,0.00,VWS V14.01,2013-01-06 08:56:00,
2013-01-06 03:57:00,23.6,18.9,30.12,WSW,252,0.0,0.0,82,0.00,,FEW060,0.00,VWS V14.01,2013-01-06 08:57:00,
2013-01-06 03:58:00,23.6,18.9,30.12,WSW,252,0.0,0.0,82,0.00,,OVC190,0.00,VWS V14.01,2013-01-06 08:58:00,
2013-01-06 03:59:00,23.6,18.9,30.12,WSW,252,0.0,0.0,82,0.00,,FEW060,0.00,VWS V14.01,2013-01-06 08:59:00,
2013-01-06 04:00:00,23.6,18.9,30.12,WSW,252,0.0,0.0,82,0.00,,FEW060,0.00,VWS V14.01,2013-01-06 09:00:00,
2013-01-06 04:01:00,23.6,18.9,30.12,WSW,252,0.0,0.0,82,0.00,,FEW060,0.00,VWS V14.01,2013-01-06 09:01:00,
2013-01-06 04:02:00,23.6,18.9,30.12,WSW,252,0.0,0.0,82,0.00,,FEW060,0.00,VWS V14.01,2013-01-06 09:02:00,
2013-01-06 04:03:00,23.6,18.9,30.11,WSW,252,0.0,0.0,82,0.00,,OVC190,0.00,VWS V14.01,2013-01-06 09:03:00,
2013-01-06 04:04:00,23.6,18.9,30.11,WSW,252,0.0,0.0,82,0.00,,FEW060,0.00,VWS V14.01,2013-01-06 09:04:00,
2013-01-06 04:05:00,23.6,18.9,30.11,WSW,252,0.0,0.0,82,0.00,,FEW060,0.00,VWS V14.01,2013-01-06 09:05:00,
2013-01-06 04:06:00,23.6,18.6,30.12,WSW,252,0.0,0.0,81,0.00,,FEW060,0.00,VWS V14.01,2013-01-06 09:06:00,
2013-01-06 04:07:00,23.6,18.6,30.12,WSW,252,0.0,0.0,81,0.00,,FEW060,0.00,VWS V14.01,2013-01-06 09:07:00,
2013-01-06 04:08:00,23.6,18.6,30.11,WSW,252,0.0,0.0,81,0.00,,OVC190,0.00,VWS V14.01,2013-01-06 09:08:00,
2013-01-06 04:09:00,23.6,18.6,30.12,WSW,252,0.0,0.0,81,0.00,,FEW060,0.00,VWS V14.01,2013-01-06 09:09:00,
2013-01-06 04:10:00,23.6,18.6,30.11,WSW,252,0.0,0.0,81,0.00,,FEW060,0.00,VWS V14.01,2013-01-06 09:10:00,
2013-01-06 04:11:00,23.6,18.6,30.11,WSW,252,0.0,0.0,81,0.00,,FEW060,0.00,VWS V14.01,2013-01-06 09:11:00,
2013-01-06 04:12:00,23.6,18.6,30.11,WSW,252,0.0,0.0,81,0.00,,FEW060,0.00,VWS V14.01,2013-01-06 09:12:00,
2013-01-06 04:13:00,23.6,18.4,30.11,WSW,252,0.0,0.0,80,0.00,,OVC190,0.00,VWS V14.01,2013-01-06 09:13:00,
2013-01-06 04:14:00,23.6,18.4,30.10,WSW,252,0.0,0.0,80,0.00,,FEW060,0.00,VWS V14.01,2013-01-06 09:14:00,
2013-01-06 04:15:00,23.6,18.4,30.10,WSW,252,0.0,0.0,80,0.00,,FEW060,0.00,VWS V14.01,2013-01-06 09:15:00,
2013-01-06 04:16:00,23.6,18.4,30.10,WSW,252,0.0,0.0,80,0.00,,FEW060,0.00,VWS V14.01,2013-01-06 09:16:00,
2013-01-06 04:17:00,23.6,18.4,30.10,WSW,252,0.0,0.0,80,0.00,,FEW060,0.00,VWS V14.01,2013-01-06 09:17:00,
2013-01-06 04:18:00,23.6,18.4,30.10,WSW,252,0.0,0.0,80,0.00,,OVC190,0.00,VWS V14.01,2013-01-06 09:18:00,
2013-01-06 04:19:00,23.6,18.4,30.10,WSW,252,0.0,0.0,80,0.00,,FEW060,0.00,VWS V14.01,2013-01-06 09:19:00,
2013-01-06 04:20:00,23.7,18.4,30.10,WSW,252,0.0,0.0,80,0.00,,FEW060,0.00,VWS V14.01,2013-01-06 09:20:00,
2013-01-06 04:21:00,23.7,18.4,30.10,WSW,252,0.0,0.0,80,0.00,,FEW060,0.00,VWS V14.01,2013-01-06 09:21:00,
2013-01-06 04:22:00,23.7,18.4,30.10,WSW,252,0.0,0.0,80,0.00,,FEW060,0.00,VWS V14.01,2013-01-06 09:22:00,
2013-01-06 04:23:00,23.8,18.2,30.10,WSW,252,0.0,0.0,79,0.00,,OVC190,0.00,VWS V14.01,2013-01-06 09:23:00,
2013-01-06 04:24:00,23.8,18.2,30.10,WSW,252,0.0,0.0,79,0.00,,FEW060,0.00,VWS V14.01,2013-01-06 09:24:00,
2013-01-06 04:25:00,23.8,18.2,30.10,WSW,252,0.0,0.0,79,0.00,,FEW060,0.00,VWS V14.01,2013-01-06 09:25:00,
2013-01-06 04:26:00,23.8,18.2,30.10,WSW,252,0.0,0.0,79,0.00,,FEW060,0.00,VWS V14.01,2013-01-06 09:26:00,
2013-01-06 04:27:00,23.8,18.2,30.10,WSW,252,0.0,0.0,79,0.00,,FEW060,0.00,VWS V14.01,2013-01-06 09:27:00,
2013-01-06 04:28:00,23.9,18.4,30.10,WSW,252,0.0,0.0,79,0.00,,OVC190,0.00,VWS V14.01,2013-01-06 09:28:00,
2013-01-06 04:29:00,23.9,18.4,30.10,WSW,252,0.0,0.0,79,0.00,,FEW060,0.00,VWS V14.01,2013-01-06 09:29:00,
2013-01-06 04:30:00,23.9,18.4,30.10,WSW,252,0.0,0.0,79,0.00,,FEW060,0.00,VWS V14.01,2013-01-06 09:30:00,
2013-01-06 04:31:00,24.0,18.4,30.10,WSW,252,0.0,0.0,79,0.00,,FEW060,0.00,VWS V14.01,2013-01-06 09:31:00,
2013-01-06 04:32:00,24.0,18.4,30.09,West,264,0.0,0.0,79,0.00,,FEW060,0.00,VWS V14.01,2013-01-06 09:32:00,
2013-01-06 04:33:00,24.0,18.5,30.09,West,264,0.0,0.0,79,0.00,,OVC190,0.00,VWS V14.01,2013-01-06 09:33:00,
2013-01-06 04:35:00,24.0,18.4,30.09,West,259,0.0,0.0,79,0.00,,FEW060,0.00,VWS V14.01,2013-01-06 09:35:00,
2013-01-06 04:36:00,24.1,18.5,30.09,West,259,0.0,0.0,79,0.00,,FEW060,0.00,VWS V14.01,2013-01-06 09:36:00,
2013-01-06 04:37:00,24.1,18.5,30.09,West,259,0.0,0.0,79,0.00,,FEW060,0.00,VWS V14.01,2013-01-06 09:37:00,
2013-01-06 04:38:00,24.1,18.5,30.09,West,259,0.0,0.0,79,0.00,,OVC150,0.00,VWS V14.01,2013-01-06 09:38:00,
2013-01-06 04:39:00,24.1,18.5,30.09,West,259,0.0,0.0,79,0.00,,FEW060,0.00,VWS V14.01,2013-01-06 09:39:00,
2013-01-06 04:40:00,24.1,18.5,30.09,West,259,0.0,0.0,79,0.00,,FEW060,0.00,VWS V14.01,2013-01-06 09:40:00,
2013-01-06 04:41:00,24.1,18.5,30.09,West,259,0.0,0.0,79,0.00,,FEW060,0.00,VWS V14.01,2013-01-06 09:41:00,
2013-01-06 04:42:00,24.1,18.5,30.09,West,259,0.0,0.0,79,0.00,,FEW060,0.00,VWS V14.01,2013-01-06 09:42:00,
2013-01-06 04:43:00,24.2,18.9,30.09,West,259,0.0,0.0,80,0.00,,OVC150,0.00,VWS V14.01,2013-01-06 09:43:00,
2013-01-06 04:44:00,24.2,18.9,30.09,West,259,0.0,0.0,80,0.00,,FEW060,0.00,VWS V14.01,2013-01-06 09:44:00,
2013-01-06 04:45:00,24.2,18.9,30.10,West,266,1.0,1.0,80,0.00,,FEW060,0.00,VWS V14.01,2013-01-06 09:45:00,
2013-01-06 04:46:00,24.2,18.9,30.10,West,266,0.0,1.0,80,0.00,,FEW060,0.00,VWS V14.01,2013-01-06 09:46:00,
2013-01-06 04:47:00,24.2,18.9,30.10,West,266,0.0,1.0,80,0.00,,FEW060,0.00,VWS V14.01,2013-01-06 09:47:00,
2013-01-06 04:48:00,24.2,18.9,30.09,West,266,0.0,0.0,80,0.00,,OVC150,0.00,VWS V14.01,2013-01-06 09:48:00,
2013-01-06 04:49:00,24.2,18.9,30.09,West,266,0.0,0.0,80,0.00,,FEW060,0.00,VWS V14.01,2013-01-06 09:49:00,
2013-01-06 04:50:00,24.2,18.9,30.09,West,266,0.0,0.0,80,0.00,,FEW060,0.00,VWS V14.01,2013-01-06 09:50:00,
2013-01-06 04:51:00,24.2,18.9,30.09,West,266,0.0,0.0,80,0.00,,FEW060,0.00,VWS V14.01,2013-01-06 09:51:00,
2013-01-06 04:52:00,24.2,18.9,30.09,West,266,0.0,0.0,80,0.00,,FEW060,0.00,VWS V14.01,2013-01-06 09:52:00,
2013-01-06 04:53:00,24.2,18.9,30.09,West,266,0.0,0.0,80,0.00,,OVC150,0.00,VWS V14.01,2013-01-06 09:53:00,
2013-01-06 04:54:00,24.2,18.9,30.09,West,266,0.0,0.0,80,0.00,,FEW060,0.00,VWS V14.01,2013-01-06 09:54:00,
2013-01-06 04:55:00,24.3,19.3,30.09,West,262,0.0,0.0,81,0.00,,FEW060,0.00,VWS V14.01,2013-01-06 09:55:00,
2013-01-06 04:56:00,24.3,19.3,30.09,West,266,0.0,0.0,81,0.00,,FEW060,0.00,VWS V14.01,2013-01-06 09:56:00,
2013-01-06 04:57:00,24.3,19.3,30.09,WSW,256,1.0,2.0,81,0.00,,FEW060,0.00,VWS V14.01,2013-01-06 09:57:00,
2013-01-06 04:58:00,24.3,19.3,30.09,WSW,240,1.0,1.0,81,0.00,,OVC150,0.00,VWS V14.01,2013-01-06 09:58:00,
2013-01-06 04:59:00,24.3,19.3,30.09,WSW,240,1.0,1.0,81,0.00,,FEW060,0.00,VWS V14.01,2013-01-06 09:59:00,
2013-01-06 05:00:00,24.3,19.0,30.09,WSW,250,1.0,1.0,80,0.00,,FEW060,0.00,VWS V14.01,2013-01-06 10:00:00,
2013-01-06 05:01:00,24.2,18.9,30.09,West,259,1.0,2.0,80,0.00,,FEW060,0.00,VWS V14.01,2013-01-06 10:01:00,
2013-01-06 05:02:00,24.2,18.9,30.09,West,266,1.0,2.0,80,0.00,,FEW060,0.00,VWS V14.01,2013-01-06 10:02:00,
2013-01-06 05:03:00,24.2,18.9,30.09,WSW,256,1.0,1.0,80,0.00,,OVC150,0.00,VWS V14.01,2013-01-06 10:03:00,
2013-01-06 05:04:00,24.2,18.9,30.09,WSW,256,1.0,1.0,80,0.00,,FEW060,0.00,VWS V14.01,2013-01-06 10:04:00,
2013-01-06 05:05:00,24.1,18.8,30.09,West,264,1.0,3.0,80,0.00,,FEW060,0.00,VWS V14.01,2013-01-06 10:05:00,
2013-01-06 05:06:00,24.1,18.8,30.10,WSW,257,1.0,2.0,80,0.00,,FEW060,0.00,VWS V14.01,2013-01-06 10:06:00,
2013-01-06 05:07:00,24.1,18.8,30.10,NW,314,1.0,2.0,80,0.00,,FEW060,0.00,VWS V14.01,2013-01-06 10:07:00,
2013-01-06 05:08:00,24.0,18.7,30.09,WSW,250,2.0,3.0,80,0.00,,OVC150,0.00,VWS V14.01,2013-01-06 10:08:00,
2013-01-06 05:09:00,24.0,18.7,30.09,WSW,250,2.0,3.0,80,0.00,,FEW060,0.00,VWS V14.01,2013-01-06 10:09:00,
2013-01-06 05:10:00,23.9,18.6,30.09,West,263,0.0,2.0,80,0.00,,FEW060,0.00,VWS V14.01,2013-01-06 10:10:00,
2013-01-06 05:11:00,23.9,18.9,30.09,WSW,245,1.0,1.0,81,0.00,,FEW060,0.00,VWS V14.01,2013-01-06 10:11:00,
2013-01-06 05:12:00,23.8,18.8,30.09,WSW,249,1.0,1.0,81,0.00,,FEW060,0.00,VWS V14.01,2013-01-06 10:12:00,
2013-01-06 05:13:00,23.7,19.0,30.10,West,280,1.0,2.0,82,0.00,,OVC150,0.00,VWS V14.01,2013-01-06 10:13:00,
2013-01-06 05:14:00,23.7,19.0,30.10,West,280,1.0,2.0,82,0.00,,FEW060,0.00,VWS V14.01,2013-01-06 10:14:00,
2013-01-06 05:15:00,23.7,19.0,30.10,West,280,0.0,1.0,82,0.00,,FEW060,0.00,VWS V14.01,2013-01-06 10:15:00,
2013-01-06 05:16:00,23.6,19.2,30.09,West,280,0.0,0.0,83,0.00,,FEW060,0.00,VWS V14.01,2013-01-06 10:16:00,
2013-01-06 05:17:00,23.6,19.2,30.09,West,281,0.0,0.0,83,0.00,,FEW060,0.00,VWS V14.01,2013-01-06 10:17:00,
2013-01-06 05:18:00,23.5,19.1,30.09,West,281,0.0,0.0,83,0.00,,OVC150,0.00,VWS V14.01,2013-01-06 10:18:00,
2013-01-06 05:19:00,23.5,19.1,30.09,West,281,0.0,0.0,83,0.00,,FEW060,0.00,VWS V14.01,2013-01-06 10:19:00,
2013-01-06 05:20:00,23.5,19.1,30.09,West,281,0.0,0.0,83,0.00,,FEW060,0.00,VWS V14.01,2013-01-06 10:20:00,
2013-01-06 05:21:00,23.5,19.4,30.09,WSW,238,1.0,1.0,84,0.00,,FEW060,0.00,VWS V14.01,2013-01-06 10:21:00,
2013-01-06 05:22:00,23.5,19.4,30.09,WSW,240,0.0,1.0,84,0.00,,FEW060,0.00,VWS V14.01,2013-01-06 10:22:00,
2013-01-06 05:23:00,23.4,19.3,30.09,WSW,252,0.0,0.0,84,0.00,,OVC150,0.00,VWS V14.01,2013-01-06 10:23:00,
2013-01-06 05:24:00,23.4,19.3,30.09,WSW,252,0.0,0.0,84,0.00,,FEW060,0.00,VWS V14.01,2013-01-06 10:24:00,
2013-01-06 05:25:00,23.4,19.6,30.09,WSW,253,0.0,0.0,85,0.00,,FEW060,0.00,VWS V14.01,2013-01-06 10:25:00,
2013-01-06 05:26:00,23.3,19.5,30.09,ESE,116,1.0,1.0,85,0.00,,FEW060,0.00,VWS V14.01,2013-01-06 10:26:00,
2013-01-06 05:27:00,23.3,19.5,30.09,SE,141,0.0,1.0,85,0.00,,FEW060,0.00,VWS V14.01,2013-01-06 10:27:00,
2013-01-06 05:28:00,23.3,19.7,30.09,SE,141,0.0,0.0,86,0.00,,OVC150,0.00,VWS V14.01,2013-01-06 10:28:00,
2013-01-06 05:29:00,23.3,19.7,30.09,SE,141,0.0,0.0,86,0.00,,FEW060,0.00,VWS V14.01,2013-01-06 10:29:00,
2013-01-06 05:30:00,23.3,19.7,30.09,West,266,1.0,1.0,86,0.00,,FEW060,0.00,VWS V14.01,2013-01-06 10:30:00,
2013-01-06 05:31:00,23.3,19.7,30.09,West,264,0.0,1.0,86,0.00,,FEW060,0.00,VWS V14.01,2013-01-06 10:31:00,
2013-01-06 05:32:00,23.3,19.7,30.09,West,264,0.0,1.0,86,0.00,,FEW060,0.00,VWS V14.01,2013-01-06 10:32:00,
2013-01-06 05:33:00,23.2,19.6,30.09,West,264,0.0,1.0,86,0.00,,OVC150,0.00,VWS V14.01,2013-01-06 10:33:00,
2013-01-06 05:34:00,23.2,19.6,30.09,West,264,0.0,1.0,86,0.00,,FEW060,0.00,VWS V14.01,2013-01-06 10:34:00,
2013-01-06 05:35:00,23.2,19.6,30.09,WSW,249,0.0,1.0,86,0.00,,FEW060,0.00,VWS V14.01,2013-01-06 10:35:00,
2013-01-06 05:36:00,23.2,19.6,30.09,West,264,1.0,1.0,86,0.00,,FEW060,0.00,VWS V14.01,2013-01-06 10:36:00,
2013-01-06 05:37:00,23.2,19.6,30.09,SW,233,1.0,2.0,86,0.00,,FEW060,0.00,VWS V14.01,2013-01-06 10:37:00,
2013-01-06 05:38:00,23.1,19.5,30.08,WSW,252,1.0,1.0,86,0.00,,,0.00,VWS V14.01,2013-01-06 10:38:00,
2013-01-06 05:39:00,23.1,19.5,30.09,WSW,253,1.0,2.0,86,0.00,,FEW060,0.00,VWS V14.01,2013-01-06 10:39:00,
2013-01-06 05:40:00,23.1,19.5,30.08,WSW,253,0.0,1.0,86,0.00,,FEW060,0.00,VWS V14.01,2013-01-06 10:40:00,
2013-01-06 05:41:00,23.1,19.5,30.09,WSW,252,0.0,1.0,86,0.00,,FEW060,0.00,VWS V14.01,2013-01-06 10:41:00,
2013-01-06 05:42:00,23.1,19.8,30.08,WSW,252,0.0,0.0,87,0.00,,FEW060,0.00,VWS V14.01,2013-01-06 10:42:00,
2013-01-06 05:43:00,23.1,19.8,30.08,WSW,253,0.0,1.0,87,0.00,,,0.00,VWS V14.01,2013-01-06 10:43:00,
2013-01-06 05:44:00,23.1,19.8,30.08,WSW,253,0.0,1.0,87,0.00,,FEW060,0.00,VWS V14.01,2013-01-06 10:44:00,
2013-01-06 05:45:00,23.1,19.8,30.08,WSW,252,0.0,0.0,87,0.00,,FEW060,0.00,VWS V14.01,2013-01-06 10:45:00,
2013-01-06 05:46:00,23.1,19.8,30.08,WSW,253,0.0,1.0,87,0.00,,FEW060,0.00,VWS V14.01,2013-01-06 10:46:00,
2013-01-06 05:47:00,23.1,19.8,30.08,WSW,252,0.0,1.0,87,0.00,,FEW060,0.00,VWS V14.01,2013-01-06 10:47:00,
2013-01-06 05:48:00,23.0,19.7,30.08,WSW,257,0.0,0.0,87,0.00,,,0.00,VWS V14.01,2013-01-06 10:48:00,
2013-01-06 05:49:00,23.0,19.7,30.08,WSW,257,0.0,1.0,87,0.00,,FEW060,0.00,VWS V14.01,2013-01-06 10:49:00,
2013-01-06 05:50:00,23.0,19.7,30.08,WSW,257,0.0,1.0,87,0.00,,FEW060,0.00,VWS V14.01,2013-01-06 10:50:00,
2013-01-06 05:51:00,23.0,19.7,30.08,West,259,1.0,1.0,87,0.00,,FEW060,0.00,VWS V14.01,2013-01-06 10:51:00,
2013-01-06 05:52:00,23.0,19.7,30.08,West,259,1.0,1.0,87,0.00,,FEW060,0.00,VWS V14.01,2013-01-06 10:52:00,
2013-01-06 05:53:00,23.0,19.7,30.08,West,259,0.0,0.0,87,0.00,,,0.00,VWS V14.01,2013-01-06 10:53:00,
2013-01-06 05:54:00,23.0,19.7,30.08,West,259,0.0,0.0,87,0.00,,FEW060,0.00,VWS V14.01,2013-01-06 10:54:00,
2013-01-06 05:55:00,23.0,19.7,30.08,WSW,253,0.0,0.0,87,0.00,,FEW060,0.00,VWS V14.01,2013-01-06 10:55:00,
2013-01-06 05:56:00,23.0,19.7,30.08,WSW,252,0.0,1.0,87,0.00,,FEW060,0.00,VWS V14.01,2013-01-06 10:56:00,
2013-01-06 05:57:00,23.1,19.8,30.08,WSW,253,0.0,0.0,87,0.00,,FEW060,0.00,VWS V14.01,2013-01-06 10:57:00,
2013-01-06 05:58:00,23.0,19.7,30.08,WSW,253,0.0,0.0,87,0.00,,,0.00,VWS V14.01,2013-01-06 10:58:00,
2013-01-06 05:59:00,23.0,19.7,30.08,WSW,253,0.0,0.0,87,0.00,,FEW060,0.00,VWS V14.01,2013-01-06 10:59:00,
2013-01-06 06:00:00,23.0,19.7,30.08,WSW,252,0.0,1.0,87,0.00,,FEW060,0.00,VWS V14.01,2013-01-06 11:00:00,
2013-01-06 06:01:00,23.0,19.7,30.08,WSW,252,0.0,1.0,87,0.00,,FEW060,0.00,VWS V14.01,2013-01-06 11:01:00,
2013-01-06 06:02:00,23.0,19.7,30.08,WSW,253,0.0,0.0,87,0.00,,FEW060,0.00,VWS V14.01,2013-01-06 11:02:00,
2013-01-06 06:03:00,23.1,19.8,30.08,WSW,252,0.0,0.0,87,0.00,,,0.00,VWS V14.01,2013-01-06 11:03:00,
2013-01-06 06:04:00,23.0,19.7,30.08,WSW,252,0.0,0.0,87,0.00,,FEW060,0.00,VWS V14.01,2013-01-06 11:04:00,
2013-01-06 06:05:00,23.1,19.8,30.08,WSW,252,0.0,1.0,87,0.00,,FEW060,0.00,VWS V14.01,2013-01-06 11:05:00,
2013-01-06 06:06:00,23.1,19.8,30.08,WSW,253,0.0,0.0,87,0.00,,FEW060,0.00,VWS V14.01,2013-01-06 11:06:00,
2013-01-06 06:07:00,23.1,19.8,30.08,WSW,253,0.0,0.0,87,0.00,,FEW060,0.00,VWS V14.01,2013-01-06 11:07:00,
2013-01-06 06:08:00,23.1,19.8,30.08,WSW,256,0.0,0.0,87,0.00,,,0.00,VWS V14.01,2013-01-06 11:08:00,
2013-01-06 06:09:00,23.1,19.8,30.08,WSW,253,0.0,0.0,87,0.00,,FEW060,0.00,VWS V14.01,2013-01-06 11:09:00,
2013-01-06 06:10:00,23.1,19.8,30.08,WSW,256,0.0,0.0,87,0.00,,FEW060,0.00,VWS V14.01,2013-01-06 11:10:00,
2013-01-06 06:11:00,23.1,19.8,30.08,WSW,256,0.0,1.0,87,0.00,,FEW060,0.00,VWS V14.01,2013-01-06 11:11:00,
2013-01-06 06:12:00,23.1,19.8,30.08,WSW,256,0.0,0.0,87,0.00,,FEW060,0.00,VWS V14.01,2013-01-06 11:12:00,
2013-01-06 06:13:00,23.1,19.8,30.07,WSW,256,0.0,0.0,87,0.00,,,0.00,VWS V14.01,2013-01-06 11:13:00,
2013-01-06 06:14:00,23.1,19.8,30.07,WSW,256,0.0,0.0,87,0.00,,FEW060,0.00,VWS V14.01,2013-01-06 11:14:00,
2013-01-06 06:15:00,23.2,19.9,30.07,WSW,256,0.0,0.0,87,0.00,,FEW060,0.00,VWS V14.01,2013-01-06 11:15:00,
2013-01-06 06:16:00,23.2,19.9,30.07,WSW,256,0.0,0.0,87,0.00,,FEW060,0.00,VWS V14.01,2013-01-06 11:16:00,
2013-01-06 06:17:00,23.2,19.9,30.07,WSW,256,0.0,0.0,87,0.00,,FEW060,0.00,VWS V14.01,2013-01-06 11:17:00,
2013-01-06 06:18:00,23.2,19.9,30.07,WSW,256,0.0,0.0,87,0.00,,FEW060,0.00,VWS V14.01,2013-01-06 11:18:00,
2013-01-06 06:19:00,23.2,20.2,30.07,WSW,256,0.0,0.0,88,0.00,,,0.00,VWS V14.01,2013-01-06 11:19:00,
2013-01-06 06:20:00,23.2,19.9,30.07,WSW,256,0.0,0.0,87,0.00,,FEW060,0.00,VWS V14.01,2013-01-06 11:20:00,
2013-01-06 06:21:00,23.2,19.9,30.06,WSW,256,0.0,1.0,87,0.00,,FEW060,0.00,VWS V14.01,2013-01-06 11:21:00,
2013-01-06 06:22:00,23.2,19.9,30.06,WSW,256,1.0,1.0,87,0.00,,FEW060,0.00,VWS V14.01,2013-01-06 11:22:00,
2013-01-06 06:23:00,23.2,19.9,30.06,WSW,256,0.0,0.0,87,0.00,,FEW060,0.00,VWS V14.01,2013-01-06 11:23:00,
2013-01-06 06:24:00,23.1,19.8,30.07,WSW,256,0.0,0.0,87,0.00,,,0.00,VWS V14.01,2013-01-06 11:24:00,
2013-01-06 06:25:00,23.1,19.8,30.06,WSW,256,0.0,0.0,87,0.00,,FEW060,0.00,VWS V14.01,2013-01-06 11:25:00,
2013-01-06 06:26:00,23.1,19.8,30.07,WSW,256,0.0,0.0,87,0.00,,FEW060,0.00,VWS V14.01,2013-01-06 11:26:00,
2013-01-06 06:27:00,23.1,19.8,30.06,WSW,256,0.0,0.0,87,0.00,,FEW060,0.00,VWS V14.01,2013-01-06 11:27:00,
2013-01-06 06:28:00,23.1,19.8,30.06,WSW,256,0.0,0.0,87,0.00,,FEW060,0.00,VWS V14.01,2013-01-06 11:28:00,
2013-01-06 06:29:00,23.0,19.7,30.06,WSW,256,0.0,1.0,87,0.00,,,0.00,VWS V14.01,2013-01-06 11:29:00,
2013-01-06 06:30:00,23.0,19.7,30.06,WSW,256,0.0,1.0,87,0.00,,FEW060,0.00,VWS V14.01,2013-01-06 11:30:00,
2013-01-06 06:31:00,23.0,19.7,30.06,WSW,256,0.0,0.0,87,0.00,,FEW060,0.00,VWS V14.01,2013-01-06 11:31:00,
2013-01-06 06:32:00,23.0,19.7,30.06,WSW,256,0.0,0.0,87,0.00,,FEW060,0.00,VWS V14.01,2013-01-06 11:32:00,
2013-01-06 06:33:00,23.0,19.7,30.06,WSW,256,0.0,0.0,87,0.00,,FEW060,0.00,VWS V14.01,2013-01-06 11:33:00,
2013-01-06 06:34:00,23.0,19.7,30.06,WSW,256,0.0,0.0,87,0.00,,,0.00,VWS V14.01,2013-01-06 11:34:00,
2013-01-06 06:35:00,23.0,19.7,30.06,WSW,256,0.0,0.0,87,0.00,,FEW060,0.00,VWS V14.01,2013-01-06 11:35:00,
2013-01-06 06:36:00,23.1,19.8,30.06,WSW,256,0.0,0.0,87,0.00,,FEW060,0.00,VWS V14.01,2013-01-06 11:36:00,
2013-01-06 06:37:00,23.1,20.1,30.06,WSW,256,0.0,0.0,88,0.00,,FEW060,0.00,VWS V14.01,2013-01-06 11:37:00,
2013-01-06 06:38:00,23.1,20.1,30.06,WSW,256,0.0,0.0,88,0.00,,FEW060,0.00,VWS V14.01,2013-01-06 11:38:00,
2013-01-06 06:39:00,23.1,20.1,30.06,WSW,257,0.0,0.0,88,0.00,,,0.00,VWS V14.01,2013-01-06 11:39:00,
2013-01-06 06:40:00,23.1,20.1,30.06,WSW,257,0.0,0.0,88,0.00,,FEW060,0.00,VWS V14.01,2013-01-06 11:40:00,
2013-01-06 06:41:00,23.1,20.1,30.06,West,267,0.0,0.0,88,0.00,,FEW060,0.00,VWS V14.01,2013-01-06 11:41:00,
2013-01-06 06:42:00,23.1,20.1,30.06,West,266,0.0,0.0,88,0.00,,FEW060,0.00,VWS V14.01,2013-01-06 11:42:00,
2013-01-06 06:43:00,23.1,20.1,30.06,West,267,0.0,0.0,88,0.00,,FEW060,0.00,VWS V14.01,2013-01-06 11:43:00,
2013-01-06 06:44:00,23.1,20.1,30.06,West,267,0.0,0.0,88,0.00,,,0.00,VWS V14.01,2013-01-06 11:44:00,
2013-01-06 06:45:00,23.1,20.1,30.06,West,267,0.0,0.0,88,0.00,,FEW060,0.00,VWS V14.01,2013-01-06 11:45:00,
2013-01-06 06:46:00,23.0,20.0,30.06,West,267,0.0,0.0,88,0.00,,FEW060,0.00,VWS V14.01,2013-01-06 11:46:00,
2013-01-06 06:47:00,23.1,20.1,30.06,West,267,0.0,0.0,88,0.00,,FEW060,0.00,VWS V14.01,2013-01-06 11:47:00,
2013-01-06 06:48:00,23.1,20.1,30.06,West,267,0.0,0.0,88,0.00,,FEW060,0.00,VWS V14.01,2013-01-06 11:48:00,
2013-01-06 06:49:00,23.1,20.1,30.06,West,266,0.0,0.0,88,0.00,,,0.00,VWS V14.01,2013-01-06 11:49:00,
2013-01-06 06:50:00,23.1,20.1,30.06,West,267,0.0,0.0,88,0.00,,FEW060,0.00,VWS V14.01,2013-01-06 11:50:00,
2013-01-06 06:51:00,23.1,20.1,30.06,West,266,0.0,0.0,88,0.00,,FEW060,0.00,VWS V14.01,2013-01-06 11:51:00,
2013-01-06 06:52:00,23.1,20.1,30.06,West,267,0.0,0.0,88,0.00,,FEW060,0.00,VWS V14.01,2013-01-06 11:52:00,
2013-01-06 06:53:00,23.1,20.1,30.06,West,270,0.0,0.0,88,0.00,,FEW060,0.00,VWS V14.01,2013-01-06 11:53:00,
2013-01-06 06:54:00,23.1,20.1,30.05,West,262,0.0,0.0,88,0.00,,,0.00,VWS V14.01,2013-01-06 11:54:00,
2013-01-06 06:55:00,23.1,20.1,30.06,West,262,0.0,1.0,88,0.00,,FEW060,0.00,VWS V14.01,2013-01-06 11:55:00,
2013-01-06 06:56:00,23.1,20.1,30.06,West,262,0.0,0.0,88,0.00,,FEW060,0.00,VWS V14.01,2013-01-06 11:56:00,
2013-01-06 06:57:00,23.1,20.1,30.06,West,262,0.0,1.0,88,0.00,,FEW060,0.00,VWS V14.01,2013-01-06 11:57:00,
2013-01-06 06:58:00,23.2,20.2,30.06,West,262,0.0,1.0,88,0.00,,FEW060,0.00,VWS V14.01,2013-01-06 11:58:00,
2013-01-06 06:59:00,23.2,20.2,30.06,West,260,1.0,1.0,88,0.00,,,0.00,VWS V14.01,2013-01-06 11:59:00,
2013-01-06 07:00:00,23.2,20.2,30.06,West,259,0.0,1.0,88,0.00,,FEW060,0.00,VWS V14.01,2013-01-06 12:00:00,
2013-01-06 07:01:00,23.2,20.2,30.06,WSW,257,0.0,1.0,88,0.00,,FEW060,0.00,VWS V14.01,2013-01-06 12:01:00,
2013-01-06 07:02:00,23.2,20.2,30.06,West,264,0.0,1.0,88,0.00,,FEW060,0.00,VWS V14.01,2013-01-06 12:02:00,
2013-01-06 07:03:00,23.2,20.2,30.06,West,264,0.0,1.0,88,0.00,,FEW060,0.00,VWS V14.01,2013-01-06 12:03:00,
2013-01-06 07:04:00,23.1,20.1,30.05,West,264,0.0,0.0,88,0.00,,,0.00,VWS V14.01,2013-01-06 12:04:00,
2013-01-06 07:05:00,23.1,20.1,30.05,West,264,0.0,0.0,88,0.00,,FEW060,0.00,VWS V14.01,2013-01-06 12:05:00,
2013-01-06 07:06:00,23.1,20.1,30.05,West,264,0.0,0.0,88,0.00,,FEW060,0.00,VWS V14.01,2013-01-06 12:06:00,
2013-01-06 07:07:00,23.1,20.1,30.05,West,264,0.0,0.0,88,0.00,,FEW060,0.00,VWS V14.01,2013-01-06 12:07:00,
2013-01-06 07:08:00,23.2,20.2,30.05,West,264,0.0,0.0,88,0.00,,FEW060,0.00,VWS V14.01,2013-01-06 12:08:00,
2013-01-06 07:09:00,23.2,20.2,30.05,WSW,250,1.0,1.0,88,0.00,,,0.00,VWS V14.01,2013-01-06 12:09:00,
2013-01-06 07:10:00,23.2,20.2,30.05,West,263,0.0,0.0,88,0.00,,FEW060,0.00,VWS V14.01,2013-01-06 12:10:00,
2013-01-06 07:11:00,23.2,20.2,30.06,WSW,243,1.0,1.0,88,0.00,,FEW060,0.00,VWS V14.01,2013-01-06 12:11:00,
2013-01-06 07:12:00,23.2,20.2,30.05,West,264,0.0,2.0,88,0.00,,FEW060,0.00,VWS V14.01,2013-01-06 12:12:00,
2013-01-06 07:13:00,23.2,20.2,30.06,West,266,0.0,1.0,88,0.00,,FEW060,0.00,VWS V14.01,2013-01-06 12:13:00,
2013-01-06 07:14:00,23.2,20.2,30.06,West,271,0.0,1.0,88,0.00,,FEW060,0.00,VWS V14.01,2013-01-06 12:14:00,
2013-01-06 07:15:00,23.2,20.2,30.06,West,271,0.0,0.0,88,0.00,,,0.00,VWS V14.01,2013-01-06 12:15:00,
2013-01-06 07:16:00,23.2,20.2,30.06,West,271,0.0,0.0,88,0.00,,FEW060,0.00,VWS V14.01,2013-01-06 12:16:00,
2013-01-06 07:17:00,23.2,20.2,30.06,West,271,0.0,0.0,88,0.00,,FEW060,0.00,VWS V14.01,2013-01-06 12:17:00,
2013-01-06 07:18:00,23.2,20.2,30.06,West,271,0.0,1.0,88,0.00,,FEW060,0.00,VWS V14.01,2013-01-06 12:18:00,
2013-01-06 07:19:00,23.3,20.3,30.06,WSW,253,0.0,1.0,88,0.00,,FEW060,0.00,VWS V14.01,2013-01-06 12:19:00,
2013-01-06 07:20:00,23.3,20.3,30.06,WSW,253,0.0,0.0,88,0.00,,,0.00,VWS V14.01,2013-01-06 12:20:00,
2013-01-06 07:21:00,23.3,20.3,30.06,WSW,252,0.0,0.0,88,0.00,,FEW060,0.00,VWS V14.01,2013-01-06 12:21:00,
2013-01-06 07:22:00,23.3,20.3,30.05,WSW,253,0.0,0.0,88,0.00,,FEW060,0.00,VWS V14.01,2013-01-06 12:22:00,
2013-01-06 07:23:00,23.3,20.3,30.05,WSW,252,0.0,0.0,88,0.00,,FEW060,0.00,VWS V14.01,2013-01-06 12:23:00,
2013-01-06 07:24:00,23.4,20.4,30.05,WSW,253,0.0,0.0,88,0.00,,FEW060,0.00,VWS V14.01,2013-01-06 12:24:00,
2013-01-06 07:25:00,23.4,20.4,30.05,WSW,253,0.0,0.0,88,0.00,,,0.00,VWS V14.01,2013-01-06 12:25:00,
2013-01-06 07:26:00,23.4,20.4,30.05,WSW,253,0.0,0.0,88,0.00,,FEW060,0.00,VWS V14.01,2013-01-06 12:26:00,
2013-01-06 07:27:00,23.4,20.4,30.05,WSW,248,0.0,0.0,88,0.00,,FEW060,0.00,VWS V14.01,2013-01-06 12:27:00,
2013-01-06 07:28:00,23.4,20.4,30.05,WSW,248,0.0,0.0,88,0.00,,FEW060,0.00,VWS V14.01,2013-01-06 12:28:00,
2013-01-06 07:29:00,23.4,20.4,30.05,WSW,248,0.0,0.0,88,0.00,,FEW060,0.00,VWS V14.01,2013-01-06 12:29:00,
2013-01-06 07:30:00,23.4,20.4,30.05,WSW,250,0.0,0.0,88,0.00,,,0.00,VWS V14.01,2013-01-06 12:30:00,
2013-01-06 07:31:00,23.4,20.4,30.05,WSW,250,0.0,0.0,88,0.00,,FEW060,0.00,VWS V14.01,2013-01-06 12:31:00,
2013-01-06 07:32:00,23.4,20.4,30.05,WSW,250,0.0,0.0,88,0.00,,FEW060,0.00,VWS V14.01,2013-01-06 12:32:00,
2013-01-06 07:33:00,23.4,20.4,30.04,WSW,250,0.0,0.0,88,0.00,,FEW060,0.00,VWS V14.01,2013-01-06 12:33:00,
2013-01-06 07:34:00,23.4,20.4,30.05,SW,235,0.0,0.0,88,0.00,,FEW060,0.00,VWS V14.01,2013-01-06 12:34:00,
2013-01-06 07:35:00,23.5,20.5,30.05,SW,235,0.0,0.0,88,0.00,,,0.00,VWS V14.01,2013-01-06 12:35:00,
2013-01-06 07:36:00,23.5,20.5,30.05,SW,235,0.0,0.0,88,0.00,,FEW060,0.00,VWS V14.01,2013-01-06 12:36:00,
2013-01-06 07:37:00,23.5,20.5,30.05,WSW,255,0.0,0.0,88,0.00,,FEW060,0.00,VWS V14.01,2013-01-06 12:37:00,
2013-01-06 07:38:00,23.5,20.5,30.05,WSW,255,0.0,0.0,88,0.00,,FEW060,0.00,VWS V14.01,2013-01-06 12:38:00,
2013-01-06 07:39:00,23.5,20.5,30.05,WSW,254,0.0,0.0,88,0.00,,FEW060,0.00,VWS V14.01,2013-01-06 12:39:00,
2013-01-06 07:40:00,23.5,20.5,30.05,WSW,255,0.0,0.0,88,0.00,,,0.00,VWS V14.01,2013-01-06 12:40:00,
2013-01-06 07:41:00,23.5,20.5,30.05,WSW,255,0.0,0.0,88,0.00,,FEW060,0.00,VWS V14.01,2013-01-06 12:41:00,
2013-01-06 07:42:00,23.4,20.4,30.05,WSW,255,0.0,0.0,88,0.00,,FEW060,0.00,VWS V14.01,2013-01-06 12:42:00,
2013-01-06 07:43:00,23.5,20.5,30.05,WSW,255,0.0,0.0,88,0.00,,FEW060,0.00,VWS V14.01,2013-01-06 12:43:00,
2013-01-06 07:44:00,23.5,20.5,30.05,WSW,254,0.0,0.0,88,0.00,,FEW060,0.00,VWS V14.01,2013-01-06 12:44:00,
2013-01-06 07:45:00,23.4,20.4,30.05,WSW,255,0.0,0.0,88,0.00,,,0.00,VWS V14.01,2013-01-06 12:45:00,
2013-01-06 07:46:00,23.4,20.4,30.05,WSW,255,0.0,0.0,88,0.00,,FEW060,0.00,VWS V14.01,2013-01-06 12:46:00,
2013-01-06 07:47:00,23.5,20.5,30.05,WSW,253,0.0,0.0,88,0.00,,FEW060,0.00,VWS V14.01,2013-01-06 12:47:00,
2013-01-06 07:48:00,23.5,20.5,30.05,WSW,253,0.0,1.0,88,0.00,,FEW060,0.00,VWS V14.01,2013-01-06 12:48:00,
2013-01-06 07:49:00,23.5,20.5,30.05,WSW,250,0.0,1.0,88,0.00,,FEW060,0.00,VWS V14.01,2013-01-06 12:49:00,
2013-01-06 07:50:00,23.5,20.5,30.05,West,259,0.0,0.0,88,0.00,,,0.00,VWS V14.01,2013-01-06 12:50:00,
2013-01-06 07:51:00,23.5,20.5,30.05,West,259,0.0,0.0,88,0.00,,FEW060,0.00,VWS V14.01,2013-01-06 12:51:00,
2013-01-06 07:52:00,23.5,20.5,30.04,West,259,0.0,0.0,88,0.00,,FEW060,0.00,VWS V14.01,2013-01-06 12:52:00,
2013-01-06 07:53:00,23.5,20.5,30.04,West,260,0.0,0.0,88,0.00,,FEW060,0.00,VWS V14.01,2013-01-06 12:53:00,
2013-01-06 07:54:00,23.6,20.6,30.04,West,260,0.0,0.0,88,0.00,,FEW060,0.00,VWS V14.01,2013-01-06 12:54:00,
2013-01-06 07:55:00,23.6,20.6,30.04,West,260,0.0,0.0,88,0.00,,,0.00,VWS V14.01,2013-01-06 12:55:00,
2013-01-06 07:56:00,23.6,20.6,30.04,West,260,0.0,0.0,88,0.00,,FEW060,0.00,VWS V14.01,2013-01-06 12:56:00,
2013-01-06 07:57:00,23.6,20.6,30.04,West,260,0.0,0.0,88,0.00,,FEW060,0.00,VWS V14.01,2013-01-06 12:57:00,
2013-01-06 07:58:00,23.7,20.7,30.04,West,259,0.0,0.0,88,0.00,,FEW060,0.00,VWS V14.01,2013-01-06 12:58:00,
2013-01-06 07:59:00,23.8,20.8,30.04,West,260,0.0,0.0,88,0.00,,FEW060,0.00,VWS V14.01,2013-01-06 12:59:00,
2013-01-06 08:00:00,23.8,20.8,30.04,West,259,0.0,0.0,88,0.00,,,0.00,VWS V14.01,2013-01-06 13:00:00,
2013-01-06 08:01:00,23.8,20.8,30.04,West,259,0.0,0.0,88,0.00,,FEW060,0.00,VWS V14.01,2013-01-06 13:01:00,
2013-01-06 08:02:00,23.8,20.8,30.04,West,259,0.0,0.0,88,0.00,,FEW060,0.00,VWS V14.01,2013-01-06 13:02:00,
2013-01-06 08:03:00,23.8,20.8,30.03,West,259,0.0,0.0,88,0.00,,FEW060,0.00,VWS V14.01,2013-01-06 13:03:00,
2013-01-06 08:04:00,23.9,20.9,30.03,West,260,0.0,0.0,88,0.00,,FEW060,0.00,VWS V14.01,2013-01-06 13:04:00,
2013-01-06 08:05:00,23.9,20.9,30.03,West,260,0.0,0.0,88,0.00,,,0.00,VWS V14.01,2013-01-06 13:05:00,
2013-01-06 08:06:00,23.9,20.9,30.03,West,260,0.0,0.0,88,0.00,,FEW060,0.00,VWS V14.01,2013-01-06 13:06:00,
2013-01-06 08:07:00,24.0,21.0,30.03,West,260,0.0,0.0,88,0.00,,FEW060,0.00,VWS V14.01,2013-01-06 13:07:00,
2013-01-06 08:08:00,24.0,21.0,30.03,West,260,0.0,0.0,88,0.00,,FEW060,0.00,VWS V14.01,2013-01-06 13:08:00,
2013-01-06 08:09:00,24.1,21.1,30.03,West,259,0.0,0.0,88,0.00,,FEW060,0.00,VWS V14.01,2013-01-06 13:09:00,
2013-01-06 08:10:00,24.2,21.2,30.02,West,260,0.0,0.0,88,0.00,,,0.00,VWS V14.01,2013-01-06 13:10:00,
2013-01-06 08:11:00,24.2,21.2,30.02,West,260,0.0,0.0,88,0.00,,FEW060,0.00,VWS V14.01,2013-01-06 13:11:00,
2013-01-06 08:12:00,24.2,21.2,30.02,West,259,0.0,0.0,88,0.00,,FEW060,0.00,VWS V14.01,2013-01-06 13:12:00,
2013-01-06 08:13:00,24.3,21.3,30.02,West,260,0.0,0.0,88,0.00,,FEW060,0.00,VWS V14.01,2013-01-06 13:13:00,
2013-01-06 08:14:00,24.4,21.4,30.02,West,260,0.0,0.0,88,0.00,,FEW060,0.00,VWS V14.01,2013-01-06 13:14:00,
2013-01-06 08:15:00,24.4,21.4,30.02,West,259,0.0,0.0,88,0.00,,,0.00,VWS V14.01,2013-01-06 13:15:00,
2013-01-06 08:16:00,24.4,21.4,30.02,West,259,0.0,0.0,88,0.00,,FEW060,0.00,VWS V14.01,2013-01-06 13:16:00,
2013-01-06 08:17:00,24.5,21.5,30.02,West,260,0.0,0.0,88,0.00,,FEW060,0.00,VWS V14.01,2013-01-06 13:17:00,
2013-01-06 08:18:00,24.5,21.5,30.02,WSW,245,0.0,1.0,88,0.00,,FEW060,0.00,VWS V14.01,2013-01-06 13:18:00,
2013-01-06 08:19:00,24.5,21.5,30.02,WSW,245,1.0,2.0,88,0.00,,FEW060,0.00,VWS V14.01,2013-01-06 13:19:00,
2013-01-06 08:20:00,24.4,21.4,30.03,West,263,1.0,1.0,88,0.00,,,0.00,VWS V14.01,2013-01-06 13:20:00,
2013-01-06 08:21:00,24.5,21.5,30.02,WSW,257,0.0,1.0,88,0.00,,FEW060,0.00,VWS V14.01,2013-01-06 13:21:00,
2013-01-06 08:22:00,24.5,21.5,30.03,WSW,256,1.0,1.0,88,0.00,,FEW060,0.00,VWS V14.01,2013-01-06 13:22:00,
2013-01-06 08:23:00,24.5,21.5,30.03,WSW,256,0.0,1.0,88,0.00,,FEW060,0.00,VWS V14.01,2013-01-06 13:23:00,
2013-01-06 08:24:00,24.5,21.5,30.03,WSW,256,0.0,1.0,88,0.00,,FEW060,0.00,VWS V14.01,2013-01-06 13:24:00,
2013-01-06 08:25:00,24.6,21.6,30.03,WSW,256,0.0,0.0,88,0.00,,,0.00,VWS V14.01,2013-01-06 13:25:00,
2013-01-06 08:26:00,24.5,21.5,30.03,WSW,256,0.0,1.0,88,0.00,,FEW060,0.00,VWS V14.01,2013-01-06 13:26:00,
2013-01-06 08:27:00,24.6,21.6,30.03,WSW,256,0.0,0.0,88,0.00,,FEW060,0.00,VWS V14.01,2013-01-06 13:27:00,
2013-01-06 08:28:00,24.6,21.6,30.03,WSW,256,0.0,0.0,88,0.00,,FEW060,0.00,VWS V14.01,2013-01-06 13:28:00,
2013-01-06 08:29:00,24.7,21.7,30.03,WSW,256,0.0,0.0,88,0.00,,FEW060,0.00,VWS V14.01,2013-01-06 13:29:00,
2013-01-06 08:30:00,24.8,21.8,30.03,WSW,253,0.0,0.0,88,0.00,,,0.00,VWS V14.01,2013-01-06 13:30:00,
2013-01-06 08:31:00,24.8,21.8,30.03,WSW,256,0.0,0.0,88,0.00,,FEW060,0.00,VWS V14.01,2013-01-06 13:31:00,
2013-01-06 08:32:00,24.8,21.8,30.03,West,266,0.0,1.0,88,0.00,,FEW060,0.00,VWS V14.01,2013-01-06 13:32:00,
2013-01-06 08:34:00,24.9,21.9,30.03,West,264,1.0,1.0,88,0.00,,FEW060,0.00,VWS V14.01,2013-01-06 13:34:00,
2013-01-06 08:35:00,24.8,21.8,30.03,West,262,1.0,2.0,88,0.00,,FEW060,0.00,VWS V14.01,2013-01-06 13:35:00,
2013-01-06 08:36:00,24.9,21.9,30.03,WSW,256,0.0,1.0,88,0.00,,,0.00,VWS V14.01,2013-01-06 13:36:00,
2013-01-06 08:37:00,24.9,21.9,30.03,WSW,256,0.0,1.0,88,0.00,,FEW060,0.00,VWS V14.01,2013-01-06 13:37:00,
2013-01-06 08:38:00,25.0,22.0,30.03,WSW,255,0.0,1.0,88,0.00,,FEW060,0.00,VWS V14.01,2013-01-06 13:38:00,
2013-01-06 08:39:00,25.0,22.0,30.03,WSW,255,0.0,1.0,88,0.00,,FEW060,0.00,VWS V14.01,2013-01-06 13:39:00,
2013-01-06 08:40:00,25.1,22.0,30.03,WSW,255,0.0,0.0,88,0.00,,FEW060,0.00,VWS V14.01,2013-01-06 13:40:00,
2013-01-06 08:41:00,25.2,22.1,30.03,WSW,254,1.0,1.0,88,0.00,,,0.00,VWS V14.01,2013-01-06 13:41:00,
2013-01-06 08:42:00,25.2,22.1,30.03,WSW,257,1.0,1.0,88,0.00,,FEW060,0.00,VWS V14.01,2013-01-06 13:42:00,
2013-01-06 08:43:00,25.3,22.2,30.03,WSW,257,1.0,1.0,88,0.00,,FEW060,0.00,VWS V14.01,2013-01-06 13:43:00,
2013-01-06 08:44:00,25.3,22.2,30.03,WSW,255,1.0,1.0,88,0.00,,FEW060,0.00,VWS V14.01,2013-01-06 13:44:00,
2013-01-06 08:45:00,25.4,22.4,30.03,WSW,255,0.0,0.0,88,0.00,,FEW060,0.00,VWS V14.01,2013-01-06 13:45:00,
2013-01-06 08:46:00,25.5,22.5,30.03,West,259,0.0,1.0,88,0.00,,,0.00,VWS V14.01,2013-01-06 13:46:00,
2013-01-06 08:47:00,25.5,22.5,30.03,West,259,0.0,1.0,88,0.00,,FEW060,0.00,VWS V14.01,2013-01-06 13:47:00,
2013-01-06 08:48:00,25.6,22.5,30.03,West,259,0.0,0.0,88,0.00,,FEW060,0.00,VWS V14.01,2013-01-06 13:48:00,
2013-01-06 08:49:00,25.7,22.6,30.03,WSW,252,1.0,2.0,88,0.00,,FEW060,0.00,VWS V14.01,2013-01-06 13:49:00,
2013-01-06 08:50:00,25.7,22.6,30.03,WSW,253,1.0,1.0,88,0.00,,FEW060,0.00,VWS V14.01,2013-01-06 13:50:00,
2013-01-06 08:51:00,25.8,22.5,30.03,West,269,0.0,1.0,87,0.00,,OVC080,0.00,VWS V14.01,2013-01-06 13:51:00,
2013-01-06 08:52:00,25.8,22.5,30.03,West,269,0.0,1.0,87,0.00,,FEW060,0.00,VWS V14.01,2013-01-06 13:52:00,
2013-01-06 08:53:00,25.9,22.6,30.03,West,268,0.0,0.0,87,0.00,,FEW060,0.00,VWS V14.01,2013-01-06 13:53:00,
2013-01-06 08:54:00,26.0,22.7,30.03,West,269,0.0,0.0,87,0.00,,FEW060,0.00,VWS V14.01,2013-01-06 13:54:00,
2013-01-06 08:55:00,26.1,22.8,30.03,West,269,0.0,0.0,87,0.00,,FEW060,0.00,VWS V14.01,2013-01-06 13:55:00,
2013-01-06 08:56:00,26.4,23.3,30.03,WSW,250,2.0,2.0,88,0.00,,OVC080,0.00,VWS V14.01,2013-01-06 13:56:00,
2013-01-06 08:57:00,26.4,23.3,30.03,WSW,250,2.0,2.0,88,0.00,,FEW060,0.00,VWS V14.01,2013-01-06 13:57:00,
2013-01-06 08:59:00,26.6,23.3,30.03,West,259,0.0,1.0,87,0.00,,FEW060,0.00,VWS V14.01,2013-01-06 13:59:00,
2013-01-06 09:00:00,26.7,23.4,30.03,WNW,297,1.0,1.0,87,0.00,,FEW060,0.00,VWS V14.01,2013-01-06 14:00:00,
2013-01-06 09:01:00,26.8,23.5,30.03,WSW,249,0.0,2.0,87,0.00,,OVC080,0.00,VWS V14.01,2013-01-06 14:01:00,
2013-01-06 09:02:00,26.8,23.5,30.03,WSW,249,0.0,2.0,87,0.00,,FEW060,0.00,VWS V14.01,2013-01-06 14:02:00,
2013-01-06 09:03:00,26.8,23.5,30.03,NW,321,0.0,1.0,87,0.00,,FEW060,0.00,VWS V14.01,2013-01-06 14:03:00,
2013-01-06 09:04:00,26.9,23.6,30.03,West,269,1.0,1.0,87,0.00,,FEW060,0.00,VWS V14.01,2013-01-06 14:04:00,
2013-01-06 09:05:00,26.9,23.3,30.03,West,259,1.0,2.0,86,0.00,,FEW060,0.00,VWS V14.01,2013-01-06 14:05:00,
2013-01-06 09:06:00,27.0,23.4,30.02,WSW,253,2.0,2.0,86,0.00,,OVC080,0.00,VWS V14.01,2013-01-06 14:06:00,
2013-01-06 09:07:00,27.0,23.4,30.02,WSW,253,2.0,2.0,86,0.00,,FEW060,0.00,VWS V14.01,2013-01-06 14:07:00,
2013-01-06 09:09:00,27.1,23.5,30.02,West,267,1.0,2.0,86,0.00,,FEW060,0.00,VWS V14.01,2013-01-06 14:09:00,
2013-01-06 09:10:00,27.1,23.5,30.02,West,266,0.0,1.0,86,0.00,,FEW060,0.00,VWS V14.01,2013-01-06 14:10:00,
2013-01-06 09:11:00,27.4,24.0,30.03,West,261,1.0,1.0,87,0.00,,OVC080,0.00,VWS V14.01,2013-01-06 14:11:00,
2013-01-06 09:12:00,27.4,24.0,30.03,West,261,1.0,1.0,87,0.00,,FEW060,0.00,VWS V14.01,2013-01-06 14:12:00,
2013-01-06 09:13:00,27.5,24.1,30.02,West,264,0.0,1.0,87,0.00,,FEW060,0.00,VWS V14.01,2013-01-06 14:13:00,
2013-01-06 09:14:00,27.7,24.1,30.03,West,264,0.0,0.0,86,0.00,,FEW060,0.00,VWS V14.01,2013-01-06 14:14:00,
2013-01-06 09:15:00,27.8,24.2,30.02,WSW,240,0.0,2.0,86,0.00,,FEW060,0.00,VWS V14.01,2013-01-06 14:15:00,
2013-01-06 09:16:00,27.9,24.3,30.03,WSW,257,0.0,0.0,86,0.00,,OVC080,0.00,VWS V14.01,2013-01-06 14:16:00,
2013-01-06 09:17:00,27.9,24.3,30.03,WSW,257,0.0,1.0,86,0.00,,FEW060,0.00,VWS V14.01,2013-01-06 14:17:00,
2013-01-06 09:18:00,28.0,24.4,30.03,SW,233,0.0,1.0,86,0.00,,FEW060,0.00,VWS V14.01,2013-01-06 14:18:00,
2013-01-06 09:19:00,28.0,24.4,30.03,SW,224,0.0,2.0,86,0.00,,FEW060,0.00,VWS V14.01,2013-01-06 14:19:00,
2013-01-06 09:20:00,28.1,24.2,30.03,West,264,0.0,2.0,85,0.00,,FEW060,0.00,VWS V14.01,2013-01-06 14:20:00,
2013-01-06 09:21:00,28.3,24.4,30.03,West,264,0.0,0.0,85,0.00,,OVC080,0.00,VWS V14.01,2013-01-06 14:21:00,
2013-01-06 09:22:00,28.2,24.3,30.02,West,264,0.0,0.0,85,0.00,,FEW060,0.00,VWS V14.01,2013-01-06 14:22:00,
2013-01-06 09:23:00,28.3,24.4,30.03,West,264,1.0,2.0,85,0.00,,FEW060,0.00,VWS V14.01,2013-01-06 14:23:00,
2013-01-06 09:24:00,28.4,24.5,30.03,WNW,299,0.0,1.0,85,0.00,,FEW060,0.00,VWS V14.01,2013-01-06 14:24:00,
2013-01-06 09:25:00,28.5,24.6,30.03,West,269,0.0,2.0,85,0.00,,FEW060,0.00,VWS V14.01,2013-01-06 14:25:00,
2013-01-06 09:26:00,28.7,24.8,30.02,WSW,238,0.0,0.0,85,0.00,,OVC080,0.00,VWS V14.01,2013-01-06 14:26:00,
2013-01-06 09:27:00,28.6,24.7,30.03,WSW,238,0.0,1.0,85,0.00,,FEW060,0.00,VWS V14.01,2013-01-06 14:27:00,
2013-01-06 09:28:00,28.8,24.9,30.02,WSW,238,0.0,0.0,85,0.00,,FEW060,0.00,VWS V14.01,2013-01-06 14:28:00,
2013-01-06 09:29:00,28.9,25.0,30.02,SW,222,2.0,2.0,85,0.00,,FEW060,0.00,VWS V14.01,2013-01-06 14:29:00,
2013-01-06 09:30:00,29.0,25.1,30.02,WSW,243,2.0,3.0,85,0.00,,FEW060,0.00,VWS V14.01,2013-01-06 14:30:00,
2013-01-06 09:31:00,29.1,24.9,30.02,SSW,197,1.0,1.0,84,0.00,,OVC080,0.00,VWS V14.01,2013-01-06 14:31:00,
2013-01-06 09:32:00,29.1,24.9,30.02,WSW,257,0.0,0.0,84,0.00,,FEW060,0.00,VWS V14.01,2013-01-06 14:32:00,
2013-01-06 09:33:00,29.1,24.9,30.02,SE,133,1.0,2.0,84,0.00,,FEW060,0.00,VWS V14.01,2013-01-06 14:33:00,
2013-01-06 09:34:00,29.2,25.0,30.02,West,269,2.0,3.0,84,0.00,,FEW060,0.00,VWS V14.01,2013-01-06 14:34:00,
2013-01-06 09:35:00,29.2,25.0,30.02,West,262,1.0,3.0,84,0.00,,FEW060,0.00,VWS V14.01,2013-01-06 14:35:00,
2013-01-06 09:36:00,29.3,25.1,30.02,SW,228,2.0,3.0,84,0.00,,FEW060,0.00,VWS V14.01,2013-01-06 14:36:00,
2013-01-06 09:37:00,29.3,25.1,30.02,SW,233,0.0,1.0,84,0.00,,OVC080,0.00,VWS V14.01,2013-01-06 14:37:00,
2013-01-06 09:38:00,29.4,25.2,30.02,WSW,250,1.0,1.0,84,0.00,,FEW060,0.00,VWS V14.01,2013-01-06 14:38:00,
2013-01-06 09:39:00,29.4,25.2,30.02,SW,214,1.0,2.0,84,0.00,,FEW060,0.00,VWS V14.01,2013-01-06 14:39:00,
2013-01-06 09:40:00,29.5,25.3,30.02,SW,215,1.0,2.0,84,0.00,,FEW060,0.00,VWS V14.01,2013-01-06 14:40:00,
2013-01-06 09:41:00,29.6,25.4,30.02,WSW,253,2.0,4.0,84,0.00,,FEW060,0.00,VWS V14.01,2013-01-06 14:41:00,
2013-01-06 09:42:00,29.7,25.5,30.02,WSW,256,1.0,2.0,84,0.00,,OVC080,0.00,VWS V14.01,2013-01-06 14:42:00,
2013-01-06 09:43:00,29.7,25.5,30.02,WSW,258,1.0,2.0,84,0.00,,FEW060,0.00,VWS V14.01,2013-01-06 14:43:00,
2013-01-06 09:44:00,29.7,25.5,30.02,WSW,257,5.0,6.0,84,0.00,,FEW060,0.00,VWS V14.01,2013-01-06 14:44:00,
2013-01-06 09:45:00,29.7,25.2,30.02,SSW,210,1.0,5.0,83,0.00,,FEW060,0.00,VWS V14.01,2013-01-06 14:45:00,
2013-01-06 09:46:00,29.8,25.3,30.02,WSW,258,3.0,3.0,83,0.00,,FEW060,0.00,VWS V14.01,2013-01-06 14:46:00,
2013-01-06 09:47:00,29.8,25.6,30.02,WNW,285,1.0,4.0,84,0.00,,OVC080,0.00,VWS V14.01,2013-01-06 14:47:00,
2013-01-06 09:48:00,29.8,25.6,30.02,West,277,2.0,4.0,84,0.00,,FEW060,0.00,VWS V14.01,2013-01-06 14:48:00,
2013-01-06 09:49:00,29.9,25.4,30.01,WSW,240,2.0,2.0,83,0.00,,FEW060,0.00,VWS V14.01,2013-01-06 14:49:00,
2013-01-06 09:50:00,29.9,25.7,30.01,West,276,1.0,3.0,84,0.00,,FEW060,0.00,VWS V14.01,2013-01-06 14:50:00,
2013-01-06 09:51:00,30.0,25.5,30.02,WSW,249,0.0,3.0,83,0.00,,FEW060,0.00,VWS V14.01,2013-01-06 14:51:00,
2013-01-06 09:52:00,30.1,25.6,30.01,West,269,2.0,3.0,83,0.00,,SCT080,0.00,VWS V14.01,2013-01-06 14:52:00,
2013-01-06 09:53:00,30.0,25.5,30.01,SW,235,2.0,3.0,83,0.00,,FEW060,0.00,VWS V14.01,2013-01-06 14:53:00,
2013-01-06 09:54:00,30.1,25.6,30.01,West,267,3.0,3.0,83,0.00,,FEW060,0.00,VWS V14.01,2013-01-06 14:54:00,
2013-01-06 09:55:00,30.1,25.6,30.01,WNW,287,1.0,3.0,83,0.00,,FEW060,0.00,VWS V14.01,2013-01-06 14:55:00,
2013-01-06 09:56:00,30.2,25.7,30.01,East,96,1.0,3.0,83,0.00,,FEW060,0.00,VWS V14.01,2013-01-06 14:56:00,
2013-01-06 09:57:00,30.3,25.8,30.01,SSW,210,1.0,3.0,83,0.00,,SCT080,0.00,VWS V14.01,2013-01-06 14:57:00,
2013-01-06 09:58:00,30.3,25.8,30.01,SSW,210,1.0,3.0,83,0.00,,FEW060,0.00,VWS V14.01,2013-01-06 14:58:00,
2013-01-06 09:59:00,30.4,25.9,30.01,West,270,0.0,3.0,83,0.00,,FEW060,0.00,VWS V14.01,2013-01-06 14:59:00,
2013-01-06 10:00:00,30.5,26.0,30.01,West,278,1.0,4.0,83,0.00,,FEW060,0.00,VWS V14.01,2013-01-06 15:00:00,
2013-01-06 10:01:00,30.6,26.1,30.01,WSW,238,3.0,6.0,83,0.00,,FEW060,0.00,VWS V14.01,2013-01-06 15:01:00,
2013-01-06 10:02:00,30.6,26.1,30.01,WSW,257,0.0,3.0,83,0.00,,SCT080,0.00,VWS V14.01,2013-01-06 15:02:00,
2013-01-06 10:03:00,30.6,26.1,30.01,WSW,257,0.0,3.0,83,0.00,,FEW060,0.00,VWS V14.01,2013-01-06 15:03:00,
2013-01-06 10:04:00,30.7,26.2,30.01,West,280,0.0,2.0,83,0.00,,FEW060,0.00,VWS V14.01,2013-01-06 15:04:00,
2013-01-06 10:05:00,30.8,26.3,30.01,WSW,246,2.0,3.0,83,0.00,,FEW060,0.00,VWS V14.01,2013-01-06 15:05:00,
2013-01-06 10:06:00,30.9,26.1,30.01,WSW,246,2.0,3.0,82,0.00,,FEW060,0.00,VWS V14.01,2013-01-06 15:06:00,
2013-01-06 10:07:00,31.1,26.5,30.01,WNW,297,1.0,2.0,83,0.00,,SCT080,0.00,VWS V14.01,2013-01-06 15:07:00,
2013-01-06 10:08:00,31.1,26.5,30.01,WNW,297,1.0,2.0,83,0.00,,FEW060,0.00,VWS V14.01,2013-01-06 15:08:00,
2013-01-06 10:09:00,31.2,26.4,30.01,WSW,248,0.0,3.0,82,0.00,,FEW060,0.00,VWS V14.01,2013-01-06 15:09:00,
2013-01-06 10:10:00,31.3,26.5,30.01,SSW,210,1.0,2.0,82,0.00,,FEW060,0.00,VWS V14.01,2013-01-06 15:10:00,
2013-01-06 10:11:00,31.3,26.5,30.01,SSW,212,2.0,4.0,82,0.00,,FEW060,0.00,VWS V14.01,2013-01-06 15:11:00,
2013-01-06 10:12:00,31.4,26.5,30.01,WSW,253,0.0,2.0,82,0.00,,SCT080,0.00,VWS V14.01,2013-01-06 15:12:00,
2013-01-06 10:13:00,31.4,26.5,30.01,WSW,253,0.0,2.0,82,0.00,,FEW060,0.00,VWS V14.01,2013-01-06 15:13:00,
2013-01-06 10:14:00,31.4,26.5,30.00,West,263,3.0,3.0,82,0.00,,FEW060,0.00,VWS V14.01,2013-01-06 15:14:00,
2013-01-06 10:15:00,31.5,26.4,30.00,SW,230,3.0,3.0,81,0.00,,FEW060,0.00,VWS V14.01,2013-01-06 15:15:00,
2013-01-06 10:16:00,31.5,26.4,30.00,West,281,2.0,3.0,81,0.00,,FEW060,0.00,VWS V14.01,2013-01-06 15:16:00,
2013-01-06 10:17:00,31.6,26.5,30.00,WSW,253,2.0,2.0,81,0.00,,OVC080,0.00,VWS V14.01,2013-01-06 15:17:00,
2013-01-06 10:18:00,31.6,26.5,30.00,WSW,253,2.0,2.0,81,0.00,,FEW060,0.00,VWS V14.01,2013-01-06 15:18:00,
2013-01-06 10:19:00,31.6,26.8,30.00,SW,226,0.0,2.0,82,0.00,,FEW060,0.00,VWS V14.01,2013-01-06 15:19:00,
2013-01-06 10:20:00,31.7,26.5,30.00,West,269,2.0,2.0,81,0.00,,FEW060,0.00,VWS V14.01,2013-01-06 15:20:00,
2013-01-06 10:21:00,31.8,26.9,30.00,NNW,328,3.0,3.0,82,0.00,,FEW060,0.00,VWS V14.01,2013-01-06 15:21:00,
2013-01-06 10:22:00,32.0,26.8,30.00,West,271,4.0,5.0,81,0.00,,SCT080,0.00,VWS V14.01,2013-01-06 15:22:00,
2013-01-06 10:23:00,32.0,26.8,30.00,WNW,290,2.0,5.0,81,0.00,,FEW060,0.00,VWS V14.01,2013-01-06 15:23:00,
2013-01-06 10:24:00,32.0,26.8,30.00,WSW,250,2.0,5.0,81,0.00,,FEW060,0.00,VWS V14.01,2013-01-06 15:24:00,
2013-01-06 10:25:00,32.0,26.5,30.00,West,271,4.0,4.0,80,0.00,,FEW060,0.00,VWS V14.01,2013-01-06 15:25:00,
2013-01-06 10:26:00,32.0,26.5,30.00,West,260,4.0,4.0,80,0.00,,FEW060,0.00,VWS V14.01,2013-01-06 15:26:00,
2013-01-06 10:27:00,32.1,26.9,30.00,SW,231,4.0,4.0,81,0.00,,SCT080,0.00,VWS V14.01,2013-01-06 15:27:00,
2013-01-06 10:28:00,32.1,26.9,30.00,WSW,250,1.0,3.0,81,0.00,,FEW060,0.00,VWS V14.01,2013-01-06 15:28:00,
2013-01-06 10:29:00,32.1,26.9,30.00,SW,214,2.0,6.0,81,0.00,,FEW060,0.00,VWS V14.01,2013-01-06 15:29:00,
2013-01-06 10:30:00,32.2,27.0,29.99,WSW,252,0.0,2.0,81,0.00,,FEW060,0.00,VWS V14.01,2013-01-06 15:30:00,
2013-01-06 10:31:00,32.3,27.1,29.99,WNW,302,1.0,2.0,81,0.00,,FEW060,0.00,VWS V14.01,2013-01-06 15:31:00,
2013-01-06 10:32:00,32.5,27.0,29.99,West,263,1.0,2.0,80,0.00,,FEW080,0.00,VWS V14.01,2013-01-06 15:32:00,
2013-01-06 10:33:00,32.5,27.0,29.99,West,271,2.0,5.0,80,0.00,,FEW060,0.00,VWS V14.01,2013-01-06 15:33:00,
2013-01-06 10:34:00,32.5,27.0,29.99,West,264,0.0,2.0,80,0.00,,FEW060,0.00,VWS V14.01,2013-01-06 15:34:00,
2013-01-06 10:35:00,32.5,27.0,29.99,West,280,1.0,1.0,80,0.00,,FEW060,0.00,VWS V14.01,2013-01-06 15:35:00,
2013-01-06 10:36:00,32.6,27.1,29.99,WSW,256,1.0,2.0,80,0.00,,FEW060,0.00,VWS V14.01,2013-01-06 15:36:00,
2013-01-06 10:37:00,32.8,27.3,29.99,West,267,1.0,2.0,80,0.00,,FEW080,0.00,VWS V14.01,2013-01-06 15:37:00,
2013-01-06 10:38:00,32.8,27.3,29.99,West,259,2.0,3.0,80,0.00,,FEW060,0.00,VWS V14.01,2013-01-06 15:38:00,
2013-01-06 10:39:00,32.8,27.3,29.99,West,271,4.0,4.0,80,0.00,,FEW060,0.00,VWS V14.01,2013-01-06 15:39:00,
2013-01-06 10:40:00,32.8,27.0,29.98,WSW,249,2.0,5.0,79,0.00,,FEW060,0.00,VWS V14.01,2013-01-06 15:40:00,
2013-01-06 10:41:00,32.9,27.1,29.98,West,261,0.0,2.0,79,0.00,,FEW060,0.00,VWS V14.01,2013-01-06 15:41:00,
2013-01-06 10:42:00,33.0,27.2,29.98,WNW,284,1.0,2.0,79,0.00,,FEW060,0.00,VWS V14.01,2013-01-06 15:42:00,
2013-01-06 10:43:00,33.1,27.6,29.98,West,266,2.0,3.0,80,0.00,,FEW080,0.00,VWS V14.01,2013-01-06 15:43:00,
2013-01-06 10:44:00,33.1,27.3,29.98,SSW,212,1.0,3.0,79,0.00,,FEW060,0.00,VWS V14.01,2013-01-06 15:44:00,
2013-01-06 10:45:00,33.2,27.4,29.98,West,281,2.0,2.0,79,0.00,,FEW060,0.00,VWS V14.01,2013-01-06 15:45:00,
2013-01-06 10:46:00,33.3,27.5,29.98,WSW,257,1.0,3.0,79,0.00,,FEW060,0.00,VWS V14.01,2013-01-06 15:46:00,
2013-01-06 10:47:00,33.3,27.5,29.98,WSW,253,2.0,4.0,79,0.00,,FEW060,0.00,VWS V14.01,2013-01-06 15:47:00,
2013-01-06 10:48:00,33.3,27.5,29.98,SSW,205,2.0,3.0,79,0.00,,FEW080,0.00,VWS V14.01,2013-01-06 15:48:00,
2013-01-06 10:49:00,33.3,27.5,29.98,SSW,205,2.0,3.0,79,0.00,,FEW060,0.00,VWS V14.01,2013-01-06 15:49:00,
2013-01-06 10:50:00,33.4,27.6,29.98,SW,233,0.0,2.0,79,0.00,,FEW060,0.00,VWS V14.01,2013-01-06 15:50:00,
2013-01-06 10:51:00,33.4,27.6,29.98,West,267,3.0,3.0,79,0.00,,FEW060,0.00,VWS V14.01,2013-01-06 15:51:00,
2013-01-06 10:52:00,33.5,27.7,29.98,West,263,0.0,3.0,79,0.00,,FEW060,0.00,VWS V14.01,2013-01-06 15:52:00,
2013-01-06 10:53:00,33.7,27.9,29.98,West,270,0.0,3.0,79,0.00,,FEW080,0.00,VWS V14.01,2013-01-06 15:53:00,
2013-01-06 10:54:00,33.7,27.9,29.98,West,270,0.0,3.0,79,0.00,,FEW060,0.00,VWS V14.01,2013-01-06 15:54:00,
2013-01-06 10:55:00,33.8,27.7,29.98,South,181,0.0,1.0,78,0.00,,FEW060,0.00,VWS V14.01,2013-01-06 15:55:00,
2013-01-06 10:56:00,33.9,28.1,29.98,WSW,256,1.0,2.0,79,0.00,,FEW060,0.00,VWS V14.01,2013-01-06 15:56:00,
2013-01-06 10:57:00,34.0,27.9,29.98,NNW,328,2.0,3.0,78,0.00,,FEW060,0.00,VWS V14.01,2013-01-06 15:57:00,
2013-01-06 10:58:00,34.1,28.0,29.98,SW,235,1.0,3.0,78,0.00,,FEW080,0.00,VWS V14.01,2013-01-06 15:58:00,
2013-01-06 10:59:00,34.1,28.0,29.98,SW,235,1.0,3.0,78,0.00,,FEW060,0.00,VWS V14.01,2013-01-06 15:59:00,
2013-01-06 11:00:00,34.2,28.1,29.98,WSW,248,2.0,3.0,78,0.00,,FEW060,0.00,VWS V14.01,2013-01-06 16:00:00,
2013-01-06 11:01:00,34.3,28.2,29.98,WSW,240,2.0,4.0,78,0.00,,FEW060,0.00,VWS V14.01,2013-01-06 16:01:00,
2013-01-06 11:02:00,34.2,27.8,29.97,NW,309,3.0,4.0,77,0.00,,FEW060,0.00,VWS V14.01,2013-01-06 16:02:00,
2013-01-06 11:03:00,34.2,27.8,29.97,WSW,256,2.0,3.0,77,0.00,,FEW080,0.00,VWS V14.01,2013-01-06 16:03:00,
2013-01-06 11:04:00,34.2,27.8,29.97,WSW,256,2.0,3.0,77,0.00,,FEW060,0.00,VWS V14.01,2013-01-06 16:04:00,
2013-01-06 11:05:00,34.2,27.8,29.97,WNW,284,4.0,4.0,77,0.00,,FEW060,0.00,VWS V14.01,2013-01-06 16:05:00,
2013-01-06 11:06:00,34.3,27.9,29.97,WSW,240,2.0,5.0,77,0.00,,FEW060,0.00,VWS V14.01,2013-01-06 16:06:00,
2013-01-06 11:07:00,34.3,27.9,29.97,WSW,246,0.0,3.0,77,0.00,,FEW060,0.00,VWS V14.01,2013-01-06 16:07:00,
2013-01-06 11:08:00,34.3,27.9,29.97,WSW,254,2.0,3.0,77,0.00,,FEW080,0.00,VWS V14.01,2013-01-06 16:08:00,
2013-01-06 11:09:00,34.3,27.9,29.97,WSW,254,2.0,3.0,77,0.00,,FEW060,0.00,VWS V14.01,2013-01-06 16:09:00,
2013-01-06 11:10:00,34.4,28.0,29.97,WSW,246,2.0,2.0,77,0.00,,FEW060,0.00,VWS V14.01,2013-01-06 16:10:00,
2013-01-06 11:11:00,34.4,28.0,29.97,SW,233,0.0,2.0,77,0.00,,FEW060,0.00,VWS V14.01,2013-01-06 16:11:00,
2013-01-06 11:12:00,34.4,28.0,29.97,WSW,238,1.0,1.0,77,0.00,,FEW060,0.00,VWS V14.01,2013-01-06 16:12:00,
2013-01-06 11:13:00,34.5,27.7,29.96,WSW,256,2.0,2.0,76,0.00,,FEW080,0.00,VWS V14.01,2013-01-06 16:13:00,
2013-01-06 11:14:00,34.5,27.7,29.96,WSW,256,2.0,2.0,76,0.00,,FEW060,0.00,VWS V14.01,2013-01-06 16:14:00,
2013-01-06 11:15:00,34.5,27.7,29.96,West,264,1.0,3.0,76,0.00,,FEW060,0.00,VWS V14.01,2013-01-06 16:15:00,
2013-01-06 11:16:00,34.5,27.7,29.96,WNW,292,1.0,3.0,76,0.00,,FEW060,0.00,VWS V14.01,2013-01-06 16:16:00,
2013-01-06 11:17:00,34.5,27.7,29.96,West,275,2.0,2.0,76,0.00,,FEW060,0.00,VWS V14.01,2013-01-06 16:17:00,
2013-01-06 11:18:00,34.5,28.0,29.96,West,268,0.0,0.0,77,0.00,,FEW080,0.00,VWS V14.01,2013-01-06 16:18:00,
2013-01-06 11:19:00,34.5,28.0,29.96,West,268,0.0,0.0,77,0.00,,FEW060,0.00,VWS V14.01,2013-01-06 16:19:00,
2013-01-06 11:20:00,34.6,28.1,29.96,West,271,1.0,3.0,77,0.00,,FEW060,0.00,VWS V14.01,2013-01-06 16:20:00,
2013-01-06 11:21:00,34.6,27.8,29.96,SSW,212,3.0,3.0,76,0.00,,FEW060,0.00,VWS V14.01,2013-01-06 16:21:00,
2013-01-06 11:22:00,34.7,27.9,29.96,WSW,240,1.0,3.0,76,0.00,,FEW060,0.00,VWS V14.01,2013-01-06 16:22:00,
2013-01-06 11:23:00,35.0,28.5,29.96,West,264,2.0,2.0,77,0.00,,FEW080,0.00,VWS V14.01,2013-01-06 16:23:00,
2013-01-06 11:24:00,35.0,28.5,29.96,WSW,238,2.0,3.0,77,0.00,,FEW060,0.00,VWS V14.01,2013-01-06 16:24:00,
2013-01-06 11:25:00,35.1,28.3,29.96,West,271,1.0,2.0,76,0.00,,FEW060,0.00,VWS V14.01,2013-01-06 16:25:00,
2013-01-06 11:26:00,35.2,28.4,29.96,North,354,2.0,3.0,76,0.00,,FEW060,0.00,VWS V14.01,2013-01-06 16:26:00,
2013-01-06 11:27:00,35.2,28.4,29.96,West,269,3.0,5.0,76,0.00,,FEW060,0.00,VWS V14.01,2013-01-06 16:27:00,
2013-01-06 11:28:00,35.3,28.5,29.96,West,259,0.0,2.0,76,0.00,,FEW080,0.00,VWS V14.01,2013-01-06 16:28:00,
2013-01-06 11:29:00,35.3,28.5,29.96,West,259,0.0,2.0,76,0.00,,FEW060,0.00,VWS V14.01,2013-01-06 16:29:00,
2013-01-06 11:30:00,35.3,28.2,29.96,West,259,0.0,1.0,75,0.00,,FEW060,0.00,VWS V14.01,2013-01-06 16:30:00,
2013-01-06 11:31:00,35.4,28.6,29.95,West,259,0.0,0.0,76,0.00,,FEW060,0.00,VWS V14.01,2013-01-06 16:31:00,
2013-01-06 11:32:00,35.6,28.8,29.95,NNW,333,1.0,1.0,76,0.00,,FEW060,0.00,VWS V14.01,2013-01-06 16:32:00,
2013-01-06 11:33:00,35.6,28.5,29.95,WSW,256,1.0,3.0,75,0.00,,FEW080,0.00,VWS V14.01,2013-01-06 16:33:00,
2013-01-06 11:34:00,35.6,28.5,29.95,WSW,256,1.0,3.0,75,0.00,,FEW060,0.00,VWS V14.01,2013-01-06 16:34:00,
2013-01-06 11:35:00,35.6,28.5,29.95,North,359,0.0,1.0,75,0.00,,FEW060,0.00,VWS V14.01,2013-01-06 16:35:00,
2013-01-06 11:36:00,35.7,28.6,29.95,North,349,0.0,1.0,75,0.00,,FEW060,0.00,VWS V14.01,2013-01-06 16:36:00,
2013-01-06 11:37:00,35.7,28.9,29.95,SW,225,1.0,2.0,76,0.00,,FEW060,0.00,VWS V14.01,2013-01-06 16:37:00,
2013-01-06 11:38:00,36.0,28.9,29.95,WSW,253,2.0,2.0,75,0.00,,FEW080,0.00,VWS V14.01,2013-01-06 16:38:00,
2013-01-06 11:39:00,35.9,28.8,29.95,West,277,1.0,2.0,75,0.00,,FEW060,0.00,VWS V14.01,2013-01-06 16:39:00,
2013-01-06 11:40:00,36.0,28.5,29.95,SW,217,1.0,3.0,74,0.00,,FEW060,0.00,VWS V14.01,2013-01-06 16:40:00,
2013-01-06 11:41:00,36.0,28.5,29.95,WNW,287,0.0,2.0,74,0.00,,FEW060,0.00,VWS V14.01,2013-01-06 16:41:00,
2013-01-06 11:42:00,36.0,28.5,29.95,SW,228,1.0,3.0,74,0.00,,FEW060,0.00,VWS V14.01,2013-01-06 16:42:00,
2013-01-06 11:43:00,36.0,28.5,29.94,West,259,1.0,1.0,74,0.00,,FEW080,0.00,VWS V14.01,2013-01-06 16:43:00,
2013-01-06 11:44:00,36.0,28.5,29.94,WNW,286,1.0,5.0,74,0.00,,FEW060,0.00,VWS V14.01,2013-01-06 16:44:00,
2013-01-06 11:45:00,36.0,28.5,29.94,West,269,0.0,2.0,74,0.00,,FEW060,0.00,VWS V14.01,2013-01-06 16:45:00,
2013-01-06 11:46:00,36.0,28.5,29.94,West,260,1.0,2.0,74,0.00,,FEW060,0.00,VWS V14.01,2013-01-06 16:46:00,
2013-01-06 11:47:00,36.0,28.5,29.94,NW,306,1.0,3.0,74,0.00,,FEW060,0.00,VWS V14.01,2013-01-06 16:47:00,
2013-01-06 11:48:00,36.1,29.0,29.94,WSW,246,4.0,4.0,75,0.00,,FEW080,0.00,VWS V14.01,2013-01-06 16:48:00,
2013-01-06 11:49:00,36.1,29.0,29.94,West,271,2.0,2.0,75,0.00,,FEW060,0.00,VWS V14.01,2013-01-06 16:49:00,
2013-01-06 11:50:00,36.2,28.7,29.94,WNW,283,1.0,6.0,74,0.00,,FEW060,0.00,VWS V14.01,2013-01-06 16:50:00,
2013-01-06 11:51:00,36.3,28.8,29.94,SW,217,0.0,1.0,74,0.00,,FEW060,0.00,VWS V14.01,2013-01-06 16:51:00,
2013-01-06 11:52:00,36.3,28.8,29.94,WNW,293,1.0,3.0,74,0.00,,FEW060,0.00,VWS V14.01,2013-01-06 16:52:00,
2013-01-06 11:53:00,36.3,28.5,29.94,West,263,2.0,2.0,73,0.00,,FEW080,0.00,VWS V14.01,2013-01-06 16:53:00,
2013-01-06 11:54:00,36.4,28.6,29.94,SW,225,2.0,4.0,73,0.00,,FEW060,0.00,VWS V14.01,2013-01-06 16:54:00,
2013-01-06 11:55:00,36.3,28.5,29.94,WSW,258,0.0,2.0,73,0.00,,FEW060,0.00,VWS V14.01,2013-01-06 16:55:00,
2013-01-06 11:56:00,36.3,28.5,29.94,WSW,250,2.0,5.0,73,0.00,,FEW060,0.00,VWS V14.01,2013-01-06 16:56:00,
2013-01-06 11:57:00,36.3,28.5,29.94,West,278,1.0,3.0,73,0.00,,FEW060,0.00,VWS V14.01,2013-01-06 16:57:00,
2013-01-06 11:58:00,36.4,28.6,29.94,SW,224,1.0,5.0,73,0.00,,FEW080,0.00,VWS V14.01,2013-01-06 16:58:00,
2013-01-06 11:59:00,36.4,28.6,29.94,WSW,240,7.0,7.0,73,0.00,,FEW060,0.00,VWS V14.01,2013-01-06 16:59:00,
2013-01-06 12:00:00,36.4,28.6,29.94,WSW,256,5.0,5.0,73,0.00,,FEW060,0.00,VWS V14.01,2013-01-06 17:00:00,
2013-01-06 12:01:00,36.3,28.5,29.93,West,260,5.0,5.0,73,0.00,,FEW060,0.00,VWS V14.01,2013-01-06 17:01:00,
2013-01-06 12:02:00,36.3,28.5,29.93,NNW,333,1.0,6.0,73,0.00,,FEW060,0.00,VWS V14.01,2013-01-06 17:02:00,
2013-01-06 12:03:00,36.3,28.5,29.93,WSW,246,2.0,6.0,73,0.00,,FEW060,0.00,VWS V14.01,2013-01-06 17:03:00,
2013-01-06 12:04:00,36.3,28.5,29.93,West,274,4.0,4.0,73,0.00,,FEW080,0.00,VWS V14.01,2013-01-06 17:04:00,
2013-01-06 12:05:00,36.3,28.5,29.93,WSW,256,2.0,4.0,73,0.00,,FEW060,0.00,VWS V14.01,2013-01-06 17:05:00,
2013-01-06 12:06:00,36.3,28.5,29.93,SW,214,1.0,3.0,73,0.00,,FEW060,0.00,VWS V14.01,2013-01-06 17:06:00,
2013-01-06 12:07:00,36.3,28.5,29.93,WSW,240,2.0,5.0,73,0.00,,FEW060,0.00,VWS V14.01,2013-01-06 17:07:00,
2013-01-06 12:08:00,36.4,28.2,29.93,WSW,238,2.0,3.0,72,0.00,,FEW060,0.00,VWS V14.01,2013-01-06 17:08:00,
2013-01-06 12:09:00,36.5,28.4,29.93,SSW,212,1.0,4.0,72,0.00,,FEW080,0.00,VWS V14.01,2013-01-06 17:09:00,
2013-01-06 12:10:00,36.5,28.4,29.93,SSE,160,2.0,4.0,72,0.00,,FEW060,0.00,VWS V14.01,2013-01-06 17:10:00,
2013-01-06 12:11:00,36.5,28.4,29.93,WSW,256,2.0,4.0,72,0.00,,FEW060,0.00,VWS V14.01,2013-01-06 17:11:00,
2013-01-06 12:12:00,36.5,28.4,29.93,West,266,6.0,6.0,72,0.00,,FEW060,0.00,VWS V14.01,2013-01-06 17:12:00,
2013-01-06 12:13:00,36.5,28.4,29.93,SW,216,5.0,6.0,72,0.00,,FEW060,0.00,VWS V14.01,2013-01-06 17:13:00,
2013-01-06 12:14:00,36.7,28.5,29.93,SW,233,6.0,6.0,72,0.00,,FEW080,0.00,VWS V14.01,2013-01-06 17:14:00,
2013-01-06 12:15:00,36.7,28.5,29.93,SSW,198,6.0,6.0,72,0.00,,FEW060,0.00,VWS V14.01,2013-01-06 17:15:00,
2013-01-06 12:16:00,36.7,28.9,29.93,WSW,256,2.0,6.0,73,0.00,,FEW060,0.00,VWS V14.01,2013-01-06 17:16:00,
2013-01-06 12:17:00,36.8,28.6,29.93,WNW,291,2.0,3.0,72,0.00,,FEW060,0.00,VWS V14.01,2013-01-06 17:17:00,
2013-01-06 12:18:00,36.9,28.7,29.93,West,273,0.0,5.0,72,0.00,,FEW060,0.00,VWS V14.01,2013-01-06 17:18:00,
2013-01-06 12:19:00,37.0,28.8,29.93,West,269,4.0,4.0,72,0.00,,FEW080,0.00,VWS V14.01,2013-01-06 17:19:00,
2013-01-06 12:20:00,37.0,28.8,29.93,West,269,4.0,4.0,72,0.00,,FEW060,0.00,VWS V14.01,2013-01-06 17:20:00,
2013-01-06 12:21:00,37.0,28.5,29.93,NW,306,3.0,5.0,71,0.00,,FEW060,0.00,VWS V14.01,2013-01-06 17:21:00,
2013-01-06 12:22:00,37.0,28.5,29.93,NW,318,2.0,6.0,71,0.00,,FEW060,0.00,VWS V14.01,2013-01-06 17:22:00,
2013-01-06 12:23:00,37.0,28.5,29.93,WSW,245,3.0,3.0,71,0.00,,FEW060,0.00,VWS V14.01,2013-01-06 17:23:00,
2013-01-06 12:24:00,37.1,28.6,29.93,WSW,238,2.0,4.0,71,0.00,,FEW080,0.00,VWS V14.01,2013-01-06 17:24:00,
2013-01-06 12:25:00,37.1,28.6,29.92,WSW,238,2.0,4.0,71,0.00,,FEW060,0.00,VWS V14.01,2013-01-06 17:25:00,
2013-01-06 12:26:00,37.1,28.6,29.92,ENE,74,0.0,2.0,71,0.00,,FEW060,0.00,VWS V14.01,2013-01-06 17:26:00,
2013-01-06 12:27:00,37.2,29.0,29.92,West,274,4.0,4.0,72,0.00,,FEW060,0.00,VWS V14.01,2013-01-06 17:27:00,
2013-01-06 12:28:00,37.3,28.8,29.92,WNW,284,1.0,4.0,71,0.00,,FEW060,0.00,VWS V14.01,2013-01-06 17:28:00,
2013-01-06 12:29:00,37.5,29.0,29.92,WSW,258,3.0,3.0,71,0.00,,FEW080,0.00,VWS V14.01,2013-01-06 17:29:00,
2013-01-06 12:30:00,37.5,29.0,29.92,WSW,258,3.0,3.0,71,0.00,,FEW060,0.00,VWS V14.01,2013-01-06 17:30:00,
2013-01-06 12:31:00,37.6,28.7,29.92,West,271,2.0,4.0,70,0.00,,FEW060,0.00,VWS V14.01,2013-01-06 17:31:00,
2013-01-06 12:32:00,37.6,28.7,29.92,West,266,4.0,5.0,70,0.00,,FEW060,0.00,VWS V14.01,2013-01-06 17:32:00,
2013-01-06 12:33:00,37.6,28.7,29.92,WSW,246,3.0,5.0,70,0.00,,FEW060,0.00,VWS V14.01,2013-01-06 17:33:00,
2013-01-06 12:34:00,37.7,28.8,29.92,WNW,296,1.0,2.0,70,0.00,,FEW070,0.00,VWS V14.01,2013-01-06 17:34:00,
2013-01-06 12:35:00,37.7,28.8,29.92,WNW,296,1.0,2.0,70,0.00,,FEW060,0.00,VWS V14.01,2013-01-06 17:35:00,
2013-01-06 12:36:00,37.7,28.8,29.92,West,270,1.0,3.0,70,0.00,,FEW060,0.00,VWS V14.01,2013-01-06 17:36:00,
2013-01-06 12:37:00,37.8,28.9,29.92,SW,229,6.0,7.0,70,0.00,,FEW060,0.00,VWS V14.01,2013-01-06 17:37:00,
2013-01-06 12:38:00,37.8,28.6,29.92,West,269,1.0,4.0,69,0.00,,FEW060,0.00,VWS V14.01,2013-01-06 17:38:00,
2013-01-06 12:39:00,37.9,29.0,29.92,SW,231,1.0,1.0,70,0.00,,FEW070,0.00,VWS V14.01,2013-01-06 17:39:00,
2013-01-06 12:40:00,37.9,29.0,29.92,SW,231,1.0,1.0,70,0.00,,FEW060,0.00,VWS V14.01,2013-01-06 17:40:00,
2013-01-06 12:41:00,38.0,29.1,29.92,West,274,3.0,3.0,70,0.00,,FEW060,0.00,VWS V14.01,2013-01-06 17:41:00,
2013-01-06 12:42:00,38.0,28.8,29.92,WNW,297,4.0,4.0,69,0.00,,FEW060,0.00,VWS V14.01,2013-01-06 17:42:00,
2013-01-06 12:43:00,38.0,28.8,29.92,WSW,238,3.0,4.0,69,0.00,,FEW060,0.00,VWS V14.01,2013-01-06 17:43:00,
2013-01-06 12:44:00,38.1,29.2,29.92,WNW,290,3.0,3.0,70,0.00,,FEW070,0.00,VWS V14.01,2013-01-06 17:44:00,
2013-01-06 12:45:00,38.1,29.2,29.92,WNW,290,3.0,3.0,70,0.00,,FEW060,0.00,VWS V14.01,2013-01-06 17:45:00,
2013-01-06 12:46:00,38.1,28.8,29.92,West,266,1.0,4.0,69,0.00,,FEW060,0.00,VWS V14.01,2013-01-06 17:46:00,
2013-01-06 12:47:00,38.2,28.9,29.92,WSW,250,1.0,2.0,69,0.00,,FEW060,0.00,VWS V14.01,2013-01-06 17:47:00,
2013-01-06 12:48:00,38.2,28.9,29.92,WSW,257,1.0,2.0,69,0.00,,FEW060,0.00,VWS V14.01,2013-01-06 17:48:00,
2013-01-06 12:49:00,38.3,29.0,29.91,WSW,254,1.0,2.0,69,0.00,,FEW070,0.00,VWS V14.01,2013-01-06 17:49:00,
2013-01-06 12:50:00,38.3,29.0,29.91,WSW,254,1.0,2.0,69,0.00,,FEW060,0.00,VWS V14.01,2013-01-06 17:50:00,
2013-01-06 12:51:00,38.4,29.1,29.91,West,271,1.0,2.0,69,0.00,,FEW060,0.00,VWS V14.01,2013-01-06 17:51:00,
2013-01-06 12:52:00,38.4,29.1,29.91,West,277,2.0,3.0,69,0.00,,FEW060,0.00,VWS V14.01,2013-01-06 17:52:00,
2013-01-06 12:53:00,38.5,29.2,29.91,SW,218,1.0,2.0,69,0.00,,FEW060,0.00,VWS V14.01,2013-01-06 17:53:00,
2013-01-06 12:54:00,38.5,28.9,29.91,West,264,3.0,3.0,68,0.00,,FEW070,0.00,VWS V14.01,2013-01-06 17:54:00,
2013-01-06 12:55:00,38.5,28.9,29.91,West,264,3.0,3.0,68,0.00,,FEW060,0.00,VWS V14.01,2013-01-06 17:55:00,
2013-01-06 12:56:00,38.5,28.9,29.91,WNW,284,3.0,5.0,68,0.00,,FEW060,0.00,VWS V14.01,2013-01-06 17:56:00,
2013-01-06 12:57:00,38.4,28.4,29.91,West,276,3.0,4.0,67,0.00,,FEW060,0.00,VWS V14.01,2013-01-06 17:57:00,
2013-01-06 12:58:00,38.4,28.4,29.91,West,280,3.0,5.0,67,0.00,,FEW060,0.00,VWS V14.01,2013-01-06 17:58:00,
2013-01-06 12:59:00,38.5,29.2,29.91,SE,129,1.0,2.0,69,0.00,,FEW070,0.00,VWS V14.01,2013-01-06 17:59:00,
2013-01-06 13:00:00,38.5,29.2,29.91,SE,129,1.0,2.0,69,0.00,,FEW060,0.00,VWS V14.01,2013-01-06 18:00:00,
2013-01-06 13:01:00,38.6,29.3,29.91,WSW,240,3.0,5.0,69,0.00,,FEW060,0.00,VWS V14.01,2013-01-06 18:01:00,
2013-01-06 13:02:00,38.7,29.1,29.91,WSW,256,2.0,4.0,68,0.00,,FEW060,0.00,VWS V14.01,2013-01-06 18:02:00,
2013-01-06 13:03:00,38.7,29.1,29.91,WNW,288,1.0,3.0,68,0.00,,FEW060,0.00,VWS V14.01,2013-01-06 18:03:00,
2013-01-06 13:04:00,38.9,29.2,29.91,SW,222,1.0,2.0,68,0.00,,FEW070,0.00,VWS V14.01,2013-01-06 18:04:00,
2013-01-06 13:05:00,38.9,29.2,29.91,SW,217,2.0,6.0,68,0.00,,FEW060,0.00,VWS V14.01,2013-01-06 18:05:00,
2013-01-06 13:06:00,38.9,28.9,29.91,SSW,195,1.0,5.0,67,0.00,,FEW060,0.00,VWS V14.01,2013-01-06 18:06:00,
2013-01-06 13:07:00,38.9,28.9,29.91,WSW,256,3.0,4.0,67,0.00,,FEW060,0.00,VWS V14.01,2013-01-06 18:07:00,
2013-01-06 13:08:00,39.0,29.0,29.91,West,271,1.0,3.0,67,0.00,,FEW060,0.00,VWS V14.01,2013-01-06 18:08:00,
2013-01-06 13:09:00,39.1,29.1,29.91,WSW,249,4.0,4.0,67,0.00,,FEW070,0.00,VWS V14.01,2013-01-06 18:09:00,
2013-01-06 13:10:00,39.1,29.1,29.91,SW,231,4.0,4.0,67,0.00,,FEW060,0.00,VWS V14.01,2013-01-06 18:10:00,
2013-01-06 13:11:00,39.2,29.2,29.91,WSW,243,3.0,4.0,67,0.00,,FEW060,0.00,VWS V14.01,2013-01-06 18:11:00,
2013-01-06 13:12:00,39.2,28.8,29.91,West,266,3.0,4.0,66,0.00,,FEW060,0.00,VWS V14.01,2013-01-06 18:12:00,
2013-01-06 13:13:00,39.2,28.8,29.91,SSW,203,1.0,4.0,66,0.00,,FEW060,0.00,VWS V14.01,2013-01-06 18:13:00,
2013-01-06 13:14:00,39.2,28.8,29.91,WSW,252,2.0,2.0,66,0.00,,FEW070,0.00,VWS V14.01,2013-01-06 18:14:00,
2013-01-06 13:15:00,39.2,28.8,29.91,NW,307,1.0,4.0,66,0.00,,FEW060,0.00,VWS V14.01,2013-01-06 18:15:00,
2013-01-06 13:16:00,39.3,28.9,29.91,SW,231,1.0,3.0,66,0.00,,FEW060,0.00,VWS V14.01,2013-01-06 18:16:00,
2013-01-06 13:17:00,39.3,28.9,29.91,West,265,2.0,3.0,66,0.00,,FEW060,0.00,VWS V14.01,2013-01-06 18:17:00,
2013-01-06 13:18:00,39.4,29.0,29.91,WSW,246,1.0,4.0,66,0.00,,FEW060,0.00,VWS V14.01,2013-01-06 18:18:00,
2013-01-06 13:19:00,39.4,28.6,29.91,SW,231,3.0,3.0,65,0.00,,FEW070,0.00,VWS V14.01,2013-01-06 18:19:00,
2013-01-06 13:20:00,39.4,29.0,29.91,West,280,3.0,5.0,66,0.00,,FEW060,0.00,VWS V14.01,2013-01-06 18:20:00,
2013-01-06 13:21:00,39.5,28.7,29.91,SW,221,1.0,4.0,65,0.00,,FEW060,0.00,VWS V14.01,2013-01-06 18:21:00,
2013-01-06 13:22:00,39.5,29.1,29.91,WNW,284,0.0,2.0,66,0.00,,FEW060,0.00,VWS V14.01,2013-01-06 18:22:00,
2013-01-06 13:23:00,39.6,28.8,29.91,West,278,3.0,4.0,65,0.00,,FEW060,0.00,VWS V14.01,2013-01-06 18:23:00,
2013-01-06 13:24:00,39.6,28.8,29.91,SSW,212,0.0,2.0,65,0.00,,FEW070,0.00,VWS V14.01,2013-01-06 18:24:00,
2013-01-06 13:25:00,39.6,28.8,29.91,NNW,330,1.0,4.0,65,0.00,,FEW060,0.00,VWS V14.01,2013-01-06 18:25:00,
2013-01-06 13:26:00,39.6,28.8,29.91,WSW,248,1.0,2.0,65,0.00,,FEW060,0.00,VWS V14.01,2013-01-06 18:26:00,
2013-01-06 13:27:00,39.7,28.9,29.91,SW,222,1.0,2.0,65,0.00,,FEW060,0.00,VWS V14.01,2013-01-06 18:27:00,
2013-01-06 13:28:00,39.7,29.3,29.91,West,265,1.0,3.0,66,0.00,,FEW060,0.00,VWS V14.01,2013-01-06 18:28:00,
2013-01-06 13:29:00,39.9,29.5,29.91,West,262,3.0,4.0,66,0.00,,FEW060,0.00,VWS V14.01,2013-01-06 18:29:00,
2013-01-06 13:30:00,39.9,29.1,29.91,WSW,240,4.0,6.0,65,0.00,,FEW070,0.00,VWS V14.01,2013-01-06 18:30:00,
2013-01-06 13:31:00,39.9,29.1,29.91,SW,216,4.0,6.0,65,0.00,,FEW060,0.00,VWS V14.01,2013-01-06 18:31:00,
2013-01-06 13:32:00,39.9,28.7,29.91,NW,317,3.0,6.0,64,0.00,,FEW060,0.00,VWS V14.01,2013-01-06 18:32:00,
2013-01-06 13:33:00,39.8,28.6,29.91,West,273,2.0,5.0,64,0.00,,FEW060,0.00,VWS V14.01,2013-01-06 18:33:00,
2013-01-06 13:34:00,39.8,28.6,29.91,NW,326,1.0,4.0,64,0.00,,FEW060,0.00,VWS V14.01,2013-01-06 18:34:00,
2013-01-06 13:35:00,39.9,29.1,29.91,West,276,2.0,2.0,65,0.00,,FEW070,0.00,VWS V14.01,2013-01-06 18:35:00,
2013-01-06 13:36:00,39.9,29.1,29.91,West,276,2.0,2.0,65,0.00,,FEW060,0.00,VWS V14.01,2013-01-06 18:36:00,
2013-01-06 13:37:00,40.0,29.2,29.91,SW,226,2.0,3.0,65,0.00,,FEW060,0.00,VWS V14.01,2013-01-06 18:37:00,
2013-01-06 13:38:00,40.1,29.3,29.90,WSW,243,3.0,6.0,65,0.00,,FEW060,0.00,VWS V14.01,2013-01-06 18:38:00,
2013-01-06 13:39:00,40.1,28.9,29.90,West,260,6.0,6.0,64,0.00,,FEW060,0.00,VWS V14.01,2013-01-06 18:39:00,
2013-01-06 13:40:00,40.1,28.9,29.91,West,274,2.0,3.0,64,0.00,,FEW070,0.00,VWS V14.01,2013-01-06 18:40:00,
2013-01-06 13:41:00,40.1,28.9,29.91,West,274,2.0,3.0,64,0.00,,FEW060,0.00,VWS V14.01,2013-01-06 18:41:00,
2013-01-06 13:42:00,40.0,28.4,29.91,WSW,257,2.0,3.0,63,0.00,,FEW060,0.00,VWS V14.01,2013-01-06 18:42:00,
2013-01-06 13:43:00,40.0,28.8,29.91,ESE,122,0.0,3.0,64,0.00,,FEW060,0.00,VWS V14.01,2013-01-06 18:43:00,
2013-01-06 13:44:00,40.1,28.9,29.91,West,270,2.0,2.0,64,0.00,,FEW060,0.00,VWS V14.01,2013-01-06 18:44:00,
2013-01-06 13:45:00,40.3,29.1,29.91,WSW,253,1.0,2.0,64,0.00,,FEW070,0.00,VWS V14.01,2013-01-06 18:45:00,
2013-01-06 13:46:00,40.3,29.1,29.91,WSW,253,1.0,2.0,64,0.00,,FEW060,0.00,VWS V14.01,2013-01-06 18:46:00,
2013-01-06 13:47:00,40.4,29.6,29.91,West,278,2.0,2.0,65,0.00,,FEW060,0.00,VWS V14.01,2013-01-06 18:47:00,
2013-01-06 13:48:00,40.4,29.2,29.91,NW,309,0.0,2.0,64,0.00,,FEW060,0.00,VWS V14.01,2013-01-06 18:48:00,
2013-01-06 13:49:00,40.4,28.8,29.91,WSW,256,2.0,5.0,63,0.00,,FEW060,0.00,VWS V14.01,2013-01-06 18:49:00,
2013-01-06 13:50:00,40.1,28.5,29.91,West,265,1.0,5.0,63,0.00,,FEW070,0.00,VWS V14.01,2013-01-06 18:50:00,
2013-01-06 13:51:00,40.1,28.5,29.91,West,265,1.0,5.0,63,0.00,,FEW060,0.00,VWS V14.01,2013-01-06 18:51:00,
2013-01-06 13:52:00,40.1,28.5,29.91,SW,231,3.0,5.0,63,0.00,,FEW060,0.00,VWS V14.01,2013-01-06 18:52:00,
2013-01-06 13:53:00,40.0,28.8,29.91,WSW,243,1.0,3.0,64,0.00,,FEW060,0.00,VWS V14.01,2013-01-06 18:53:00,
2013-01-06 13:54:00,40.0,28.8,29.91,WNW,287,0.0,3.0,64,0.00,,FEW060,0.00,VWS V14.01,2013-01-06 18:54:00,
2013-01-06 13:55:00,39.9,28.7,29.91,West,266,1.0,3.0,64,0.00,,FEW070,0.00,VWS V14.01,2013-01-06 18:55:00,
2013-01-06 13:56:00,39.9,28.7,29.91,West,266,1.0,3.0,64,0.00,,FEW060,0.00,VWS V14.01,2013-01-06 18:56:00,
2013-01-06 13:57:00,39.9,28.7,29.91,WSW,250,0.0,1.0,64,0.00,,FEW060,0.00,VWS V14.01,2013-01-06 18:57:00,
2013-01-06 13:58:00,39.9,28.7,29.91,West,277,1.0,3.0,64,0.00,,FEW060,0.00,VWS V14.01,2013-01-06 18:58:00,
2013-01-06 13:59:00,39.9,28.7,29.91,West,263,1.0,2.0,64,0.00,,FEW060,0.00,VWS V14.01,2013-01-06 18:59:00,
2013-01-06 14:00:00,39.9,28.7,29.91,West,262,3.0,3.0,64,0.00,,FEW070,0.00,VWS V14.01,2013-01-06 19:00:00,
2013-01-06 14:01:00,39.9,28.7,29.91,West,262,3.0,3.0,64,0.00,,FEW060,0.00,VWS V14.01,2013-01-06 19:01:00,
2013-01-06 14:02:00,39.8,28.6,29.91,West,273,1.0,5.0,64,0.00,,FEW060,0.00,VWS V14.01,2013-01-06 19:02:00,
2013-01-06 14:03:00,39.7,28.5,29.91,West,277,3.0,4.0,64,0.00,,FEW060,0.00,VWS V14.01,2013-01-06 19:03:00,
2013-01-06 14:04:00,39.7,28.5,29.91,West,260,1.0,3.0,64,0.00,,FEW060,0.00,VWS V14.01,2013-01-06 19:04:00,
2013-01-06 14:05:00,39.8,28.6,29.91,SW,215,1.0,2.0,64,0.00,,FEW070,0.00,VWS V14.01,2013-01-06 19:05:00,
2013-01-06 14:06:00,39.8,28.6,29.91,SW,215,1.0,2.0,64,0.00,,FEW060,0.00,VWS V14.01,2013-01-06 19:06:00,
2013-01-06 14:07:00,39.8,29.0,29.91,SW,223,0.0,2.0,65,0.00,,FEW060,0.00,VWS V14.01,2013-01-06 19:07:00,
2013-01-06 14:08:00,39.9,29.1,29.91,West,267,0.0,2.0,65,0.00,,FEW060,0.00,VWS V14.01,2013-01-06 19:08:00,
2013-01-06 14:09:00,39.9,28.7,29.91,West,270,1.0,1.0,64,0.00,,FEW060,0.00,VWS V14.01,2013-01-06 19:09:00,
2013-01-06 14:10:00,39.8,28.6,29.91,WSW,256,4.0,4.0,64,0.00,,FEW070,0.00,VWS V14.01,2013-01-06 19:10:00,
2013-01-06 14:11:00,39.8,28.6,29.91,WSW,256,4.0,4.0,64,0.00,,FEW060,0.00,VWS V14.01,2013-01-06 19:11:00,
2013-01-06 14:12:00,39.8,28.6,29.91,WSW,254,1.0,4.0,64,0.00,,FEW060,0.00,VWS V14.01,2013-01-06 19:12:00,
2013-01-06 14:13:00,39.8,29.0,29.91,WSW,238,1.0,3.0,65,0.00,,FEW060,0.00,VWS V14.01,2013-01-06 19:13:00,
2013-01-06 14:14:00,39.9,28.7,29.91,West,268,0.0,1.0,64,0.00,,FEW060,0.00,VWS V14.01,2013-01-06 19:14:00,
2013-01-06 14:15:00,40.0,29.2,29.91,NNW,347,1.0,2.0,65,0.00,,FEW070,0.00,VWS V14.01,2013-01-06 19:15:00,
2013-01-06 14:16:00,40.0,29.2,29.91,NNW,347,1.0,2.0,65,0.00,,FEW060,0.00,VWS V14.01,2013-01-06 19:16:00,
2013-01-06 14:17:00,40.0,28.8,29.91,WNW,289,0.0,1.0,64,0.00,,FEW060,0.00,VWS V14.01,2013-01-06 19:17:00,
2013-01-06 14:18:00,40.1,29.3,29.91,West,262,1.0,2.0,65,0.00,,FEW060,0.00,VWS V14.01,2013-01-06 19:18:00,
2013-01-06 14:19:00,40.2,29.0,29.91,NW,319,4.0,4.0,64,0.00,,FEW060,0.00,VWS V14.01,2013-01-06 19:19:00,
2013-01-06 14:20:00,40.1,28.9,29.91,West,280,0.0,4.0,64,0.00,,FEW070,0.00,VWS V14.01,2013-01-06 19:20:00,
2013-01-06 14:21:00,40.1,28.9,29.91,West,280,0.0,4.0,64,0.00,,FEW060,0.00,VWS V14.01,2013-01-06 19:21:00,
2013-01-06 14:22:00,40.1,28.9,29.91,West,280,0.0,1.0,64,0.00,,FEW060,0.00,VWS V14.01,2013-01-06 19:22:00,
2013-01-06 14:23:00,40.1,28.9,29.91,West,277,0.0,2.0,64,0.00,,FEW060,0.00,VWS V14.01,2013-01-06 19:23:00,
2013-01-06 14:24:00,40.0,28.8,29.91,West,277,0.0,0.0,64,0.00,,FEW060,0.00,VWS V14.01,2013-01-06 19:24:00,
2013-01-06 14:25:00,40.0,28.8,29.91,West,260,0.0,0.0,64,0.00,,FEW070,0.00,VWS V14.01,2013-01-06 19:25:00,
2013-01-06 14:26:00,40.0,28.8,29.91,West,260,0.0,3.0,64,0.00,,FEW060,0.00,VWS V14.01,2013-01-06 19:26:00,
2013-01-06 14:27:00,40.0,28.8,29.91,West,260,0.0,1.0,64,0.00,,FEW060,0.00,VWS V14.01,2013-01-06 19:27:00,
2013-01-06 14:28:00,40.0,28.8,29.91,West,278,1.0,4.0,64,0.00,,FEW060,0.00,VWS V14.01,2013-01-06 19:28:00,
2013-01-06 14:29:00,39.9,28.3,29.91,WSW,256,0.0,2.0,63,0.00,,FEW060,0.00,VWS V14.01,2013-01-06 19:29:00,
2013-01-06 14:30:00,39.9,28.7,29.91,WNW,289,2.0,2.0,64,0.00,,FEW070,0.00,VWS V14.01,2013-01-06 19:30:00,
2013-01-06 14:31:00,39.9,28.7,29.91,West,276,1.0,1.0,64,0.00,,FEW060,0.00,VWS V14.01,2013-01-06 19:31:00,
2013-01-06 14:32:00,39.9,28.7,29.91,West,259,3.0,3.0,64,0.00,,FEW060,0.00,VWS V14.01,2013-01-06 19:32:00,
2013-01-06 14:33:00,39.9,28.7,29.91,West,281,1.0,4.0,64,0.00,,FEW060,0.00,VWS V14.01,2013-01-06 19:33:00,
2013-01-06 14:35:00,39.9,28.7,29.91,WSW,238,1.0,2.0,64,0.00,,BKN060,0.00,VWS V14.01,2013-01-06 19:35:00,
2013-01-06 14:36:00,39.9,28.7,29.91,WNW,287,2.0,2.0,64,0.00,,FEW060,0.00,VWS V14.01,2013-01-06 19:36:00,
2013-01-06 14:37:00,40.0,28.8,29.91,WNW,287,0.0,2.0,64,0.00,,FEW060,0.00,VWS V14.01,2013-01-06 19:37:00,
2013-01-06 14:38:00,40.0,28.8,29.91,WNW,297,1.0,3.0,64,0.00,,FEW060,0.00,VWS V14.01,2013-01-06 19:38:00,
2013-01-06 14:39:00,40.1,28.9,29.91,West,267,0.0,1.0,64,0.00,,FEW060,0.00,VWS V14.01,2013-01-06 19:39:00,
2013-01-06 14:40:00,40.3,28.7,29.91,WNW,299,2.0,2.0,63,0.00,,BKN060,0.00,VWS V14.01,2013-01-06 19:40:00,
2013-01-06 14:41:00,40.3,29.1,29.91,NW,324,1.0,2.0,64,0.00,,FEW060,0.00,VWS V14.01,2013-01-06 19:41:00,
2013-01-06 14:42:00,40.4,28.8,29.91,West,267,4.0,4.0,63,0.00,,FEW060,0.00,VWS V14.01,2013-01-06 19:42:00,
2013-01-06 14:43:00,40.5,28.9,29.90,West,260,2.0,4.0,63,0.00,,FEW060,0.00,VWS V14.01,2013-01-06 19:43:00,
2013-01-06 14:44:00,40.5,28.9,29.90,WNW,293,0.0,2.0,63,0.00,,FEW060,0.00,VWS V14.01,2013-01-06 19:44:00,
2013-01-06 14:45:00,40.7,28.7,29.90,NNW,345,1.0,2.0,62,0.00,,BKN060,0.00,VWS V14.01,2013-01-06 19:45:00,
2013-01-06 14:47:00,40.8,28.8,29.90,NNE,20,1.0,2.0,62,0.00,,FEW060,0.00,VWS V14.01,2013-01-06 19:47:00,
2013-01-06 14:48:00,40.8,28.8,29.90,WNW,284,2.0,4.0,62,0.00,,FEW060,0.00,VWS V14.01,2013-01-06 19:48:00,
2013-01-06 14:49:00,40.8,28.8,29.90,WNW,284,1.0,2.0,62,0.00,,FEW060,0.00,VWS V14.01,2013-01-06 19:49:00,
2013-01-06 14:50:00,40.9,28.9,29.90,West,277,1.0,3.0,62,0.00,,FEW060,0.00,VWS V14.01,2013-01-06 19:50:00,
2013-01-06 14:51:00,41.0,29.4,29.90,WSW,255,1.0,1.0,63,0.00,,BKN060,0.00,VWS V14.01,2013-01-06 19:51:00,
2013-01-06 14:52:00,41.0,29.4,29.90,WSW,255,1.0,1.0,63,0.00,,FEW060,0.00,VWS V14.01,2013-01-06 19:52:00,
2013-01-06 14:53:00,41.1,29.1,29.90,WSW,250,1.0,2.0,62,0.00,,FEW060,0.00,VWS V14.01,2013-01-06 19:53:00,
2013-01-06 14:54:00,41.2,29.2,29.90,WSW,252,2.0,4.0,62,0.00,,FEW060,0.00,VWS V14.01,2013-01-06 19:54:00,
2013-01-06 14:55:00,41.2,28.8,29.90,WNW,282,2.0,2.0,61,0.00,,FEW060,0.00,VWS V14.01,2013-01-06 19:55:00,
2013-01-06 14:56:00,41.2,28.8,29.90,West,281,1.0,1.0,61,0.00,,BKN060,0.00,VWS V14.01,2013-01-06 19:56:00,
2013-01-06 14:57:00,41.2,28.8,29.90,West,281,0.0,1.0,61,0.00,,FEW060,0.00,VWS V14.01,2013-01-06 19:57:00,
2013-01-06 14:58:00,41.3,29.3,29.90,West,263,1.0,2.0,62,0.00,,FEW060,0.00,VWS V14.01,2013-01-06 19:58:00,
2013-01-06 14:59:00,41.4,29.4,29.90,West,264,1.0,2.0,62,0.00,,FEW060,0.00,VWS V14.01,2013-01-06 19:59:00,
2013-01-06 15:00:00,41.4,29.0,29.90,WSW,252,1.0,2.0,61,0.00,,FEW060,0.00,VWS V14.01,2013-01-06 20:00:00,
2013-01-06 15:01:00,41.4,29.4,29.90,WSW,252,0.0,0.0,62,0.00,,BKN060,0.00,VWS V14.01,2013-01-06 20:01:00,
2013-01-06 15:02:00,41.4,29.4,29.90,WSW,252,0.0,0.0,62,0.00,,FEW060,0.00,VWS V14.01,2013-01-06 20:02:00,
2013-01-06 15:03:00,41.5,29.5,29.90,WSW,243,2.0,2.0,62,0.00,,FEW060,0.00,VWS V14.01,2013-01-06 20:03:00,
2013-01-06 15:04:00,41.5,29.1,29.90,NNW,345,2.0,3.0,61,0.00,,FEW060,0.00,VWS V14.01,2013-01-06 20:04:00,
2013-01-06 15:05:00,41.4,29.0,29.90,NNE,22,0.0,2.0,61,0.00,,FEW060,0.00,VWS V14.01,2013-01-06 20:05:00,
2013-01-06 15:06:00,41.4,29.0,29.90,WSW,257,0.0,1.0,61,0.00,,BKN060,0.00,VWS V14.01,2013-01-06 20:06:00,
2013-01-06 15:07:00,41.4,29.0,29.90,WSW,257,0.0,1.0,61,0.00,,FEW060,0.00,VWS V14.01,2013-01-06 20:07:00,
2013-01-06 15:08:00,41.5,29.5,29.90,WSW,257,0.0,0.0,62,0.00,,FEW060,0.00,VWS V14.01,2013-01-06 20:08:00,
2013-01-06 15:09:00,41.6,29.6,29.90,WSW,257,0.0,0.0,62,0.00,,FEW060,0.00,VWS V14.01,2013-01-06 20:09:00,
2013-01-06 15:10:00,41.7,29.3,29.90,NW,316,1.0,1.0,61,0.00,,FEW060,0.00,VWS V14.01,2013-01-06 20:10:00,
2013-01-06 15:11:00,41.8,29.4,29.90,West,266,0.0,0.0,61,0.00,,BKN060,0.00,VWS V14.01,2013-01-06 20:11:00,
2013-01-06 15:12:00,41.8,29.4,29.90,West,266,0.0,0.0,61,0.00,,FEW060,0.00,VWS V14.01,2013-01-06 20:12:00,
2013-01-06 15:13:00,42.0,29.1,29.90,WSW,256,0.0,1.0,60,0.00,,BKN060,0.00,VWS V14.01,2013-01-06 20:13:00,
2013-01-06 15:14:00,42.0,29.1,29.90,WSW,256,1.0,1.0,60,0.00,,FEW060,0.00,VWS V14.01,2013-01-06 20:14:00,
2013-01-06 15:15:00,42.0,29.1,29.90,WSW,258,1.0,1.0,60,0.00,,FEW060,0.00,VWS V14.01,2013-01-06 20:15:00,
2013-01-06 15:16:00,41.9,29.0,29.90,WSW,256,0.0,1.0,60,0.00,,FEW060,0.00,VWS V14.01,2013-01-06 20:16:00,
2013-01-06 15:17:00,41.8,29.0,29.90,West,260,2.0,2.0,60,0.00,,FEW060,0.00,VWS V14.01,2013-01-06 20:17:00,
2013-01-06 15:18:00,41.6,28.8,29.90,West,266,0.0,0.0,60,0.00,,BKN060,0.00,VWS V14.01,2013-01-06 20:18:00,
2013-01-06 15:19:00,41.6,28.8,29.90,West,266,0.0,1.0,60,0.00,,FEW060,0.00,VWS V14.01,2013-01-06 20:19:00,
2013-01-06 15:20:00,41.6,29.2,29.89,West,265,0.0,0.0,61,0.00,,FEW060,0.00,VWS V14.01,2013-01-06 20:20:00,
2013-01-06 15:21:00,41.6,29.2,29.89,West,266,0.0,0.0,61,0.00,,FEW060,0.00,VWS V14.01,2013-01-06 20:21:00,
2013-01-06 15:22:00,41.6,29.2,29.89,West,265,0.0,1.0,61,0.00,,FEW060,0.00,VWS V14.01,2013-01-06 20:22:00,
2013-01-06 15:23:00,41.6,28.8,29.89,WNW,299,1.0,1.0,60,0.00,,BKN060,0.00,VWS V14.01,2013-01-06 20:23:00,
2013-01-06 15:24:00,41.7,28.9,29.89,WNW,300,1.0,1.0,60,0.00,,FEW060,0.00,VWS V14.01,2013-01-06 20:24:00,
2013-01-06 15:25:00,41.6,28.8,29.89,NW,306,1.0,1.0,60,0.00,,FEW060,0.00,VWS V14.01,2013-01-06 20:25:00,
2013-01-06 15:26:00,41.5,28.7,29.89,NW,310,0.0,1.0,60,0.00,,FEW060,0.00,VWS V14.01,2013-01-06 20:26:00,
2013-01-06 15:27:00,41.5,28.7,29.89,NW,311,0.0,0.0,60,0.00,,FEW060,0.00,VWS V14.01,2013-01-06 20:27:00,
2013-01-06 15:28:00,41.5,28.7,29.89,West,262,0.0,0.0,60,0.00,,BKN060,0.00,VWS V14.01,2013-01-06 20:28:00,
2013-01-06 15:29:00,41.5,29.1,29.89,West,262,0.0,1.0,61,0.00,,FEW060,0.00,VWS V14.01,2013-01-06 20:29:00,
2013-01-06 15:30:00,41.5,28.7,29.89,West,262,0.0,0.0,60,0.00,,FEW060,0.00,VWS V14.01,2013-01-06 20:30:00,
2013-01-06 15:31:00,41.5,29.1,29.89,West,262,0.0,0.0,61,0.00,,FEW060,0.00,VWS V14.01,2013-01-06 20:31:00,
2013-01-06 15:32:00,41.5,28.7,29.89,West,262,0.0,0.0,60,0.00,,FEW060,0.00,VWS V14.01,2013-01-06 20:32:00,
2013-01-06 15:33:00,41.4,28.6,29.89,West,262,0.0,0.0,60,0.00,,FEW060,0.00,VWS V14.01,2013-01-06 20:33:00,
2013-01-06 15:34:00,41.3,28.5,29.89,West,262,0.0,0.0,60,0.00,,BKN060,0.00,VWS V14.01,2013-01-06 20:34:00,
2013-01-06 15:35:00,41.3,28.5,29.89,West,262,0.0,0.0,60,0.00,,FEW060,0.00,VWS V14.01,2013-01-06 20:35:00,
2013-01-06 15:36:00,41.3,28.5,29.89,West,262,0.0,0.0,60,0.00,,FEW060,0.00,VWS V14.01,2013-01-06 20:36:00,
2013-01-06 15:37:00,41.3,28.9,29.89,West,262,0.0,0.0,61,0.00,,FEW060,0.00,VWS V14.01,2013-01-06 20:37:00,
2013-01-06 15:39:00,41.1,28.7,29.89,West,262,0.0,0.0,61,0.00,,BKN060,0.00,VWS V14.01,2013-01-06 20:39:00,
2013-01-06 15:40:00,41.1,28.7,29.89,West,262,0.0,0.0,61,0.00,,FEW060,0.00,VWS V14.01,2013-01-06 20:40:00,
2013-01-06 15:41:00,41.0,28.6,29.89,West,261,0.0,0.0,61,0.00,,FEW060,0.00,VWS V14.01,2013-01-06 20:41:00,
2013-01-06 15:42:00,40.8,28.4,29.89,West,262,0.0,0.0,61,0.00,,FEW060,0.00,VWS V14.01,2013-01-06 20:42:00,
2013-01-06 15:43:00,40.7,28.3,29.89,West,266,0.0,0.0,61,0.00,,FEW060,0.00,VWS V14.01,2013-01-06 20:43:00,
2013-01-06 15:44:00,40.4,28.0,29.89,West,266,0.0,0.0,61,0.00,,BKN060,0.00,VWS V14.01,2013-01-06 20:44:00,
2013-01-06 15:45:00,40.4,28.0,29.89,West,266,0.0,0.0,61,0.00,,FEW060,0.00,VWS V14.01,2013-01-06 20:45:00,
2013-01-06 15:46:00,40.3,28.3,29.89,West,265,0.0,0.0,62,0.00,,FEW060,0.00,VWS V14.01,2013-01-06 20:46:00,
2013-01-06 15:47:00,40.2,28.2,29.89,West,266,0.0,0.0,62,0.00,,FEW060,0.00,VWS V14.01,2013-01-06 20:47:00,
2013-01-06 15:48:00,40.1,28.1,29.89,West,266,0.0,0.0,62,0.00,,FEW060,0.00,VWS V14.01,2013-01-06 20:48:00,
2013-01-06 15:49:00,40.0,28.0,29.89,West,266,0.0,0.0,62,0.00,,BKN060,0.00,VWS V14.01,2013-01-06 20:49:00,
2013-01-06 15:51:00,39.9,28.0,29.89,West,266,0.0,0.0,62,0.00,,FEW060,0.00,VWS V14.01,2013-01-06 20:51:00,
2013-01-06 15:54:00,39.6,28.1,29.90,West,265,0.0,0.0,63,0.00,,BKN060,0.00,VWS V14.01,2013-01-06 20:54:00,
2013-01-06 15:55:00,39.6,28.1,29.90,West,265,0.0,0.0,63,0.00,,FEW060,0.00,VWS V14.01,2013-01-06 20:55:00,
2013-01-06 15:56:00,39.5,28.0,29.89,West,266,0.0,0.0,63,0.00,,FEW060,0.00,VWS V14.01,2013-01-06 20:56:00,
2013-01-06 15:59:00,39.2,28.1,29.90,West,266,0.0,0.0,64,0.00,,BKN060,0.00,VWS V14.01,2013-01-06 20:59:00,
2013-01-06 16:00:00,39.2,28.1,29.89,West,266,0.0,0.0,64,0.00,,FEW060,0.00,VWS V14.01,2013-01-06 21:00:00,
2013-01-06 16:01:00,39.0,27.9,29.90,West,266,0.0,0.0,64,0.00,,BKN060,0.00,VWS V14.01,2013-01-06 21:01:00,
2013-01-06 16:03:00,38.9,27.8,29.90,West,266,0.0,0.0,64,0.00,,FEW060,0.00,VWS V14.01,2013-01-06 21:03:00,
2013-01-06 16:04:00,38.9,27.8,29.89,West,266,0.0,0.0,64,0.00,,FEW060,0.00,VWS V14.01,2013-01-06 21:04:00,
2013-01-06 16:06:00,38.5,27.8,29.90,West,266,0.0,0.0,65,0.00,,BKN060,0.00,VWS V14.01,2013-01-06 21:06:00,
2013-01-06 16:08:00,38.5,27.8,29.90,West,266,0.0,0.0,65,0.00,,FEW060,0.00,VWS V14.01,2013-01-06 21:08:00,
2013-01-06 16:09:00,38.4,28.0,29.90,West,266,0.0,0.0,66,0.00,,FEW060,0.00,VWS V14.01,2013-01-06 21:09:00,
2013-01-06 16:10:00,38.3,28.0,29.90,West,266,0.0,0.0,66,0.00,,FEW060,0.00,VWS V14.01,2013-01-06 21:10:00,
2013-01-06 16:11:00,38.1,27.8,29.90,West,266,0.0,0.0,66,0.00,,BKN060,0.00,VWS V14.01,2013-01-06 21:11:00,
2013-01-06 16:12:00,38.1,27.8,29.90,West,266,0.0,0.0,66,0.00,,FEW060,0.00,VWS V14.01,2013-01-06 21:12:00,
2013-01-06 16:13:00,38.1,28.1,29.90,West,266,0.0,0.0,67,0.00,,FEW060,0.00,VWS V14.01,2013-01-06 21:13:00,
2013-01-06 16:14:00,38.0,28.0,29.90,West,266,0.0,0.0,67,0.00,,FEW060,0.00,VWS V14.01,2013-01-06 21:14:00,
2013-01-06 16:15:00,38.0,28.0,29.90,West,266,0.0,0.0,67,0.00,,FEW060,0.00,VWS V14.01,2013-01-06 21:15:00,
2013-01-06 16:16:00,37.9,27.9,29.90,West,266,0.0,0.0,67,0.00,,BKN060,0.00,VWS V14.01,2013-01-06 21:16:00,
2013-01-06 16:17:00,37.9,27.9,29.90,West,266,0.0,0.0,67,0.00,,FEW060,0.00,VWS V14.01,2013-01-06 21:17:00,
2013-01-06 16:18:00,37.9,28.3,29.90,West,266,0.0,0.0,68,0.00,,FEW060,0.00,VWS V14.01,2013-01-06 21:18:00,
2013-01-06 16:19:00,37.9,28.3,29.90,West,266,0.0,0.0,68,0.00,,FEW060,0.00,VWS V14.01,2013-01-06 21:19:00,
2013-01-06 16:20:00,37.8,28.2,29.90,West,266,0.0,0.0,68,0.00,,FEW060,0.00,VWS V14.01,2013-01-06 21:20:00,
2013-01-06 16:21:00,37.8,28.6,29.90,West,266,0.0,0.0,69,0.00,,FEW060,0.00,VWS V14.01,2013-01-06 21:21:00,
2013-01-06 16:22:00,37.7,28.5,29.90,West,266,0.0,0.0,69,0.00,,BKN060,0.00,VWS V14.01,2013-01-06 21:22:00,
2013-01-06 16:23:00,37.7,28.5,29.90,West,266,0.0,0.0,69,0.00,,FEW060,0.00,VWS V14.01,2013-01-06 21:23:00,
2013-01-06 16:24:00,37.6,28.4,29.90,West,266,0.0,0.0,69,0.00,,FEW060,0.00,VWS V14.01,2013-01-06 21:24:00,
2013-01-06 16:25:00,37.5,28.6,29.90,West,266,0.0,0.0,70,0.00,,FEW060,0.00,VWS V14.01,2013-01-06 21:25:00,
2013-01-06 16:26:00,37.5,28.6,29.90,West,266,0.0,0.0,70,0.00,,FEW060,0.00,VWS V14.01,2013-01-06 21:26:00,
2013-01-06 16:27:00,37.3,28.4,29.90,West,266,0.0,0.0,70,0.00,,BKN060,0.00,VWS V14.01,2013-01-06 21:27:00,
2013-01-06 16:28:00,37.3,28.4,29.90,West,266,0.0,0.0,70,0.00,,FEW060,0.00,VWS V14.01,2013-01-06 21:28:00,
2013-01-06 16:29:00,37.2,28.3,29.90,West,266,0.0,0.0,70,0.00,,FEW060,0.00,VWS V14.01,2013-01-06 21:29:00,
2013-01-06 16:32:00,36.9,28.4,29.91,WSW,247,1.0,2.0,71,0.00,,SCT060,0.00,VWS V14.01,2013-01-06 21:32:00,
2013-01-06 16:33:00,36.9,28.4,29.91,WSW,249,1.0,2.0,71,0.00,,FEW060,0.00,VWS V14.01,2013-01-06 21:33:00,
2013-01-06 16:34:00,36.8,28.3,29.91,WSW,249,0.0,1.0,71,0.00,,FEW060,0.00,VWS V14.01,2013-01-06 21:34:00,
2013-01-06 16:35:00,36.8,28.3,29.90,WSW,249,0.0,0.0,71,0.00,,FEW060,0.00,VWS V14.01,2013-01-06 21:35:00,
2013-01-06 16:36:00,36.7,28.2,29.91,WSW,249,0.0,0.0,71,0.00,,FEW060,0.00,VWS V14.01,2013-01-06 21:36:00,
2013-01-06 16:37:00,36.5,28.0,29.91,WSW,249,0.0,0.0,71,0.00,,SCT060,0.00,VWS V14.01,2013-01-06 21:37:00,
2013-01-06 16:38:00,36.5,28.0,29.91,WSW,249,0.0,0.0,71,0.00,,FEW060,0.00,VWS V14.01,2013-01-06 21:38:00,
2013-01-06 16:39:00,36.5,28.0,29.91,WSW,249,0.0,0.0,71,0.00,,FEW060,0.00,VWS V14.01,2013-01-06 21:39:00,
2013-01-06 16:40:00,36.4,28.2,29.91,WSW,249,0.0,0.0,72,0.00,,FEW060,0.00,VWS V14.01,2013-01-06 21:40:00,
2013-01-06 16:41:00,36.4,28.2,29.91,West,261,1.0,1.0,72,0.00,,FEW060,0.00,VWS V14.01,2013-01-06 21:41:00,
2013-01-06 16:42:00,36.4,28.2,29.91,West,262,0.0,0.0,72,0.00,,SCT060,0.00,VWS V14.01,2013-01-06 21:42:00,
2013-01-06 16:43:00,36.4,28.2,29.91,West,262,0.0,0.0,72,0.00,,FEW060,0.00,VWS V14.01,2013-01-06 21:43:00,
2013-01-06 16:44:00,36.3,28.1,29.91,WSW,253,0.0,1.0,72,0.00,,FEW060,0.00,VWS V14.01,2013-01-06 21:44:00,
2013-01-06 16:45:00,36.3,28.1,29.91,WSW,249,0.0,0.0,72,0.00,,FEW060,0.00,VWS V14.01,2013-01-06 21:45:00,
2013-01-06 16:46:00,36.3,28.1,29.91,WSW,249,0.0,1.0,72,0.00,,FEW060,0.00,VWS V14.01,2013-01-06 21:46:00,
2013-01-06 16:47:00,36.2,28.1,29.91,WSW,249,0.0,0.0,72,0.00,,SCT060,0.00,VWS V14.01,2013-01-06 21:47:00,
2013-01-06 16:48:00,36.2,28.1,29.91,WSW,249,0.0,0.0,72,0.00,,FEW060,0.00,VWS V14.01,2013-01-06 21:48:00,
2013-01-06 16:49:00,36.2,28.1,29.91,WSW,249,0.0,0.0,72,0.00,,FEW060,0.00,VWS V14.01,2013-01-06 21:49:00,
2013-01-06 16:50:00,36.1,28.0,29.91,WSW,249,0.0,0.0,72,0.00,,FEW060,0.00,VWS V14.01,2013-01-06 21:50:00,
2013-01-06 16:52:00,36.1,28.0,29.91,WSW,249,0.0,1.0,72,0.00,,SCT060,0.00,VWS V14.01,2013-01-06 21:52:00,
2013-01-06 16:53:00,36.1,28.0,29.91,WSW,249,0.0,1.0,72,0.00,,FEW060,0.00,VWS V14.01,2013-01-06 21:53:00,
2013-01-06 16:54:00,36.1,28.3,29.91,WSW,249,0.0,0.0,73,0.00,,FEW060,0.00,VWS V14.01,2013-01-06 21:54:00,
2013-01-06 16:55:00,36.0,28.2,29.91,WSW,249,0.0,0.0,73,0.00,,FEW060,0.00,VWS V14.01,2013-01-06 21:55:00,
2013-01-06 16:56:00,36.0,27.9,29.91,WSW,249,0.0,0.0,72,0.00,,FEW060,0.00,VWS V14.01,2013-01-06 21:56:00,
2013-01-06 16:57:00,35.9,27.8,29.91,WSW,249,0.0,0.0,72,0.00,,SCT060,0.00,VWS V14.01,2013-01-06 21:57:00,
2013-01-06 16:58:00,36.0,27.9,29.91,WSW,249,0.0,0.0,72,0.00,,FEW060,0.00,VWS V14.01,2013-01-06 21:58:00,
2013-01-06 16:59:00,35.9,27.8,29.91,WSW,249,0.0,0.0,72,0.00,,FEW060,0.00,VWS V14.01,2013-01-06 21:59:00,
2013-01-06 17:00:00,35.9,27.8,29.91,WSW,249,0.0,0.0,72,0.00,,FEW060,0.00,VWS V14.01,2013-01-06 22:00:00,
2013-01-06 17:01:00,35.9,27.8,29.91,WSW,249,0.0,0.0,72,0.00,,FEW060,0.00,VWS V14.01,2013-01-06 22:01:00,
2013-01-06 17:02:00,35.7,27.6,29.91,WSW,249,0.0,0.0,72,0.00,,SCT060,0.00,VWS V14.01,2013-01-06 22:02:00,
2013-01-06 17:03:00,35.8,27.7,29.91,WSW,249,0.0,0.0,72,0.00,,FEW060,0.00,VWS V14.01,2013-01-06 22:03:00,
2013-01-06 17:04:00,35.7,27.6,29.91,WSW,249,0.0,0.0,72,0.00,,FEW060,0.00,VWS V14.01,2013-01-06 22:04:00,
2013-01-06 17:05:00,35.6,27.5,29.91,WSW,249,0.0,0.0,72,0.00,,FEW060,0.00,VWS V14.01,2013-01-06 22:05:00,
2013-01-06 17:06:00,35.5,27.4,29.91,WSW,249,0.0,0.0,72,0.00,,FEW060,0.00,VWS V14.01,2013-01-06 22:06:00,
2013-01-06 17:07:00,35.3,27.5,29.91,WSW,249,0.0,0.0,73,0.00,,SCT060,0.00,VWS V14.01,2013-01-06 22:07:00,
2013-01-06 17:08:00,35.3,27.5,29.91,WSW,249,0.0,0.0,73,0.00,,FEW060,0.00,VWS V14.01,2013-01-06 22:08:00,
2013-01-06 17:09:00,35.2,27.4,29.91,WSW,249,0.0,0.0,73,0.00,,FEW060,0.00,VWS V14.01,2013-01-06 22:09:00,
2013-01-06 17:10:00,35.2,27.8,29.91,WSW,249,0.0,0.0,74,0.00,,FEW060,0.00,VWS V14.01,2013-01-06 22:10:00,
2013-01-06 17:11:00,35.1,27.7,29.91,WSW,249,0.0,0.0,74,0.00,,FEW060,0.00,VWS V14.01,2013-01-06 22:11:00,
2013-01-06 17:12:00,35.2,27.8,29.91,WSW,249,0.0,0.0,74,0.00,,SCT060,0.00,VWS V14.01,2013-01-06 22:12:00,
2013-01-06 17:13:00,35.2,27.8,29.91,WSW,249,0.0,0.0,74,0.00,,FEW060,0.00,VWS V14.01,2013-01-06 22:13:00,
2013-01-06 17:14:00,35.2,27.8,29.91,WSW,249,0.0,0.0,74,0.00,,FEW060,0.00,VWS V14.01,2013-01-06 22:14:00,
2013-01-06 17:15:00,35.2,27.8,29.91,WSW,249,0.0,0.0,74,0.00,,FEW060,0.00,VWS V14.01,2013-01-06 22:15:00,
2013-01-06 17:16:00,35.2,27.8,29.91,WSW,249,0.0,0.0,74,0.00,,FEW060,0.00,VWS V14.01,2013-01-06 22:16:00,
2013-01-06 17:17:00,35.2,27.8,29.91,WSW,249,0.0,0.0,74,0.00,,FEW060,0.00,VWS V14.01,2013-01-06 22:17:00,
2013-01-06 17:18:00,35.3,27.9,29.91,WSW,249,0.0,0.0,74,0.00,,SCT060,0.00,VWS V14.01,2013-01-06 22:18:00,
2013-01-06 17:19:00,35.3,27.9,29.91,WSW,249,0.0,0.0,74,0.00,,FEW060,0.00,VWS V14.01,2013-01-06 22:19:00,
2013-01-06 17:20:00,35.2,27.8,29.91,WSW,249,0.0,0.0,74,0.00,,FEW060,0.00,VWS V14.01,2013-01-06 22:20:00,
2013-01-06 17:21:00,35.2,27.8,29.91,WSW,249,0.0,0.0,74,0.00,,FEW060,0.00,VWS V14.01,2013-01-06 22:21:00,
2013-01-06 17:22:00,35.2,27.8,29.91,WSW,252,0.0,0.0,74,0.00,,FEW060,0.00,VWS V14.01,2013-01-06 22:22:00,
2013-01-06 17:23:00,35.1,27.7,29.91,WSW,252,0.0,0.0,74,0.00,,SCT060,0.00,VWS V14.01,2013-01-06 22:23:00,
2013-01-06 17:24:00,35.1,27.7,29.91,WSW,252,0.0,0.0,74,0.00,,FEW060,0.00,VWS V14.01,2013-01-06 22:24:00,
2013-01-06 17:25:00,35.1,27.7,29.91,WSW,252,0.0,0.0,74,0.00,,FEW060,0.00,VWS V14.01,2013-01-06 22:25:00,
2013-01-06 17:26:00,35.1,27.7,29.91,WSW,248,0.0,0.0,74,0.00,,FEW060,0.00,VWS V14.01,2013-01-06 22:26:00,
2013-01-06 17:27:00,35.1,27.7,29.91,WSW,248,0.0,0.0,74,0.00,,FEW060,0.00,VWS V14.01,2013-01-06 22:27:00,
2013-01-06 17:28:00,35.1,27.7,29.91,WSW,248,0.0,0.0,74,0.00,,SCT060,0.00,VWS V14.01,2013-01-06 22:28:00,
2013-01-06 17:29:00,35.1,27.7,29.91,WSW,248,0.0,0.0,74,0.00,,FEW060,0.00,VWS V14.01,2013-01-06 22:29:00,
2013-01-06 17:30:00,35.1,27.7,29.91,WSW,248,0.0,0.0,74,0.00,,FEW060,0.00,VWS V14.01,2013-01-06 22:30:00,
2013-01-06 17:31:00,35.1,27.7,29.91,WSW,247,0.0,0.0,74,0.00,,FEW060,0.00,VWS V14.01,2013-01-06 22:31:00,
2013-01-06 17:32:00,35.2,27.8,29.91,WSW,248,0.0,0.0,74,0.00,,FEW060,0.00,VWS V14.01,2013-01-06 22:32:00,
2013-01-06 17:33:00,35.2,27.8,29.91,WSW,248,0.0,0.0,74,0.00,,SCT060,0.00,VWS V14.01,2013-01-06 22:33:00,
2013-01-06 17:34:00,35.2,27.8,29.91,WSW,248,0.0,0.0,74,0.00,,FEW060,0.00,VWS V14.01,2013-01-06 22:34:00,
2013-01-06 17:35:00,35.1,27.7,29.91,WSW,247,0.0,0.0,74,0.00,,FEW060,0.00,VWS V14.01,2013-01-06 22:35:00,
2013-01-06 17:36:00,35.1,27.7,29.92,WSW,248,0.0,0.0,74,0.00,,FEW060,0.00,VWS V14.01,2013-01-06 22:36:00,
2013-01-06 17:37:00,35.1,27.7,29.91,WSW,248,0.0,0.0,74,0.00,,FEW060,0.00,VWS V14.01,2013-01-06 22:37:00,
2013-01-06 17:38:00,35.0,27.6,29.92,WSW,248,0.0,0.0,74,0.00,,SCT060,0.00,VWS V14.01,2013-01-06 22:38:00,
2013-01-06 17:39:00,35.0,27.6,29.92,WSW,248,0.0,0.0,74,0.00,,FEW060,0.00,VWS V14.01,2013-01-06 22:39:00,
2013-01-06 17:40:00,35.0,27.6,29.92,WSW,248,0.0,0.0,74,0.00,,FEW060,0.00,VWS V14.01,2013-01-06 22:40:00,
2013-01-06 17:41:00,34.9,27.5,29.92,WSW,248,0.0,0.0,74,0.00,,FEW060,0.00,VWS V14.01,2013-01-06 22:41:00,
2013-01-06 17:42:00,34.9,27.5,29.91,WSW,248,0.0,0.0,74,0.00,,FEW060,0.00,VWS V14.01,2013-01-06 22:42:00,
2013-01-06 17:43:00,34.7,27.3,29.92,WSW,248,0.0,0.0,74,0.00,,SCT060,0.00,VWS V14.01,2013-01-06 22:43:00,
2013-01-06 17:44:00,34.7,27.3,29.92,WSW,248,0.0,0.0,74,0.00,,FEW060,0.00,VWS V14.01,2013-01-06 22:44:00,
2013-01-06 17:45:00,34.7,27.6,29.91,WSW,247,0.0,0.0,75,0.00,,FEW060,0.00,VWS V14.01,2013-01-06 22:45:00,
2013-01-06 17:47:00,34.6,27.5,29.92,WSW,248,0.0,0.0,75,0.00,,FEW060,0.00,VWS V14.01,2013-01-06 22:47:00,
2013-01-06 17:48:00,34.5,27.4,29.92,WSW,248,0.0,0.0,75,0.00,,SCT060,0.00,VWS V14.01,2013-01-06 22:48:00,
2013-01-06 17:49:00,34.5,27.4,29.91,WSW,247,0.0,0.0,75,0.00,,FEW060,0.00,VWS V14.01,2013-01-06 22:49:00,
2013-01-06 17:50:00,34.4,27.3,29.92,WSW,248,0.0,0.0,75,0.00,,FEW060,0.00,VWS V14.01,2013-01-06 22:50:00,
2013-01-06 17:51:00,34.4,27.6,29.92,WSW,247,0.0,0.0,76,0.00,,FEW060,0.00,VWS V14.01,2013-01-06 22:51:00,
2013-01-06 17:52:00,34.3,27.5,29.92,WSW,247,0.0,0.0,76,0.00,,FEW060,0.00,VWS V14.01,2013-01-06 22:52:00,
2013-01-06 17:53:00,34.3,27.5,29.92,WSW,248,0.0,0.0,76,0.00,,SCT060,0.00,VWS V14.01,2013-01-06 22:53:00,
2013-01-06 17:54:00,34.3,27.5,29.92,WSW,247,0.0,0.0,76,0.00,,FEW060,0.00,VWS V14.01,2013-01-06 22:54:00,
2013-01-06 17:55:00,34.3,27.5,29.92,WSW,248,0.0,0.0,76,0.00,,FEW060,0.00,VWS V14.01,2013-01-06 22:55:00,
2013-01-06 17:56:00,34.2,27.4,29.92,WSW,248,0.0,0.0,76,0.00,,FEW060,0.00,VWS V14.01,2013-01-06 22:56:00,
2013-01-06 17:57:00,34.1,27.3,29.92,WSW,248,0.0,0.0,76,0.00,,FEW060,0.00,VWS V14.01,2013-01-06 22:57:00,
2013-01-06 17:58:00,34.0,27.2,29.92,WSW,248,0.0,0.0,76,0.00,,SCT060,0.00,VWS V14.01,2013-01-06 22:58:00,
2013-01-06 17:59:00,34.0,27.2,29.92,WSW,248,0.0,0.0,76,0.00,,FEW060,0.00,VWS V14.01,2013-01-06 22:59:00,
2013-01-06 18:00:00,33.9,27.1,29.92,WSW,248,0.0,0.0,76,0.00,,FEW060,0.00,VWS V14.01,2013-01-06 23:00:00,
2013-01-06 18:01:00,33.9,27.1,29.92,WSW,248,0.0,0.0,76,0.00,,FEW060,0.00,VWS V14.01,2013-01-06 23:01:00,
2013-01-06 18:02:00,33.8,27.0,29.92,WSW,248,0.0,0.0,76,0.00,,FEW060,0.00,VWS V14.01,2013-01-06 23:02:00,
2013-01-06 18:03:00,33.7,27.3,29.92,WSW,247,0.0,0.0,77,0.00,,FEW060,0.00,VWS V14.01,2013-01-06 23:03:00,
2013-01-06 18:04:00,33.7,27.3,29.92,WSW,248,0.0,0.0,77,0.00,,SCT060,0.00,VWS V14.01,2013-01-06 23:04:00,
2013-01-06 18:05:00,33.6,27.2,29.92,WSW,248,0.0,0.0,77,0.00,,FEW060,0.00,VWS V14.01,2013-01-06 23:05:00,
2013-01-06 18:06:00,33.6,27.2,29.92,WSW,247,0.0,0.0,77,0.00,,FEW060,0.00,VWS V14.01,2013-01-06 23:06:00,
2013-01-06 18:07:00,33.5,27.1,29.92,WSW,247,0.0,0.0,77,0.00,,FEW060,0.00,VWS V14.01,2013-01-06 23:07:00,
2013-01-06 18:08:00,33.5,27.1,29.92,WSW,248,0.0,0.0,77,0.00,,FEW060,0.00,VWS V14.01,2013-01-06 23:08:00,
2013-01-06 18:09:00,33.4,27.0,29.92,WSW,247,0.0,0.0,77,0.00,,SCT060,0.00,VWS V14.01,2013-01-06 23:09:00,
2013-01-06 18:10:00,33.4,27.0,29.92,WSW,247,0.0,0.0,77,0.00,,FEW060,0.00,VWS V14.01,2013-01-06 23:10:00,
2013-01-06 18:11:00,33.3,26.9,29.92,WSW,248,0.0,0.0,77,0.00,,FEW060,0.00,VWS V14.01,2013-01-06 23:11:00,
2013-01-06 18:12:00,33.3,26.9,29.92,WSW,248,0.0,0.0,77,0.00,,FEW060,0.00,VWS V14.01,2013-01-06 23:12:00,
2013-01-06 18:13:00,33.2,26.8,29.92,WSW,248,0.0,0.0,77,0.00,,FEW060,0.00,VWS V14.01,2013-01-06 23:13:00,
2013-01-06 18:14:00,33.0,26.6,29.92,WSW,248,0.0,0.0,77,0.00,,SCT060,0.00,VWS V14.01,2013-01-06 23:14:00,
2013-01-06 18:15:00,33.0,26.6,29.92,WSW,248,0.0,0.0,77,0.00,,FEW060,0.00,VWS V14.01,2013-01-06 23:15:00,
2013-01-06 18:16:00,32.9,26.5,29.92,WSW,248,0.0,0.0,77,0.00,,FEW060,0.00,VWS V14.01,2013-01-06 23:16:00,
2013-01-06 18:17:00,32.8,26.4,29.92,WSW,248,0.0,0.0,77,0.00,,FEW060,0.00,VWS V14.01,2013-01-06 23:17:00,
2013-01-06 18:18:00,32.8,26.4,29.91,WSW,248,0.0,0.0,77,0.00,,FEW060,0.00,VWS V14.01,2013-01-06 23:18:00,
2013-01-06 18:19:00,32.7,26.3,29.91,WSW,248,0.0,0.0,77,0.00,,SCT060,0.00,VWS V14.01,2013-01-06 23:19:00,
2013-01-06 18:20:00,32.7,26.3,29.91,WSW,248,0.0,0.0,77,0.00,,FEW060,0.00,VWS V14.01,2013-01-06 23:20:00,
2013-01-06 18:21:00,32.6,26.5,29.91,WSW,248,0.0,0.0,78,0.00,,FEW060,0.00,VWS V14.01,2013-01-06 23:21:00,
2013-01-06 18:22:00,32.6,26.5,29.91,WSW,248,0.0,0.0,78,0.00,,FEW060,0.00,VWS V14.01,2013-01-06 23:22:00,
2013-01-06 18:23:00,32.6,26.5,29.91,WSW,247,0.0,0.0,78,0.00,,FEW060,0.00,VWS V14.01,2013-01-06 23:23:00,
2013-01-06 18:24:00,32.7,26.9,29.91,WSW,248,0.0,0.0,79,0.00,,SCT060,0.00,VWS V14.01,2013-01-06 23:24:00,
2013-01-06 18:26:00,32.7,26.9,29.91,WSW,248,0.0,0.0,79,0.00,,FEW060,0.00,VWS V14.01,2013-01-06 23:26:00,
2013-01-06 18:27:00,32.6,26.8,29.91,WSW,248,0.0,0.0,79,0.00,,FEW060,0.00,VWS V14.01,2013-01-06 23:27:00,
2013-01-06 18:28:00,32.6,26.8,29.91,WSW,247,0.0,0.0,79,0.00,,FEW060,0.00,VWS V14.01,2013-01-06 23:28:00,
2013-01-06 18:29:00,32.5,26.7,29.92,WSW,248,0.0,0.0,79,0.00,,SCT060,0.00,VWS V14.01,2013-01-06 23:29:00,
2013-01-06 18:31:00,32.5,26.7,29.92,WSW,248,0.0,0.0,79,0.00,,FEW060,0.00,VWS V14.01,2013-01-06 23:31:00,
2013-01-06 18:32:00,32.4,26.6,29.92,WSW,248,0.0,0.0,79,0.00,,FEW060,0.00,VWS V14.01,2013-01-06 23:32:00,
2013-01-06 18:33:00,32.4,26.6,29.92,WSW,248,0.0,0.0,79,0.00,,FEW060,0.00,VWS V14.01,2013-01-06 23:33:00,
2013-01-06 18:34:00,32.3,26.5,29.92,WSW,248,0.0,0.0,79,0.00,,SCT080,0.00,VWS V14.01,2013-01-06 23:34:00,
2013-01-06 18:35:00,32.3,26.5,29.92,WSW,248,0.0,0.0,79,0.00,,FEW060,0.00,VWS V14.01,2013-01-06 23:35:00,
2013-01-06 18:36:00,32.3,26.5,29.91,WSW,248,0.0,0.0,79,0.00,,FEW060,0.00,VWS V14.01,2013-01-06 23:36:00,
2013-01-06 18:37:00,32.3,26.8,29.91,WSW,248,0.0,0.0,80,0.00,,FEW060,0.00,VWS V14.01,2013-01-06 23:37:00,
2013-01-06 18:38:00,32.2,26.7,29.91,WSW,247,0.0,0.0,80,0.00,,FEW060,0.00,VWS V14.01,2013-01-06 23:38:00,
2013-01-06 18:39:00,32.1,26.9,29.91,WSW,248,0.0,0.0,81,0.00,,SCT080,0.00,VWS V14.01,2013-01-06 23:39:00,
2013-01-06 18:40:00,32.1,26.9,29.91,WSW,248,0.0,0.0,81,0.00,,FEW060,0.00,VWS V14.01,2013-01-06 23:40:00,
2013-01-06 18:41:00,32.1,26.9,29.91,WSW,248,0.0,0.0,81,0.00,,FEW060,0.00,VWS V14.01,2013-01-06 23:41:00,
2013-01-06 18:42:00,32.0,26.8,29.91,WSW,248,0.0,0.0,81,0.00,,FEW060,0.00,VWS V14.01,2013-01-06 23:42:00,
2013-01-06 18:43:00,32.0,26.8,29.91,WSW,248,0.0,0.0,81,0.00,,FEW060,0.00,VWS V14.01,2013-01-06 23:43:00,
2013-01-06 18:44:00,31.9,27.0,29.91,WSW,249,0.0,0.0,82,0.00,,SCT080,0.00,VWS V14.01,2013-01-06 23:44:00,
2013-01-06 18:46:00,31.9,27.0,29.92,WSW,249,0.0,0.0,82,0.00,,FEW060,0.00,VWS V14.01,2013-01-06 23:46:00,
2013-01-06 18:47:00,32.0,27.1,29.92,WSW,250,0.0,0.0,82,0.00,,FEW060,0.00,VWS V14.01,2013-01-06 23:47:00,
2013-01-06 18:48:00,32.0,27.1,29.92,WSW,250,0.0,0.0,82,0.00,,FEW060,0.00,VWS V14.01,2013-01-06 23:48:00,
2013-01-06 18:49:00,32.2,27.3,29.92,WSW,250,0.0,0.0,82,0.00,,SCT080,0.00,VWS V14.01,2013-01-06 23:49:00,
2013-01-06 18:50:00,32.2,27.3,29.92,WSW,250,0.0,0.0,82,0.00,,FEW060,0.00,VWS V14.01,2013-01-06 23:50:00,
2013-01-06 18:51:00,32.3,27.4,29.92,WSW,250,0.0,0.0,82,0.00,,FEW060,0.00,VWS V14.01,2013-01-06 23:51:00,
2013-01-06 18:52:00,32.4,27.2,29.92,WSW,250,0.0,0.0,81,0.00,,FEW060,0.00,VWS V14.01,2013-01-06 23:52:00,
2013-01-06 18:54:00,32.5,27.3,29.92,WSW,250,0.0,0.0,81,0.00,,SCT080,0.00,VWS V14.01,2013-01-06 23:54:00,
2013-01-06 18:55:00,32.5,27.3,29.92,WSW,250,0.0,0.0,81,0.00,,FEW060,0.00,VWS V14.01,2013-01-06 23:55:00,
2013-01-06 18:57:00,32.6,27.4,29.92,WSW,250,0.0,0.0,81,0.00,,FEW060,0.00,VWS V14.01,2013-01-06 23:57:00,
2013-01-06 18:58:00,32.6,27.1,29.92,WSW,250,0.0,0.0,80,0.00,,FEW060,0.00,VWS V14.01,2013-01-06 23:58:00,
2013-01-06 18:59:00,32.7,27.2,29.92,WSW,250,0.0,0.0,80,0.00,,SCT080,0.00,VWS V14.01,2013-01-06 23:59:00,
2013-01-06 19:00:00,32.7,27.2,29.92,WSW,250,0.0,0.0,80,0.00,,FEW060,0.00,VWS V14.01,2013-01-07 00:00:00,
2013-01-06 19:01:00,32.8,27.3,29.92,WSW,250,0.0,0.0,80,0.00,,FEW060,0.00,VWS V14.01,2013-01-07 00:01:00,
2013-01-06 19:02:00,32.9,27.4,29.92,WSW,250,0.0,0.0,80,0.00,,FEW060,0.00,VWS V14.01,2013-01-07 00:02:00,
2013-01-06 19:03:00,32.9,27.4,29.92,WSW,250,0.0,0.0,80,0.00,,FEW060,0.00,VWS V14.01,2013-01-07 00:03:00,
2013-01-06 19:04:00,33.1,27.3,29.92,WSW,250,0.0,0.0,79,0.00,,SCT080,0.00,VWS V14.01,2013-01-07 00:04:00,
2013-01-06 19:05:00,33.1,27.3,29.92,WSW,250,0.0,0.0,79,0.00,,FEW060,0.00,VWS V14.01,2013-01-07 00:05:00,
2013-01-06 19:06:00,33.2,27.4,29.92,WSW,250,0.0,0.0,79,0.00,,FEW060,0.00,VWS V14.01,2013-01-07 00:06:00,
2013-01-06 19:07:00,33.3,27.5,29.92,WSW,250,0.0,0.0,79,0.00,,FEW060,0.00,VWS V14.01,2013-01-07 00:07:00,
2013-01-06 19:08:00,33.3,27.5,29.92,WSW,250,0.0,0.0,79,0.00,,FEW060,0.00,VWS V14.01,2013-01-07 00:08:00,
2013-01-06 19:09:00,33.4,27.6,29.92,WSW,250,0.0,0.0,79,0.00,,BKN110,0.00,VWS V14.01,2013-01-07 00:09:00,
2013-01-06 19:10:00,33.4,27.6,29.92,WSW,250,0.0,0.0,79,0.00,,FEW060,0.00,VWS V14.01,2013-01-07 00:10:00,
2013-01-06 19:11:00,33.5,27.4,29.92,WSW,250,0.0,0.0,78,0.00,,FEW060,0.00,VWS V14.01,2013-01-07 00:11:00,
2013-01-06 19:12:00,33.5,27.4,29.92,WSW,250,0.0,0.0,78,0.00,,FEW060,0.00,VWS V14.01,2013-01-07 00:12:00,
2013-01-06 19:13:00,33.5,27.4,29.92,WSW,250,0.0,0.0,78,0.00,,FEW060,0.00,VWS V14.01,2013-01-07 00:13:00,
2013-01-06 19:14:00,33.6,27.5,29.92,WSW,250,0.0,0.0,78,0.00,,BKN110,0.00,VWS V14.01,2013-01-07 00:14:00,
2013-01-06 19:15:00,33.6,27.5,29.92,WSW,250,0.0,0.0,78,0.00,,FEW060,0.00,VWS V14.01,2013-01-07 00:15:00,
2013-01-06 19:16:00,33.5,27.4,29.92,WSW,250,0.0,0.0,78,0.00,,FEW060,0.00,VWS V14.01,2013-01-07 00:16:00,
2013-01-06 19:17:00,33.6,27.5,29.92,WSW,250,0.0,0.0,78,0.00,,FEW060,0.00,VWS V14.01,2013-01-07 00:17:00,
2013-01-06 19:18:00,33.6,27.5,29.92,WSW,250,0.0,0.0,78,0.00,,FEW060,0.00,VWS V14.01,2013-01-07 00:18:00,
2013-01-06 19:19:00,33.6,27.5,29.92,WSW,250,0.0,0.0,78,0.00,,BKN110,0.00,VWS V14.01,2013-01-07 00:19:00,
2013-01-06 19:20:00,33.6,27.5,29.92,WSW,250,0.0,0.0,78,0.00,,FEW060,0.00,VWS V14.01,2013-01-07 00:20:00,
2013-01-06 19:21:00,33.6,27.5,29.92,WSW,250,0.0,0.0,78,0.00,,FEW060,0.00,VWS V14.01,2013-01-07 00:21:00,
2013-01-06 19:22:00,33.6,27.5,29.92,WSW,250,0.0,0.0,78,0.00,,FEW060,0.00,VWS V14.01,2013-01-07 00:22:00,
2013-01-06 19:23:00,33.6,27.5,29.92,WSW,250,0.0,0.0,78,0.00,,FEW060,0.00,VWS V14.01,2013-01-07 00:23:00,
2013-01-06 19:24:00,33.6,27.5,29.92,WSW,250,0.0,0.0,78,0.00,,BKN110,0.00,VWS V14.01,2013-01-07 00:24:00,
2013-01-06 19:25:00,33.6,27.5,29.92,WSW,250,0.0,0.0,78,0.00,,FEW060,0.00,VWS V14.01,2013-01-07 00:25:00,
2013-01-06 19:26:00,33.7,27.6,29.92,WSW,250,0.0,0.0,78,0.00,,FEW060,0.00,VWS V14.01,2013-01-07 00:26:00,
2013-01-06 19:27:00,33.7,27.6,29.92,WSW,250,0.0,0.0,78,0.00,,FEW060,0.00,VWS V14.01,2013-01-07 00:27:00,
2013-01-06 19:29:00,33.7,27.6,29.92,WSW,250,0.0,0.0,78,0.00,,BKN110,0.00,VWS V14.01,2013-01-07 00:29:00,
2013-01-06 19:30:00,33.7,27.6,29.92,WSW,250,0.0,0.0,78,0.00,,FEW060,0.00,VWS V14.01,2013-01-07 00:30:00,
2013-01-06 19:31:00,33.7,27.6,29.92,WSW,250,0.0,0.0,78,0.00,,FEW060,0.00,VWS V14.01,2013-01-07 00:31:00,
2013-01-06 19:32:00,33.7,27.6,29.92,WSW,250,0.0,0.0,78,0.00,,FEW060,0.00,VWS V14.01,2013-01-07 00:32:00,
2013-01-06 19:33:00,33.7,27.6,29.92,WSW,250,0.0,0.0,78,0.00,,FEW060,0.00,VWS V14.01,2013-01-07 00:33:00,
2013-01-06 19:34:00,33.8,27.7,29.92,WSW,250,1.0,1.0,78,0.00,,BKN110,0.00,VWS V14.01,2013-01-07 00:34:00,
2013-01-06 19:35:00,33.8,27.7,29.92,WSW,250,1.0,1.0,78,0.00,,FEW060,0.00,VWS V14.01,2013-01-07 00:35:00,
2013-01-06 19:36:00,33.8,27.7,29.92,WSW,250,0.0,1.0,78,0.00,,FEW060,0.00,VWS V14.01,2013-01-07 00:36:00,
2013-01-06 19:37:00,33.8,27.7,29.92,WSW,250,0.0,1.0,78,0.00,,FEW060,0.00,VWS V14.01,2013-01-07 00:37:00,
2013-01-06 19:38:00,33.8,27.7,29.92,WSW,249,0.0,0.0,78,0.00,,FEW060,0.00,VWS V14.01,2013-01-07 00:38:00,
2013-01-06 19:39:00,33.9,27.8,29.93,WSW,250,0.0,0.0,78,0.00,,BKN110,0.00,VWS V14.01,2013-01-07 00:39:00,
2013-01-06 19:40:00,33.9,27.8,29.92,WSW,250,0.0,0.0,78,0.00,,FEW060,0.00,VWS V14.01,2013-01-07 00:40:00,
2013-01-06 19:41:00,33.9,27.8,29.92,WSW,250,0.0,0.0,78,0.00,,FEW060,0.00,VWS V14.01,2013-01-07 00:41:00,
2013-01-06 19:42:00,33.9,27.8,29.92,WSW,250,0.0,0.0,78,0.00,,FEW060,0.00,VWS V14.01,2013-01-07 00:42:00,
2013-01-06 19:43:00,34.0,27.9,29.92,WSW,250,0.0,0.0,78,0.00,,FEW060,0.00,VWS V14.01,2013-01-07 00:43:00,
2013-01-06 19:44:00,34.0,27.9,29.93,WSW,250,0.0,1.0,78,0.00,,BKN110,0.00,VWS V14.01,2013-01-07 00:44:00,
2013-01-06 19:45:00,34.0,27.9,29.92,WSW,250,0.0,1.0,78,0.00,,FEW060,0.00,VWS V14.01,2013-01-07 00:45:00,
2013-01-06 19:46:00,34.0,27.9,29.93,WSW,250,0.0,0.0,78,0.00,,FEW060,0.00,VWS V14.01,2013-01-07 00:46:00,
2013-01-06 19:47:00,34.0,27.9,29.93,WSW,250,0.0,0.0,78,0.00,,FEW060,0.00,VWS V14.01,2013-01-07 00:47:00,
2013-01-06 19:48:00,34.0,27.9,29.93,WSW,250,0.0,1.0,78,0.00,,FEW060,0.00,VWS V14.01,2013-01-07 00:48:00,
2013-01-06 19:49:00,34.0,27.9,29.93,WSW,250,0.0,1.0,78,0.00,,BKN110,0.00,VWS V14.01,2013-01-07 00:49:00,
2013-01-06 19:50:00,34.0,27.9,29.92,WSW,250,0.0,1.0,78,0.00,,FEW060,0.00,VWS V14.01,2013-01-07 00:50:00,
2013-01-06 19:51:00,34.1,28.0,29.93,WSW,250,0.0,0.0,78,0.00,,FEW060,0.00,VWS V14.01,2013-01-07 00:51:00,
2013-01-06 19:52:00,34.1,28.0,29.92,WSW,250,0.0,0.0,78,0.00,,FEW060,0.00,VWS V14.01,2013-01-07 00:52:00,
2013-01-06 19:53:00,34.1,27.7,29.93,WSW,250,0.0,0.0,77,0.00,,FEW060,0.00,VWS V14.01,2013-01-07 00:53:00,
2013-01-06 19:54:00,34.1,27.7,29.93,WSW,250,0.0,0.0,77,0.00,,BKN110,0.00,VWS V14.01,2013-01-07 00:54:00,
2013-01-06 19:56:00,34.1,27.7,29.93,WSW,250,0.0,0.0,77,0.00,,FEW060,0.00,VWS V14.01,2013-01-07 00:56:00,
2013-01-06 19:57:00,34.1,27.7,29.93,WSW,250,0.0,0.0,77,0.00,,FEW060,0.00,VWS V14.01,2013-01-07 00:57:00,
2013-01-06 19:58:00,34.1,27.7,29.93,WSW,250,0.0,0.0,77,0.00,,FEW060,0.00,VWS V14.01,2013-01-07 00:58:00,
2013-01-06 19:59:00,34.1,27.7,29.93,WSW,250,0.0,0.0,77,0.00,,BKN110,0.00,VWS V14.01,2013-01-07 00:59:00,
2013-01-06 20:00:00,34.1,27.7,29.93,WSW,250,0.0,0.0,77,0.00,,FEW060,0.00,VWS V14.01,2013-01-07 01:00:00,
2013-01-06 20:01:00,34.1,27.7,29.93,WSW,250,0.0,0.0,77,0.00,,FEW060,0.00,VWS V14.01,2013-01-07 01:01:00,
2013-01-06 20:02:00,34.1,27.7,29.93,WSW,250,0.0,0.0,77,0.00,,FEW060,0.00,VWS V14.01,2013-01-07 01:02:00,
2013-01-06 20:03:00,34.1,27.7,29.93,WSW,250,0.0,0.0,77,0.00,,FEW060,0.00,VWS V14.01,2013-01-07 01:03:00,
2013-01-06 20:04:00,34.1,27.7,29.93,WSW,250,0.0,0.0,77,0.00,,BKN110,0.00,VWS V14.01,2013-01-07 01:04:00,
2013-01-06 20:05:00,34.1,27.7,29.93,WSW,250,0.0,0.0,77,0.00,,FEW060,0.00,VWS V14.01,2013-01-07 01:05:00,
2013-01-06 20:06:00,34.1,27.7,29.93,WSW,250,0.0,0.0,77,0.00,,FEW060,0.00,VWS V14.01,2013-01-07 01:06:00,
2013-01-06 20:07:00,34.1,27.7,29.93,WSW,250,0.0,0.0,77,0.00,,FEW060,0.00,VWS V14.01,2013-01-07 01:07:00,
2013-01-06 20:08:00,34.1,27.7,29.93,WSW,250,0.0,0.0,77,0.00,,FEW060,0.00,VWS V14.01,2013-01-07 01:08:00,
2013-01-06 20:09:00,34.1,27.7,29.93,WSW,250,0.0,0.0,77,0.00,,BKN110,0.00,VWS V14.01,2013-01-07 01:09:00,
2013-01-06 20:10:00,34.1,27.7,29.92,WSW,250,0.0,0.0,77,0.00,,FEW060,0.00,VWS V14.01,2013-01-07 01:10:00,
2013-01-06 20:11:00,34.1,27.7,29.93,WSW,250,0.0,0.0,77,0.00,,FEW060,0.00,VWS V14.01,2013-01-07 01:11:00,
2013-01-06 20:12:00,34.1,27.7,29.93,WSW,250,0.0,0.0,77,0.00,,FEW060,0.00,VWS V14.01,2013-01-07 01:12:00,
2013-01-06 20:13:00,34.1,27.7,29.93,WSW,250,0.0,0.0,77,0.00,,FEW060,0.00,VWS V14.01,2013-01-07 01:13:00,
2013-01-06 20:14:00,34.1,27.7,29.93,WSW,250,0.0,0.0,77,0.00,,BKN110,0.00,VWS V14.01,2013-01-07 01:14:00,
2013-01-06 20:15:00,34.1,27.7,29.93,WSW,250,0.0,0.0,77,0.00,,FEW060,0.00,VWS V14.01,2013-01-07 01:15:00,
2013-01-06 20:16:00,34.1,27.7,29.93,WSW,250,0.0,0.0,77,0.00,,FEW060,0.00,VWS V14.01,2013-01-07 01:16:00,
2013-01-06 20:17:00,34.1,27.7,29.93,WSW,250,0.0,0.0,77,0.00,,FEW060,0.00,VWS V14.01,2013-01-07 01:17:00,
2013-01-06 20:18:00,34.1,27.7,29.93,WSW,250,0.0,0.0,77,0.00,,FEW060,0.00,VWS V14.01,2013-01-07 01:18:00,
2013-01-06 20:19:00,34.1,27.7,29.93,WSW,250,0.0,0.0,77,0.00,,BKN110,0.00,VWS V14.01,2013-01-07 01:19:00,
2013-01-06 20:20:00,34.1,27.7,29.93,WSW,250,0.0,0.0,77,0.00,,FEW060,0.00,VWS V14.01,2013-01-07 01:20:00,
2013-01-06 20:21:00,34.0,27.6,29.92,WSW,250,0.0,0.0,77,0.00,,FEW060,0.00,VWS V14.01,2013-01-07 01:21:00,
2013-01-06 20:22:00,34.0,27.6,29.92,WSW,250,0.0,0.0,77,0.00,,FEW060,0.00,VWS V14.01,2013-01-07 01:22:00,
2013-01-06 20:23:00,34.0,27.6,29.93,WSW,250,0.0,0.0,77,0.00,,FEW060,0.00,VWS V14.01,2013-01-07 01:23:00,
2013-01-06 20:24:00,34.0,27.9,29.93,WSW,250,0.0,0.0,78,0.00,,BKN110,0.00,VWS V14.01,2013-01-07 01:24:00,
2013-01-06 20:25:00,34.0,27.9,29.93,WSW,250,0.0,0.0,78,0.00,,FEW060,0.00,VWS V14.01,2013-01-07 01:25:00,
2013-01-06 20:26:00,34.0,27.9,29.93,WSW,250,0.0,0.0,78,0.00,,FEW060,0.00,VWS V14.01,2013-01-07 01:26:00,
2013-01-06 20:27:00,34.0,27.9,29.93,WSW,250,0.0,1.0,78,0.00,,FEW060,0.00,VWS V14.01,2013-01-07 01:27:00,
2013-01-06 20:28:00,34.0,27.9,29.93,WSW,250,0.0,0.0,78,0.00,,FEW060,0.00,VWS V14.01,2013-01-07 01:28:00,
2013-01-06 20:29:00,34.0,27.9,29.93,WSW,250,0.0,0.0,78,0.00,,BKN110,0.00,VWS V14.01,2013-01-07 01:29:00,
2013-01-06 20:30:00,34.0,27.9,29.93,WSW,250,0.0,0.0,78,0.00,,FEW060,0.00,VWS V14.01,2013-01-07 01:30:00,
2013-01-06 20:31:00,34.0,27.9,29.93,WSW,250,0.0,0.0,78,0.00,,FEW060,0.00,VWS V14.01,2013-01-07 01:31:00,
2013-01-06 20:32:00,34.0,27.9,29.93,WSW,250,0.0,1.0,78,0.00,,FEW060,0.00,VWS V14.01,2013-01-07 01:32:00,
2013-01-06 20:33:00,34.0,27.9,29.93,WSW,250,0.0,0.0,78,0.00,,FEW060,0.00,VWS V14.01,2013-01-07 01:33:00,
2013-01-06 20:34:00,34.0,27.9,29.93,WSW,250,0.0,0.0,78,0.00,,OVC070,0.00,VWS V14.01,2013-01-07 01:34:00,
2013-01-06 20:35:00,34.0,27.9,29.93,WSW,250,0.0,0.0,78,0.00,,FEW060,0.00,VWS V14.01,2013-01-07 01:35:00,
2013-01-06 20:36:00,34.0,27.9,29.93,WSW,250,0.0,0.0,78,0.00,,FEW060,0.00,VWS V14.01,2013-01-07 01:36:00,
2013-01-06 20:37:00,34.0,27.9,29.93,WSW,250,0.0,0.0,78,0.00,,FEW060,0.00,VWS V14.01,2013-01-07 01:37:00,
2013-01-06 20:38:00,34.0,27.9,29.93,WSW,250,0.0,0.0,78,0.00,,FEW060,0.00,VWS V14.01,2013-01-07 01:38:00,
2013-01-06 20:39:00,33.9,27.8,29.93,WSW,250,0.0,0.0,78,0.00,,OVC070,0.00,VWS V14.01,2013-01-07 01:39:00,
2013-01-06 20:40:00,33.9,27.8,29.93,WSW,250,0.0,0.0,78,0.00,,FEW060,0.00,VWS V14.01,2013-01-07 01:40:00,
2013-01-06 20:41:00,33.9,27.8,29.92,WSW,250,0.0,0.0,78,0.00,,FEW060,0.00,VWS V14.01,2013-01-07 01:41:00,
2013-01-06 20:42:00,33.9,27.8,29.93,WSW,250,0.0,0.0,78,0.00,,FEW060,0.00,VWS V14.01,2013-01-07 01:42:00,
2013-01-06 20:43:00,34.0,27.9,29.93,WSW,250,0.0,0.0,78,0.00,,FEW060,0.00,VWS V14.01,2013-01-07 01:43:00,
2013-01-06 20:44:00,34.0,27.9,29.93,WSW,250,0.0,0.0,78,0.00,,OVC070,0.00,VWS V14.01,2013-01-07 01:44:00,
2013-01-06 20:45:00,34.0,27.9,29.92,WSW,250,0.0,0.0,78,0.00,,FEW060,0.00,VWS V14.01,2013-01-07 01:45:00,
2013-01-06 20:46:00,34.0,27.9,29.92,WSW,250,0.0,0.0,78,0.00,,FEW060,0.00,VWS V14.01,2013-01-07 01:46:00,
2013-01-06 20:47:00,34.0,27.6,29.92,WSW,250,0.0,0.0,77,0.00,,FEW060,0.00,VWS V14.01,2013-01-07 01:47:00,
2013-01-06 20:48:00,34.0,27.6,29.92,WSW,250,0.0,0.0,77,0.00,,FEW060,0.00,VWS V14.01,2013-01-07 01:48:00,
2013-01-06 20:49:00,34.1,27.7,29.92,WSW,250,0.0,0.0,77,0.00,,OVC070,0.00,VWS V14.01,2013-01-07 01:49:00,
2013-01-06 20:50:00,34.1,27.7,29.92,WSW,250,0.0,0.0,77,0.00,,FEW060,0.00,VWS V14.01,2013-01-07 01:50:00,
2013-01-06 20:51:00,34.1,28.0,29.92,WSW,250,0.0,0.0,78,0.00,,FEW060,0.00,VWS V14.01,2013-01-07 01:51:00,
2013-01-06 20:52:00,34.1,27.7,29.92,WSW,250,0.0,0.0,77,0.00,,FEW060,0.00,VWS V14.01,2013-01-07 01:52:00,
2013-01-06 20:53:00,34.1,27.7,29.92,WSW,250,0.0,0.0,77,0.00,,FEW060,0.00,VWS V14.01,2013-01-07 01:53:00,
2013-01-06 20:54:00,34.1,27.7,29.92,WSW,250,0.0,0.0,77,0.00,,OVC070,0.00,VWS V14.01,2013-01-07 01:54:00,
2013-01-06 20:55:00,34.1,27.7,29.92,WSW,250,0.0,0.0,77,0.00,,FEW060,0.00,VWS V14.01,2013-01-07 01:55:00,
2013-01-06 20:56:00,34.0,27.6,29.92,WSW,250,0.0,0.0,77,0.00,,FEW060,0.00,VWS V14.01,2013-01-07 01:56:00,
2013-01-06 20:57:00,34.0,27.6,29.92,WSW,250,0.0,0.0,77,0.00,,FEW060,0.00,VWS V14.01,2013-01-07 01:57:00,
2013-01-06 20:58:00,34.0,27.6,29.92,WSW,250,0.0,0.0,77,0.00,,FEW060,0.00,VWS V14.01,2013-01-07 01:58:00,
2013-01-06 20:59:00,34.1,27.7,29.92,WSW,250,0.0,0.0,77,0.00,,OVC070,0.00,VWS V14.01,2013-01-07 01:59:00,
2013-01-06 21:00:00,34.1,27.7,29.92,WSW,250,0.0,0.0,77,0.00,,FEW060,0.00,VWS V14.01,2013-01-07 02:00:00,
2013-01-06 21:01:00,34.0,27.6,29.92,WSW,250,0.0,0.0,77,0.00,,FEW060,0.00,VWS V14.01,2013-01-07 02:01:00,
2013-01-06 21:02:00,34.0,27.6,29.92,WSW,250,0.0,0.0,77,0.00,,FEW060,0.00,VWS V14.01,2013-01-07 02:02:00,
2013-01-06 21:03:00,34.0,27.6,29.92,WSW,250,0.0,0.0,77,0.00,,FEW060,0.00,VWS V14.01,2013-01-07 02:03:00,
2013-01-06 21:04:00,34.0,27.6,29.92,WSW,243,1.0,1.0,77,0.00,,OVC070,0.00,VWS V14.01,2013-01-07 02:04:00,
2013-01-06 21:05:00,34.0,27.6,29.92,WSW,243,1.0,1.0,77,0.00,,FEW060,0.00,VWS V14.01,2013-01-07 02:05:00,
2013-01-06 21:06:00,34.1,27.7,29.92,WSW,249,0.0,1.0,77,0.00,,FEW060,0.00,VWS V14.01,2013-01-07 02:06:00,
2013-01-06 21:07:00,34.0,27.6,29.92,WSW,249,0.0,0.0,77,0.00,,FEW060,0.00,VWS V14.01,2013-01-07 02:07:00,
2013-01-06 21:08:00,34.0,27.6,29.92,WSW,249,0.0,0.0,77,0.00,,FEW060,0.00,VWS V14.01,2013-01-07 02:08:00,
2013-01-06 21:09:00,34.0,27.6,29.92,WSW,249,0.0,0.0,77,0.00,,OVC070,0.00,VWS V14.01,2013-01-07 02:09:00,
2013-01-06 21:10:00,34.0,27.6,29.92,WSW,249,0.0,0.0,77,0.00,,FEW060,0.00,VWS V14.01,2013-01-07 02:10:00,
2013-01-06 21:11:00,34.0,27.9,29.92,WSW,249,0.0,0.0,78,0.00,,FEW060,0.00,VWS V14.01,2013-01-07 02:11:00,
2013-01-06 21:12:00,33.9,27.8,29.92,WSW,249,0.0,0.0,78,0.00,,FEW060,0.00,VWS V14.01,2013-01-07 02:12:00,
2013-01-06 21:13:00,33.9,27.8,29.92,WSW,249,0.0,0.0,78,0.00,,FEW060,0.00,VWS V14.01,2013-01-07 02:13:00,
2013-01-06 21:14:00,33.9,27.8,29.92,WSW,249,0.0,0.0,78,0.00,,OVC070,0.00,VWS V14.01,2013-01-07 02:14:00,
2013-01-06 21:15:00,33.9,27.8,29.92,WSW,249,0.0,0.0,78,0.00,,FEW060,0.00,VWS V14.01,2013-01-07 02:15:00,
2013-01-06 21:16:00,33.9,27.8,29.92,WSW,249,0.0,1.0,78,0.00,,FEW060,0.00,VWS V14.01,2013-01-07 02:16:00,
2013-01-06 21:17:00,33.8,27.7,29.92,WSW,249,0.0,1.0,78,0.00,,FEW060,0.00,VWS V14.01,2013-01-07 02:17:00,
2013-01-06 21:18:00,33.8,27.7,29.92,WSW,249,0.0,0.0,78,0.00,,FEW060,0.00,VWS V14.01,2013-01-07 02:18:00,
2013-01-06 21:19:00,33.8,27.7,29.92,WSW,249,0.0,1.0,78,0.00,,OVC070,0.00,VWS V14.01,2013-01-07 02:19:00,
2013-01-06 21:20:00,33.8,27.7,29.92,WSW,249,0.0,1.0,78,0.00,,FEW060,0.00,VWS V14.01,2013-01-07 02:20:00,
2013-01-06 21:21:00,33.8,27.7,29.92,WSW,249,0.0,0.0,78,0.00,,FEW060,0.00,VWS V14.01,2013-01-07 02:21:00,
2013-01-06 21:22:00,33.8,27.7,29.92,WSW,249,0.0,0.0,78,0.00,,FEW060,0.00,VWS V14.01,2013-01-07 02:22:00,
2013-01-06 21:23:00,33.8,27.7,29.92,WSW,249,0.0,0.0,78,0.00,,FEW060,0.00,VWS V14.01,2013-01-07 02:23:00,
2013-01-06 21:24:00,33.8,27.7,29.92,WSW,249,0.0,1.0,78,0.00,,OVC070,0.00,VWS V14.01,2013-01-07 02:24:00,
2013-01-06 21:25:00,33.8,27.7,29.92,WSW,249,0.0,1.0,78,0.00,,FEW060,0.00,VWS V14.01,2013-01-07 02:25:00,
2013-01-06 21:26:00,33.7,27.6,29.92,WSW,249,0.0,0.0,78,0.00,,FEW060,0.00,VWS V14.01,2013-01-07 02:26:00,
2013-01-06 21:27:00,33.7,27.6,29.92,WSW,249,0.0,0.0,78,0.00,,FEW060,0.00,VWS V14.01,2013-01-07 02:27:00,
2013-01-06 21:28:00,33.7,27.6,29.92,WSW,249,0.0,0.0,78,0.00,,FEW060,0.00,VWS V14.01,2013-01-07 02:28:00,
2013-01-06 21:29:00,33.7,27.6,29.92,WSW,249,0.0,0.0,78,0.00,,OVC070,0.00,VWS V14.01,2013-01-07 02:29:00,
2013-01-06 21:30:00,33.7,27.6,29.92,WSW,249,0.0,0.0,78,0.00,,FEW060,0.00,VWS V14.01,2013-01-07 02:30:00,
2013-01-06 21:31:00,33.6,27.5,29.92,WSW,249,0.0,0.0,78,0.00,,FEW060,0.00,VWS V14.01,2013-01-07 02:31:00,
2013-01-06 21:32:00,33.6,27.5,29.92,WSW,249,0.0,1.0,78,0.00,,FEW060,0.00,VWS V14.01,2013-01-07 02:32:00,
2013-01-06 21:33:00,33.6,27.5,29.92,WSW,249,0.0,0.0,78,0.00,,FEW060,0.00,VWS V14.01,2013-01-07 02:33:00,
2013-01-06 21:34:00,33.6,27.5,29.92,WSW,249,0.0,1.0,78,0.00,,OVC070,0.00,VWS V14.01,2013-01-07 02:34:00,
2013-01-06 21:35:00,33.6,27.5,29.92,WSW,249,0.0,1.0,78,0.00,,FEW060,0.00,VWS V14.01,2013-01-07 02:35:00,
2013-01-06 21:36:00,33.6,27.5,29.92,WSW,249,0.0,0.0,78,0.00,,FEW060,0.00,VWS V14.01,2013-01-07 02:36:00,
2013-01-06 21:37:00,33.6,27.5,29.92,WSW,249,0.0,0.0,78,0.00,,FEW060,0.00,VWS V14.01,2013-01-07 02:37:00,
2013-01-06 21:38:00,33.5,27.4,29.92,WSW,249,0.0,0.0,78,0.00,,FEW060,0.00,VWS V14.01,2013-01-07 02:38:00,
2013-01-06 21:39:00,33.5,27.4,29.92,WSW,249,0.0,0.0,78,0.00,,OVC070,0.00,VWS V14.01,2013-01-07 02:39:00,
2013-01-06 21:40:00,33.5,27.4,29.92,WSW,249,0.0,0.0,78,0.00,,FEW060,0.00,VWS V14.01,2013-01-07 02:40:00,
2013-01-06 21:41:00,33.5,27.4,29.92,WSW,249,0.0,0.0,78,0.00,,FEW060,0.00,VWS V14.01,2013-01-07 02:41:00,
2013-01-06 21:42:00,33.5,27.4,29.92,WSW,249,0.0,0.0,78,0.00,,FEW060,0.00,VWS V14.01,2013-01-07 02:42:00,
2013-01-06 21:43:00,33.4,27.3,29.92,WSW,249,0.0,0.0,78,0.00,,FEW060,0.00,VWS V14.01,2013-01-07 02:43:00,
2013-01-06 21:44:00,33.4,27.3,29.92,WSW,249,0.0,0.0,78,0.00,,OVC070,0.00,VWS V14.01,2013-01-07 02:44:00,
2013-01-06 21:45:00,33.4,27.3,29.92,WSW,249,0.0,0.0,78,0.00,,FEW060,0.00,VWS V14.01,2013-01-07 02:45:00,
2013-01-06 21:46:00,33.3,27.2,29.92,WSW,249,0.0,0.0,78,0.00,,FEW060,0.00,VWS V14.01,2013-01-07 02:46:00,
2013-01-06 21:47:00,33.3,27.5,29.92,WSW,249,0.0,0.0,79,0.00,,FEW060,0.00,VWS V14.01,2013-01-07 02:47:00,
2013-01-06 21:48:00,33.3,27.5,29.92,WSW,249,0.0,0.0,79,0.00,,FEW060,0.00,VWS V14.01,2013-01-07 02:48:00,
2013-01-06 21:49:00,33.3,27.5,29.92,WSW,249,0.0,0.0,79,0.00,,OVC070,0.00,VWS V14.01,2013-01-07 02:49:00,
2013-01-06 21:50:00,33.3,27.5,29.92,WSW,249,0.0,0.0,79,0.00,,FEW060,0.00,VWS V14.01,2013-01-07 02:50:00,
2013-01-06 21:51:00,33.3,27.5,29.92,WSW,249,0.0,0.0,79,0.00,,FEW060,0.00,VWS V14.01,2013-01-07 02:51:00,
2013-01-06 21:52:00,33.2,27.4,29.92,WSW,249,0.0,0.0,79,0.00,,FEW060,0.00,VWS V14.01,2013-01-07 02:52:00,
2013-01-06 21:53:00,33.2,27.4,29.92,WSW,249,0.0,0.0,79,0.00,,FEW060,0.00,VWS V14.01,2013-01-07 02:53:00,
2013-01-06 21:54:00,33.1,27.3,29.92,WSW,249,0.0,0.0,79,0.00,,OVC070,0.00,VWS V14.01,2013-01-07 02:54:00,
2013-01-06 21:55:00,33.1,27.3,29.92,WSW,249,0.0,0.0,79,0.00,,FEW060,0.00,VWS V14.01,2013-01-07 02:55:00,
2013-01-06 21:56:00,33.1,27.3,29.91,WSW,249,0.0,0.0,79,0.00,,FEW060,0.00,VWS V14.01,2013-01-07 02:56:00,
2013-01-06 21:57:00,33.1,27.3,29.91,WSW,249,0.0,0.0,79,0.00,,FEW060,0.00,VWS V14.01,2013-01-07 02:57:00,
2013-01-06 21:58:00,33.1,27.3,29.92,WSW,249,0.0,0.0,79,0.00,,FEW060,0.00,VWS V14.01,2013-01-07 02:58:00,
2013-01-06 21:59:00,33.0,27.2,29.91,WSW,249,0.0,0.0,79,0.00,,OVC070,0.00,VWS V14.01,2013-01-07 02:59:00,
2013-01-06 22:00:00,33.0,27.2,29.91,WSW,249,0.0,0.0,79,0.00,,FEW060,0.00,VWS V14.01,2013-01-07 03:00:00,
2013-01-06 22:01:00,33.0,27.2,29.91,WSW,249,0.0,0.0,79,0.00,,FEW060,0.00,VWS V14.01,2013-01-07 03:01:00,
2013-01-06 22:02:00,33.0,27.2,29.91,WSW,249,0.0,0.0,79,0.00,,FEW060,0.00,VWS V14.01,2013-01-07 03:02:00,
2013-01-06 22:03:00,33.0,27.2,29.91,WSW,249,0.0,0.0,79,0.00,,FEW060,0.00,VWS V14.01,2013-01-07 03:03:00,
2013-01-06 22:04:00,32.9,27.1,29.92,WSW,249,0.0,0.0,79,0.00,,OVC070,0.00,VWS V14.01,2013-01-07 03:04:00,
2013-01-06 22:05:00,32.9,27.1,29.92,WSW,249,0.0,0.0,79,0.00,,FEW060,0.00,VWS V14.01,2013-01-07 03:05:00,
2013-01-06 22:06:00,32.9,27.1,29.91,WSW,249,0.0,0.0,79,0.00,,FEW060,0.00,VWS V14.01,2013-01-07 03:06:00,
2013-01-06 22:07:00,32.9,27.1,29.91,WSW,249,0.0,0.0,79,0.00,,FEW060,0.00,VWS V14.01,2013-01-07 03:07:00,
2013-01-06 22:08:00,32.8,27.0,29.92,WSW,249,0.0,0.0,79,0.00,,FEW060,0.00,VWS V14.01,2013-01-07 03:08:00,
2013-01-06 22:09:00,32.8,27.0,29.92,WSW,249,0.0,0.0,79,0.00,,OVC070,0.00,VWS V14.01,2013-01-07 03:09:00,
2013-01-06 22:10:00,32.8,27.0,29.92,WSW,249,0.0,0.0,79,0.00,,FEW060,0.00,VWS V14.01,2013-01-07 03:10:00,
2013-01-06 22:11:00,32.8,27.0,29.92,WSW,249,0.0,0.0,79,0.00,,FEW060,0.00,VWS V14.01,2013-01-07 03:11:00,
2013-01-06 22:12:00,32.7,27.2,29.92,WSW,249,0.0,0.0,80,0.00,,FEW060,0.00,VWS V14.01,2013-01-07 03:12:00,
2013-01-06 22:13:00,32.7,27.2,29.92,WSW,249,0.0,0.0,80,0.00,,FEW060,0.00,VWS V14.01,2013-01-07 03:13:00,
2013-01-06 22:14:00,32.7,27.2,29.92,WSW,249,0.0,0.0,80,0.00,,OVC070,0.00,VWS V14.01,2013-01-07 03:14:00,
2013-01-06 22:15:00,32.7,27.2,29.92,WSW,249,0.0,0.0,80,0.00,,FEW060,0.00,VWS V14.01,2013-01-07 03:15:00,
2013-01-06 22:16:00,32.6,27.1,29.92,WSW,249,0.0,0.0,80,0.00,,FEW060,0.00,VWS V14.01,2013-01-07 03:16:00,
2013-01-06 22:17:00,32.6,27.1,29.92,WSW,249,0.0,0.0,80,0.00,,FEW060,0.00,VWS V14.01,2013-01-07 03:17:00,
2013-01-06 22:18:00,32.6,27.1,29.92,WSW,249,0.0,0.0,80,0.00,,FEW060,0.00,VWS V14.01,2013-01-07 03:18:00,
2013-01-06 22:19:00,32.6,27.1,29.92,WSW,246,0.0,1.0,80,0.00,,OVC070,0.00,VWS V14.01,2013-01-07 03:19:00,
2013-01-06 22:20:00,32.6,27.1,29.92,WSW,246,0.0,1.0,80,0.00,,FEW060,0.00,VWS V14.01,2013-01-07 03:20:00,
2013-01-06 22:21:00,32.6,27.1,29.92,WSW,245,0.0,1.0,80,0.00,,FEW060,0.00,VWS V14.01,2013-01-07 03:21:00,
2013-01-06 22:22:00,32.6,27.1,29.92,WSW,255,0.0,1.0,80,0.00,,FEW060,0.00,VWS V14.01,2013-01-07 03:22:00,
2013-01-06 22:23:00,32.5,27.0,29.92,WSW,255,0.0,0.0,80,0.00,,FEW060,0.00,VWS V14.01,2013-01-07 03:23:00,
2013-01-06 22:24:00,32.5,27.0,29.92,WSW,255,1.0,1.0,80,0.00,,OVC070,0.00,VWS V14.01,2013-01-07 03:24:00,
2013-01-06 22:25:00,32.5,27.0,29.92,WSW,255,1.0,1.0,80,0.00,,FEW060,0.00,VWS V14.01,2013-01-07 03:25:00,
2013-01-06 22:26:00,32.5,27.0,29.92,WSW,253,1.0,1.0,80,0.00,,FEW060,0.00,VWS V14.01,2013-01-07 03:26:00,
2013-01-06 22:27:00,32.5,27.0,29.92,WSW,252,0.0,1.0,80,0.00,,FEW060,0.00,VWS V14.01,2013-01-07 03:27:00,
2013-01-06 22:28:00,32.5,27.0,29.92,WSW,249,1.0,1.0,80,0.00,,FEW060,0.00,VWS V14.01,2013-01-07 03:28:00,
2013-01-06 22:29:00,32.5,27.0,29.92,WSW,250,0.0,1.0,80,0.00,,OVC070,0.00,VWS V14.01,2013-01-07 03:29:00,
2013-01-06 22:30:00,32.5,27.0,29.92,WSW,250,0.0,1.0,80,0.00,,FEW060,0.00,VWS V14.01,2013-01-07 03:30:00,
2013-01-06 22:31:00,32.5,27.0,29.92,WSW,250,0.0,1.0,80,0.00,,FEW060,0.00,VWS V14.01,2013-01-07 03:31:00,
2013-01-06 22:32:00,32.5,27.0,29.92,WSW,250,0.0,0.0,80,0.00,,FEW060,0.00,VWS V14.01,2013-01-07 03:32:00,
2013-01-06 22:33:00,32.5,27.0,29.92,WSW,250,0.0,0.0,80,0.00,,FEW060,0.00,VWS V14.01,2013-01-07 03:33:00,
2013-01-06 22:34:00,32.4,26.9,29.92,WSW,250,0.0,1.0,80,0.00,,BKN100,0.00,VWS V14.01,2013-01-07 03:34:00,
2013-01-06 22:35:00,32.4,26.9,29.92,WSW,250,0.0,1.0,80,0.00,,FEW060,0.00,VWS V14.01,2013-01-07 03:35:00,
2013-01-06 22:36:00,32.4,26.9,29.92,WSW,250,0.0,1.0,80,0.00,,FEW060,0.00,VWS V14.01,2013-01-07 03:36:00,
2013-01-06 22:37:00,32.4,26.9,29.92,WSW,250,0.0,1.0,80,0.00,,FEW060,0.00,VWS V14.01,2013-01-07 03:37:00,
2013-01-06 22:38:00,32.4,26.9,29.92,WSW,250,0.0,1.0,80,0.00,,FEW060,0.00,VWS V14.01,2013-01-07 03:38:00,
2013-01-06 22:39:00,32.4,26.9,29.92,WSW,250,1.0,1.0,80,0.00,,BKN100,0.00,VWS V14.01,2013-01-07 03:39:00,
2013-01-06 22:40:00,32.4,26.9,29.92,WSW,250,1.0,1.0,80,0.00,,FEW060,0.00,VWS V14.01,2013-01-07 03:40:00,
2013-01-06 22:41:00,32.5,27.0,29.92,SW,235,0.0,1.0,80,0.00,,FEW060,0.00,VWS V14.01,2013-01-07 03:41:00,
2013-01-06 22:42:00,32.5,27.3,29.92,WSW,248,0.0,1.0,81,0.00,,FEW060,0.00,VWS V14.01,2013-01-07 03:42:00,
2013-01-06 22:43:00,32.5,27.3,29.92,WSW,248,0.0,0.0,81,0.00,,FEW060,0.00,VWS V14.01,2013-01-07 03:43:00,
2013-01-06 22:44:00,32.6,27.1,29.92,WSW,248,0.0,0.0,80,0.00,,BKN100,0.00,VWS V14.01,2013-01-07 03:44:00,
2013-01-06 22:45:00,32.6,27.1,29.92,WSW,248,0.0,0.0,80,0.00,,FEW060,0.00,VWS V14.01,2013-01-07 03:45:00,
2013-01-06 22:46:00,32.5,27.0,29.92,WSW,248,0.0,0.0,80,0.00,,FEW060,0.00,VWS V14.01,2013-01-07 03:46:00,
2013-01-06 22:47:00,32.5,27.0,29.92,WSW,249,0.0,0.0,80,0.00,,FEW060,0.00,VWS V14.01,2013-01-07 03:47:00,
2013-01-06 22:48:00,32.6,27.1,29.92,WSW,250,0.0,0.0,80,0.00,,FEW060,0.00,VWS V14.01,2013-01-07 03:48:00,
2013-01-06 22:49:00,32.6,27.1,29.92,WSW,250,0.0,1.0,80,0.00,,BKN100,0.00,VWS V14.01,2013-01-07 03:49:00,
2013-01-06 22:50:00,32.6,27.1,29.92,WSW,250,0.0,1.0,80,0.00,,FEW060,0.00,VWS V14.01,2013-01-07 03:50:00,
2013-01-06 22:51:00,32.7,27.2,29.92,WSW,249,1.0,1.0,80,0.00,,FEW060,0.00,VWS V14.01,2013-01-07 03:51:00,
2013-01-06 22:52:00,32.7,27.2,29.92,WSW,249,0.0,1.0,80,0.00,,FEW060,0.00,VWS V14.01,2013-01-07 03:52:00,
2013-01-06 22:53:00,32.7,27.2,29.92,WSW,249,1.0,1.0,80,0.00,,FEW060,0.00,VWS V14.01,2013-01-07 03:53:00,
2013-01-06 22:54:00,32.8,27.3,29.92,WSW,257,1.0,1.0,80,0.00,,BKN100,0.00,VWS V14.01,2013-01-07 03:54:00,
2013-01-06 22:55:00,32.8,27.3,29.92,WSW,257,1.0,1.0,80,0.00,,FEW060,0.00,VWS V14.01,2013-01-07 03:55:00,
2013-01-06 22:56:00,32.8,27.3,29.92,SW,236,0.0,1.0,80,0.00,,FEW060,0.00,VWS V14.01,2013-01-07 03:56:00,
2013-01-06 22:57:00,32.9,27.4,29.92,WSW,246,1.0,1.0,80,0.00,,FEW060,0.00,VWS V14.01,2013-01-07 03:57:00,
2013-01-06 22:58:00,32.9,27.4,29.92,SW,231,0.0,1.0,80,0.00,,FEW060,0.00,VWS V14.01,2013-01-07 03:58:00,
2013-01-06 22:59:00,32.9,27.4,29.92,West,273,0.0,0.0,80,0.00,,BKN100,0.00,VWS V14.01,2013-01-07 03:59:00,
2013-01-06 23:00:00,32.9,27.4,29.92,West,273,0.0,0.0,80,0.00,,FEW060,0.00,VWS V14.01,2013-01-07 04:00:00,
2013-01-06 23:01:00,33.0,27.5,29.92,West,268,0.0,1.0,80,0.00,,FEW060,0.00,VWS V14.01,2013-01-07 04:01:00,
2013-01-06 23:02:00,33.0,27.5,29.91,West,266,0.0,1.0,80,0.00,,FEW060,0.00,VWS V14.01,2013-01-07 04:02:00,
2013-01-06 23:03:00,33.0,27.5,29.92,West,266,0.0,1.0,80,0.00,,FEW060,0.00,VWS V14.01,2013-01-07 04:03:00,
2013-01-06 23:04:00,33.0,27.5,29.91,WSW,256,1.0,1.0,80,0.00,,BKN100,0.00,VWS V14.01,2013-01-07 04:04:00,
2013-01-06 23:05:00,33.0,27.5,29.91,WSW,256,1.0,1.0,80,0.00,,FEW060,0.00,VWS V14.01,2013-01-07 04:05:00,
2013-01-06 23:06:00,33.0,27.5,29.92,WSW,253,1.0,1.0,80,0.00,,FEW060,0.00,VWS V14.01,2013-01-07 04:06:00,
2013-01-06 23:07:00,33.0,27.5,29.92,WSW,250,1.0,1.0,80,0.00,,FEW060,0.00,VWS V14.01,2013-01-07 04:07:00,
2013-01-06 23:08:00,33.1,27.6,29.92,WSW,238,1.0,1.0,80,0.00,,FEW060,0.00,VWS V14.01,2013-01-07 04:08:00,
2013-01-06 23:09:00,33.1,27.6,29.92,WSW,252,1.0,1.0,80,0.00,,BKN100,0.00,VWS V14.01,2013-01-07 04:09:00,
2013-01-06 23:10:00,33.1,27.6,29.92,WSW,252,1.0,1.0,80,0.00,,FEW060,0.00,VWS V14.01,2013-01-07 04:10:00,
2013-01-06 23:11:00,33.1,27.6,29.91,WSW,243,1.0,1.0,80,0.00,,FEW060,0.00,VWS V14.01,2013-01-07 04:11:00,
2013-01-06 23:12:00,33.1,27.6,29.91,WSW,243,0.0,1.0,80,0.00,,FEW060,0.00,VWS V14.01,2013-01-07 04:12:00,
2013-01-06 23:13:00,33.2,27.7,29.91,WSW,243,0.0,1.0,80,0.00,,FEW060,0.00,VWS V14.01,2013-01-07 04:13:00,
2013-01-06 23:14:00,33.2,27.4,29.91,West,270,0.0,1.0,79,0.00,,BKN100,0.00,VWS V14.01,2013-01-07 04:14:00,
2013-01-06 23:15:00,33.2,27.4,29.91,West,270,0.0,1.0,79,0.00,,FEW060,0.00,VWS V14.01,2013-01-07 04:15:00,
2013-01-06 23:16:00,33.2,27.4,29.91,West,260,0.0,1.0,79,0.00,,FEW060,0.00,VWS V14.01,2013-01-07 04:16:00,
2013-01-06 23:17:00,33.2,27.4,29.92,WSW,252,1.0,1.0,79,0.00,,FEW060,0.00,VWS V14.01,2013-01-07 04:17:00,
2013-01-06 23:18:00,33.2,27.4,29.91,WSW,250,1.0,1.0,79,0.00,,FEW060,0.00,VWS V14.01,2013-01-07 04:18:00,
2013-01-06 23:19:00,33.3,27.5,29.92,West,259,1.0,1.0,79,0.00,,BKN100,0.00,VWS V14.01,2013-01-07 04:19:00,
2013-01-06 23:20:00,33.3,27.5,29.92,West,259,1.0,1.0,79,0.00,,FEW060,0.00,VWS V14.01,2013-01-07 04:20:00,
2013-01-06 23:21:00,33.3,27.5,29.92,WSW,254,0.0,1.0,79,0.00,,FEW060,0.00,VWS V14.01,2013-01-07 04:21:00,
2013-01-06 23:22:00,33.3,27.5,29.91,WSW,254,0.0,0.0,79,0.00,,FEW060,0.00,VWS V14.01,2013-01-07 04:22:00,
2013-01-06 23:23:00,33.4,27.6,29.91,WSW,253,0.0,0.0,79,0.00,,FEW060,0.00,VWS V14.01,2013-01-07 04:23:00,
2013-01-06 23:24:00,33.4,27.6,29.91,WSW,253,0.0,0.0,79,0.00,,BKN100,0.00,VWS V14.01,2013-01-07 04:24:00,
2013-01-06 23:25:00,33.4,27.6,29.91,WSW,253,0.0,0.0,79,0.00,,FEW060,0.00,VWS V14.01,2013-01-07 04:25:00,
2013-01-06 23:26:00,33.4,27.6,29.91,WSW,253,0.0,0.0,79,0.00,,FEW060,0.00,VWS V14.01,2013-01-07 04:26:00,
2013-01-06 23:27:00,33.4,27.6,29.91,WSW,253,0.0,0.0,79,0.00,,FEW060,0.00,VWS V14.01,2013-01-07 04:27:00,
2013-01-06 23:28:00,33.4,27.6,29.91,WSW,254,0.0,0.0,79,0.00,,FEW060,0.00,VWS V14.01,2013-01-07 04:28:00,
2013-01-06 23:29:00,33.4,27.6,29.91,WSW,253,0.0,0.0,79,0.00,,BKN100,0.00,VWS V14.01,2013-01-07 04:29:00,
2013-01-06 23:30:00,33.4,27.6,29.91,WSW,253,0.0,0.0,79,0.00,,FEW060,0.00,VWS V14.01,2013-01-07 04:30:00,
2013-01-06 23:31:00,33.4,27.6,29.91,WSW,252,0.0,0.0,79,0.00,,FEW060,0.00,VWS V14.01,2013-01-07 04:31:00,
2013-01-06 23:32:00,33.4,27.6,29.91,WSW,253,0.0,0.0,79,0.00,,FEW060,0.00,VWS V14.01,2013-01-07 04:32:00,
2013-01-06 23:33:00,33.3,27.5,29.91,WSW,252,0.0,0.0,79,0.00,,FEW060,0.00,VWS V14.01,2013-01-07 04:33:00,
2013-01-06 23:34:00,33.3,27.5,29.91,WSW,253,0.0,0.0,79,0.00,,BKN100,0.00,VWS V14.01,2013-01-07 04:34:00,
2013-01-06 23:35:00,33.3,27.5,29.91,WSW,253,0.0,0.0,79,0.00,,FEW060,0.00,VWS V14.01,2013-01-07 04:35:00,
2013-01-06 23:36:00,33.3,27.5,29.91,WSW,253,0.0,0.0,79,0.00,,FEW060,0.00,VWS V14.01,2013-01-07 04:36:00,
2013-01-06 23:37:00,33.3,27.5,29.91,WSW,253,0.0,1.0,79,0.00,,FEW060,0.00,VWS V14.01,2013-01-07 04:37:00,
2013-01-06 23:38:00,33.3,27.5,29.91,WSW,255,0.0,1.0,79,0.00,,FEW060,0.00,VWS V14.01,2013-01-07 04:38:00,
2013-01-06 23:39:00,33.3,27.5,29.91,WSW,255,0.0,1.0,79,0.00,,OVC100,0.00,VWS V14.01,2013-01-07 04:39:00,
2013-01-06 23:40:00,33.3,27.5,29.91,WSW,255,0.0,1.0,79,0.00,,FEW060,0.00,VWS V14.01,2013-01-07 04:40:00,
2013-01-06 23:41:00,33.3,27.5,29.91,WSW,255,0.0,0.0,79,0.00,,FEW060,0.00,VWS V14.01,2013-01-07 04:41:00,
2013-01-06 23:42:00,33.3,27.5,29.91,WSW,255,0.0,0.0,79,0.00,,FEW060,0.00,VWS V14.01,2013-01-07 04:42:00,
2013-01-06 23:43:00,33.3,27.5,29.91,WSW,255,0.0,0.0,79,0.00,,FEW060,0.00,VWS V14.01,2013-01-07 04:43:00,
2013-01-06 23:44:00,33.3,27.5,29.91,WSW,255,0.0,0.0,79,0.00,,OVC100,0.00,VWS V14.01,2013-01-07 04:44:00,
2013-01-06 23:45:00,33.3,27.5,29.91,WSW,255,0.0,0.0,79,0.00,,FEW060,0.00,VWS V14.01,2013-01-07 04:45:00,
2013-01-06 23:46:00,33.3,27.5,29.91,WSW,254,0.0,0.0,79,0.00,,FEW060,0.00,VWS V14.01,2013-01-07 04:46:00,
2013-01-06 23:47:00,33.3,27.5,29.91,WSW,255,0.0,0.0,79,0.00,,FEW060,0.00,VWS V14.01,2013-01-07 04:47:00,
2013-01-06 23:48:00,33.3,27.5,29.91,WSW,255,0.0,0.0,79,0.00,,FEW060,0.00,VWS V14.01,2013-01-07 04:48:00,
2013-01-06 23:49:00,33.3,27.5,29.91,WSW,255,0.0,0.0,79,0.00,,OVC100,0.00,VWS V14.01,2013-01-07 04:49:00,
2013-01-06 23:50:00,33.3,27.5,29.91,WSW,255,0.0,0.0,79,0.00,,FEW060,0.00,VWS V14.01,2013-01-07 04:50:00,
2013-01-06 23:51:00,33.2,27.4,29.91,WSW,254,0.0,0.0,79,0.00,,FEW060,0.00,VWS V14.01,2013-01-07 04:51:00,
2013-01-06 23:52:00,33.2,27.4,29.91,WSW,255,0.0,0.0,79,0.00,,FEW060,0.00,VWS V14.01,2013-01-07 04:52:00,
2013-01-06 23:53:00,33.2,27.4,29.91,WSW,255,0.0,0.0,79,0.00,,FEW060,0.00,VWS V14.01,2013-01-07 04:53:00,
2013-01-06 23:54:00,33.1,27.3,29.92,WSW,254,0.0,0.0,79,0.00,,OVC100,0.00,VWS V14.01,2013-01-07 04:54:00,
2013-01-06 23:55:00,33.1,27.3,29.92,WSW,254,0.0,0.0,79,0.00,,FEW060,0.00,VWS V14.01,2013-01-07 04:55:00,
2013-01-06 23:56:00,33.2,27.4,29.92,WSW,254,0.0,0.0,79,0.00,,FEW060,0.00,VWS V14.01,2013-01-07 04:56:00,
2013-01-06 23:57:00,33.1,27.3,29.92,WSW,255,0.0,1.0,79,0.00,,FEW060,0.00,VWS V14.01,2013-01-07 04:57:00,
2013-01-06 23:58:00,33.1,27.3,29.92,WSW,255,0.0,0.0,79,0.00,,FEW060,0.00,VWS V14.01,2013-01-07 04:58:00,
2013-01-06 23:59:00,33.1,27.3,29.92,WSW,255,0.0,0.0,79,0.00,,OVC100,0.00,VWS V14.01,2013-01-07 04:59:00,